GFSGL_925_thetae_000.txt.gz
Theta_e
342 340 337 340 340 336 334 333 330 332 333 335 336 335 333 332 333 334 334 335 334 333 334 332 332 331 330 329 325 321 320 321 322 321 320 320 321 320 320 323 324 331 334
343 341 339 342 343 340 337 336 335 335 334 333 332 331 330 331 333 333 333 334 335 333 333 331 330 330 331 330 328 323 321 321 323 321 321 321 321 320 320 322 324 327 335
345 344 342 343 343 338 335 335 335 335 335 333 332 331 333 333 331 330 331 333 333 332 332 331 330 331 331 330 329 327 323 322 323 322 322 321 320 319 320 321 323 325 328
346 345 343 342 335 334 335 335 335 334 335 334 332 333 334 331 330 331 333 334 333 331 329 329 329 332 331 329 329 328 327 325 324 323 321 321 320 320 321 322 322 323 326
346 346 344 338 338 336 334 334 334 334 335 334 333 333 333 331 330 333 332 330 328 327 326 327 327 327 328 328 328 327 326 325 324 323 321 320 320 320 321 321 322 323 324
344 345 343 340 339 337 336 335 335 334 336 334 333 333 333 329 331 331 330 329 328 326 324 324 325 325 326 326 326 326 326 325 324 323 321 321 320 320 321 321 322 322 324
344 342 342 341 338 337 337 337 335 334 334 335 333 334 330 330 330 331 330 328 327 326 325 325 325 323 325 326 326 325 325 323 323 321 321 321 321 321 320 321 321 322 322
342 342 341 341 339 338 337 337 335 335 336 336 336 334 332 332 331 332 330 328 327 325 324 323 321 324 324 326 325 323 322 320 320 318 318 319 319 319 319 320 321 321 322
340 340 340 340 340 338 337 336 336 336 336 337 336 326 332 332 327 330 329 327 323 324 320 323 322 321 323 323 322 320 320 320 320 318 317 318 318 318 319 320 322 322 322
340 340 339 338 338 337 337 336 336 336 338 337 335 333 333 329 330 328 327 322 324 323 323 321 320 321 322 320 319 318 318 319 318 319 317 318 318 318 318 320 321 322 323
340 338 337 339 339 337 337 337 337 339 338 335 333 329 331 331 328 327 324 324 324 322 320 319 320 321 320 318 318 317 315 315 317 317 317 318 318 318 318 319 321 323 323
339 339 338 332 334 340 338 339 339 338 334 332 330 328 330 330 327 325 325 323 321 319 318 320 320 319 317 316 315 314 314 314 314 314 315 316 317 318 317 318 321 324 324
337 336 327 328 330 330 341 340 337 332 329 329 329 331 329 326 325 323 322 319 317 317 317 318 317 317 315 313 313 312 311 311 312 312 312 313 315 316 316 318 320 321 325
329 330 329 328 327 329 338 336 332 331 332 330 330 328 325 322 321 320 318 317 316 316 316 317 317 315 313 312 311 309 309 309 310 311 312 312 314 316 316 318 320 321 326
330 329 330 328 331 336 334 333 332 328 325 326 324 323 323 320 319 317 317 315 314 314 317 319 316 313 311 310 308 307 307 307 308 309 310 311 312 313 315 316 319 320 321
327 326 327 329 332 335 333 325 322 321 321 321 320 319 318 316 314 312 312 312 313 314 313 312 310 309 308 306 305 304 304 304 305 307 309 310 310 311 313 315 317 318 320
326 330 333 333 334 329 325 324 319 318 318 318 316 315 313 311 311 312 314 314 313 312 310 308 306 304 303 302 302 301 300 303 303 304 306 306 308 310 311 312 314 315 318
331 332 330 328 329 326 323 323 321 319 316 314 313 312 312 311 311 311 311 310 309 307 306 303 300 298 298 299 299 299 300 301 301 301 302 303 305 309 309 309 310 312 314
331 329 329 329 329 328 328 326 323 320 318 316 314 313 312 312 311 309 309 308 306 303 301 300 300 300 299 297 297 297 298 299 299 299 299 300 302 304 307 307 308 310 311
327 326 328 330 329 326 323 323 323 321 319 316 315 313 311 311 309 307 306 305 304 303 303 301 301 301 300 297 294 294 296 298 297 298 298 299 300 300 302 304 306 307 308
327 325 323 326 325 323 321 321 319 318 316 314 313 310 309 309 308 306 305 304 304 303 302 300 297 298 296 294 291 290 294 296 297 297 297 298 299 299 300 301 304 305 308
324 323 323 324 324 322 322 320 318 316 315 314 311 307 308 307 307 306 305 304 304 302 299 298 296 295 294 292 290 294 295 295 296 297 297 297 298 299 299 300 301 302 304
323 323 324 322 321 320 319 318 318 317 315 313 310 307 306 306 305 306 306 305 303 299 297 296 295 294 292 290 290 293 294 295 295 296 296 296 297 298 299 299 299 300 300
322 321 319 320 320 319 318 317 315 315 315 313 311 309 307 306 305 303 305 303 299 297 296 296 295 292 290 289 289 292 294 295 296 295 295 295 296 297 298 298 298 299 299
316 315 315 315 316 316 315 314 313 312 311 310 311 310 308 306 304 302 303 299 298 296 295 295 294 294 291 289 289 290 293 294 295 295 294 295 295 296 297 297 297 297 298
312 309 310 314 314 314 314 313 312 312 311 310 308 309 307 306 304 302 301 298 297 296 295 295 294 294 293 292 292 289 290 293 295 295 294 294 294 294 295 296 296 296 296

GFSGL_925_thetae_003.txt.gz
Theta_e
352 350 337 335 334 335 335 336 336 330 332 331 332 334 334 333 330 330 332 333 333 334 334 333 332 331 332 330 328 326 324 321 321 321 322 323 322 320 320 320 320 320 321
351 349 340 336 336 334 334 333 330 326 328 330 332 332 332 330 328 330 331 331 332 332 333 332 331 331 331 330 329 328 327 325 322 321 322 322 323 321 320 320 319 320 321
349 347 341 337 338 339 337 335 333 332 332 333 331 330 328 329 330 330 330 330 330 332 331 332 330 330 330 329 329 328 328 327 325 323 322 322 322 321 320 319 319 320 321
348 346 342 338 339 342 342 339 336 335 334 333 331 328 329 330 330 329 330 330 332 332 329 329 328 329 329 327 327 327 328 327 326 324 322 322 321 320 319 319 319 320 320
348 346 343 338 337 343 343 339 335 335 333 331 330 330 330 330 331 329 329 331 330 328 326 324 324 325 325 325 324 325 326 326 325 323 322 322 320 319 319 319 319 320 319
349 348 343 338 337 343 341 335 334 334 333 331 331 332 331 331 331 328 329 329 328 327 326 324 323 324 324 324 325 325 326 326 325 322 322 321 320 318 319 320 319 319 320
350 346 345 345 341 340 336 336 333 333 332 332 332 333 331 331 331 328 329 329 328 327 325 324 321 321 321 322 323 325 325 324 323 322 322 320 319 318 319 319 318 318 319
347 345 343 341 341 340 336 337 335 334 334 333 332 332 333 332 331 331 329 330 329 328 325 323 320 322 321 321 323 323 322 320 319 319 319 319 318 317 318 318 318 318 319
345 343 344 342 341 339 338 337 336 335 335 334 333 333 335 332 330 331 328 329 327 326 323 322 323 321 320 323 322 320 319 319 318 317 318 319 319 319 318 318 318 319 319
344 344 344 341 340 339 339 336 337 336 336 335 335 335 334 332 332 329 328 326 326 323 323 322 320 319 319 321 319 317 316 316 315 316 316 318 318 318 317 318 318 318 318
343 342 343 340 339 337 336 334 331 331 335 336 335 335 333 332 327 329 327 326 323 323 323 321 318 319 320 318 316 314 314 313 314 314 314 315 316 318 317 316 317 317 318
341 341 339 338 337 335 335 331 329 329 330 335 334 333 331 327 329 328 325 324 324 321 318 317 319 319 317 314 313 312 312 311 311 311 312 312 314 314 316 316 316 317 320
340 338 333 332 329 328 328 330 329 327 330 334 332 329 328 329 327 325 323 321 319 317 316 316 316 316 315 313 312 311 310 309 309 309 310 311 312 313 316 315 316 317 320
335 333 332 333 333 331 329 328 329 332 333 330 328 330 329 326 323 321 320 318 316 315 314 314 317 315 314 312 311 309 308 307 306 306 307 309 310 311 313 315 316 316 320
333 332 331 329 328 329 331 334 334 332 330 330 329 327 326 321 319 318 318 317 315 313 313 317 315 314 312 310 308 306 305 305 304 304 305 306 308 309 311 314 315 315 318
330 327 326 326 326 328 330 327 329 327 324 325 323 322 322 319 317 315 314 313 312 311 313 314 312 309 307 305 303 302 302 302 302 302 303 304 304 306 309 311 312 313 316
327 329 328 326 326 329 328 326 318 317 319 319 318 317 315 313 312 313 313 313 313 312 311 309 306 304 302 301 300 299 299 300 300 300 301 302 302 303 307 308 310 311 313
326 327 327 328 328 329 327 326 322 317 314 314 314 313 313 312 311 311 310 310 310 309 308 305 301 298 297 297 297 297 298 299 298 298 299 299 299 300 303 305 307 309 310
330 329 329 329 330 329 324 323 321 317 315 314 313 313 313 312 311 310 309 308 307 305 302 300 299 299 298 297 296 295 295 297 297 297 298 298 299 299 300 303 304 308 309
330 329 329 329 328 326 323 321 319 318 316 315 315 315 313 312 310 309 307 306 305 303 302 300 300 300 300 297 294 291 293 296 297 297 297 298 299 299 299 301 302 304 307
325 324 328 328 327 326 325 324 323 319 317 317 316 314 312 310 310 308 306 304 304 303 302 300 298 297 295 294 290 292 295 296 296 296 296 297 298 298 299 301 301 302 305
325 324 323 323 325 324 323 322 321 321 318 315 313 310 308 308 308 307 306 304 304 303 301 298 296 295 294 291 293 294 295 296 296 296 296 296 298 298 299 299 299 300 300
322 322 322 322 323 322 320 319 318 317 315 314 312 308 307 306 306 307 306 305 304 302 299 297 295 294 292 289 292 294 295 296 295 295 295 296 297 298 298 298 298 299 299
321 321 322 321 320 319 318 317 317 316 316 314 312 310 308 306 305 304 306 305 304 300 297 296 294 292 289 289 291 293 294 295 295 294 295 295 296 297 297 297 297 297 298
316 315 315 316 318 317 316 314 312 313 314 314 313 311 309 307 305 303 303 304 302 299 297 295 294 293 290 289 289 290 293 295 295 294 294 294 295 296 296 296 296 297 297
310 309 310 312 314 314 313 312 312 311 311 311 312 312 310 308 306 304 303 301 299 297 295 294 294 294 292 292 292 290 289 293 295 294 293 293 294 295 295 295 296 295 295

GFSGL_925_thetae_006.txt.gz
Theta_e
352 353 353 354 351 330 329 327 331 333 332 328 331 331 331 332 332 331 329 330 332 332 332 333 333 333 332 332 331 328 326 323 321 324 322 324 324 323 322 319 319 318 318
352 351 351 352 345 332 332 331 335 335 334 330 331 331 332 334 333 330 328 330 330 331 331 332 332 331 331 331 331 330 328 327 323 324 324 323 324 324 323 321 320 318 318
352 350 346 347 339 333 333 332 333 334 329 330 329 330 331 331 329 328 329 329 329 330 330 331 330 331 329 329 328 329 329 328 326 323 324 324 323 323 322 321 321 318 318
350 347 344 345 342 335 333 332 331 331 327 328 331 331 330 328 328 329 329 329 329 329 331 331 328 327 326 327 327 326 326 326 325 324 324 324 323 323 322 320 319 318 319
349 345 346 347 342 335 334 335 335 334 333 333 332 332 330 328 329 330 330 329 329 330 329 327 326 324 323 323 324 324 325 325 325 324 324 323 323 323 322 321 319 319 319
348 345 344 342 340 337 336 337 338 338 337 335 334 332 330 328 329 330 330 330 329 329 328 326 325 324 322 321 324 323 323 324 325 324 324 323 322 322 320 319 319 319 321
349 346 344 341 338 337 335 336 341 341 338 335 334 333 331 330 330 330 331 329 330 329 328 327 326 324 320 320 320 321 323 324 323 322 322 321 321 320 319 319 318 318 319
350 348 344 341 338 338 331 335 340 340 335 334 333 333 331 331 332 331 331 331 329 329 329 328 325 323 321 322 320 321 322 321 320 318 317 316 316 317 318 318 318 318 318
349 348 345 342 339 338 337 335 335 335 334 333 333 333 332 331 332 333 330 331 328 327 328 325 322 322 322 320 320 321 320 320 318 317 315 315 315 317 317 316 317 318 318
348 347 346 344 340 337 335 335 334 334 334 334 333 331 331 332 333 331 331 329 328 327 325 322 322 320 319 318 319 318 317 316 314 314 313 314 313 314 317 316 316 317 317
346 345 343 344 342 338 336 335 334 333 333 330 328 328 328 327 331 331 328 328 327 325 323 323 320 317 319 319 317 315 314 312 311 310 311 311 312 313 314 316 316 315 315
344 342 341 341 339 338 336 334 332 331 330 328 328 326 324 323 329 327 329 328 326 323 323 319 316 317 316 317 315 313 311 309 309 309 310 310 310 311 312 314 315 314 315
340 338 337 337 337 336 334 330 329 328 328 327 327 324 327 329 327 328 328 326 324 321 318 316 315 314 314 315 312 311 308 308 307 306 306 307 307 308 309 313 314 314 316
334 332 330 329 327 328 327 328 329 328 327 326 329 330 329 327 327 327 325 322 319 317 316 314 313 316 315 313 311 308 306 305 304 303 303 304 306 306 306 310 311 313 314
333 333 331 330 331 329 328 328 327 327 330 331 330 330 328 326 326 323 320 318 318 316 313 312 314 314 313 311 308 306 304 303 302 301 301 301 303 302 304 308 310 311 314
335 332 330 328 327 328 326 325 328 331 330 330 328 326 324 323 322 319 318 316 313 312 310 312 311 310 308 305 304 302 301 300 300 299 299 300 300 300 301 306 308 310 312
332 330 328 324 324 326 326 323 321 322 326 323 321 320 320 320 318 315 313 312 312 311 311 310 308 306 303 301 299 298 298 298 298 298 298 298 299 299 300 303 305 308 310
328 324 326 328 327 326 325 324 323 318 316 315 316 316 313 313 312 312 311 309 309 309 309 307 304 300 298 298 297 296 296 296 297 297 297 298 298 298 300 301 303 304 308
325 325 325 326 326 326 324 324 323 318 315 315 312 311 311 311 311 311 309 308 308 306 304 302 299 299 299 298 297 294 292 295 296 296 297 297 298 298 299 300 302 303 307
331 328 328 328 328 327 325 323 320 317 316 314 312 312 312 312 311 310 309 307 306 304 302 301 300 300 300 297 294 291 291 296 296 296 296 297 297 298 298 299 300 301 303
328 327 327 327 326 324 323 321 320 318 315 314 315 315 314 313 311 310 308 306 305 304 302 301 299 298 295 294 291 293 295 295 295 295 296 296 297 297 298 298 299 301 302
324 324 325 327 326 324 322 322 321 319 318 316 316 314 312 310 308 308 307 306 305 304 302 299 297 295 294 292 292 295 295 295 295 295 295 296 297 297 297 298 298 299 300
322 322 321 322 322 322 321 320 320 319 318 316 314 312 311 309 308 307 306 305 304 304 302 298 296 294 292 289 293 294 295 295 295 294 294 295 296 296 297 297 297 298 299
321 321 321 320 321 320 320 320 319 318 317 315 314 313 311 309 307 306 305 306 305 304 301 297 295 293 289 289 291 293 294 295 295 294 294 294 295 296 296 296 297 297 297
318 316 316 317 318 317 317 316 316 316 316 315 315 314 313 309 307 305 304 305 305 304 300 297 294 293 290 289 289 290 293 294 295 294 293 293 295 295 296 295 296 296 296
311 311 312 313 315 316 316 315 313 312 312 313 313 313 313 311 308 306 304 303 304 302 299 296 294 293 291 292 292 291 290 291 294 294 293 293 294 294 295 295 295 295 295

GFSGL_925_thetae_012.txt.gz
Theta_e
356 356 356 356 356 358 357 355 352 348 344 343 343 338 339 337 336 337 336 333 335 334 332 334 335 336 333 331 330 330 330 329 330 328 326 326 328 330 330 330 329 328 327
355 357 356 356 355 356 358 355 353 348 343 344 342 339 338 337 336 337 335 331 332 332 333 335 335 334 334 334 332 331 329 328 329 329 328 328 327 326 327 329 329 327 327
354 354 354 355 356 355 356 355 351 347 342 340 338 337 339 337 336 337 336 335 334 333 334 334 334 334 334 332 332 330 328 328 328 328 328 328 326 326 326 327 326 325 326
352 355 355 355 355 355 355 354 347 343 338 334 337 334 337 337 337 336 336 336 333 333 334 335 334 335 332 332 331 332 331 331 329 328 328 327 326 325 325 326 324 323 323
354 355 357 357 357 355 354 351 346 340 331 331 332 327 327 335 334 336 335 333 333 334 334 334 334 335 334 331 329 329 330 328 327 326 326 325 325 326 326 324 323 323 323
356 357 357 359 359 355 354 350 344 338 331 333 327 331 332 328 328 332 332 332 333 335 335 335 335 334 334 329 326 324 324 327 327 326 326 326 327 326 324 324 324 323 324
357 358 358 359 358 355 354 349 345 341 335 326 330 333 332 331 330 331 331 330 333 334 336 337 336 333 333 332 331 329 326 326 326 326 327 326 326 324 325 324 322 321 320
358 358 358 358 357 354 351 348 346 342 335 333 335 333 334 333 333 332 332 330 333 335 337 337 334 333 334 332 332 329 328 328 327 327 326 325 324 322 320 319 319 320 319
356 357 357 357 356 354 349 345 344 342 336 334 334 336 336 335 336 335 334 332 333 336 337 334 333 333 333 329 326 327 327 326 324 323 321 319 318 317 317 318 319 320 320
354 356 357 357 355 353 350 347 343 340 338 336 337 337 338 337 333 334 334 333 335 334 332 334 331 329 329 324 322 324 324 324 325 323 321 321 318 319 319 319 319 320 321
353 355 357 357 355 351 349 347 343 339 338 339 339 339 336 334 332 334 331 331 334 332 333 331 330 327 323 320 317 322 324 323 320 320 320 318 315 317 318 317 317 317 316
356 356 357 354 352 350 346 342 340 340 341 340 339 339 338 331 332 327 329 329 330 331 331 330 329 327 319 317 316 318 318 316 318 320 319 315 316 316 315 314 315 315 314
355 355 351 350 348 345 341 340 339 339 339 339 339 336 331 333 333 330 328 326 327 329 331 329 326 320 315 315 314 314 315 317 319 318 315 314 314 313 313 312 311 310 315
351 348 346 344 342 341 339 339 340 339 338 340 337 334 333 332 332 331 326 327 327 326 325 322 319 318 318 318 317 315 317 318 316 313 313 313 312 311 310 308 308 312 318
348 347 346 344 344 342 336 339 339 338 336 337 335 330 328 329 332 332 331 329 328 327 325 324 323 323 323 322 321 319 317 315 313 312 312 311 309 308 307 307 307 315 317
346 346 344 343 343 340 336 332 331 331 331 330 331 331 331 331 331 328 327 326 324 322 320 322 322 321 321 320 320 318 315 312 311 310 309 309 307 306 306 306 308 314 315
343 342 338 338 338 337 334 332 331 324 327 328 329 330 327 324 324 323 321 319 316 316 319 320 320 320 319 318 316 313 312 311 309 308 308 306 305 305 305 306 308 311 315
341 338 338 337 336 335 334 334 332 330 329 325 321 322 321 321 319 317 316 316 315 315 318 319 318 318 316 314 312 311 310 309 307 306 305 305 305 304 305 305 307 310 313
338 335 334 332 332 331 331 331 331 329 331 326 315 313 312 314 314 314 314 318 319 317 316 314 313 312 311 311 310 309 307 306 302 303 304 304 304 304 304 304 305 307 311
332 331 331 332 332 333 333 332 331 331 331 328 323 321 315 313 316 317 317 317 316 315 313 312 311 310 310 310 308 306 304 303 304 303 303 303 303 303 303 304 304 305 309
331 331 332 332 331 330 329 329 328 328 328 327 326 324 321 321 320 320 318 316 315 314 312 311 310 309 308 306 303 302 302 303 302 302 302 302 302 303 303 303 303 304 305
331 330 329 328 328 328 328 328 328 327 326 325 324 320 319 319 320 319 317 315 314 312 311 310 308 306 304 302 301 300 301 302 302 301 301 301 301 302 302 303 303 303 304
329 328 329 329 329 328 327 327 327 326 325 324 323 322 318 319 319 318 317 315 313 311 310 308 306 304 302 298 297 299 300 301 300 300 300 301 301 301 302 302 302 303 303
328 328 328 327 326 325 325 325 325 324 324 323 322 321 320 318 319 317 316 314 312 311 309 307 305 303 300 297 297 298 298 298 298 299 299 300 301 301 302 302 302 302 303
327 326 325 325 325 324 324 323 323 322 322 321 320 320 319 319 318 316 316 314 312 311 309 307 305 302 299 297 296 296 295 293 294 295 297 300 300 301 301 301 301 302 302
323 322 321 320 320 320 320 320 320 320 319 319 318 318 318 318 318 317 315 313 312 311 309 307 304 302 299 297 296 295 293 292 292 293 294 299 300 301 299 300 300 301 301

GFSGL_925_thetae_015.txt.gz
Theta_e
359 359 359 360 360 362 360 357 355 349 347 344 346 343 339 341 340 339 338 338 338 337 336 333 334 335 334 332 331 331 329 329 330 328 328 328 329 329 329 330 331 329 329
356 359 360 359 359 359 361 359 358 353 349 346 346 343 340 340 339 339 339 337 335 335 334 334 335 334 336 336 333 333 332 329 329 332 330 329 329 329 329 329 329 328 327
355 357 360 359 361 359 361 360 359 357 352 347 346 343 341 339 338 337 337 338 336 334 334 335 335 335 335 334 334 333 330 330 331 329 329 327 328 327 328 327 328 329 327
351 352 356 359 359 360 359 359 360 358 353 346 346 343 340 337 334 335 332 338 338 337 335 335 335 335 336 335 335 334 334 332 331 329 327 328 328 328 328 328 327 326 326
352 353 354 358 359 359 358 360 360 358 353 346 344 343 337 330 334 331 326 338 339 338 334 335 336 335 335 336 335 333 332 331 329 328 327 326 327 328 328 327 327 325 325
356 356 356 360 359 359 359 360 360 358 353 348 344 341 333 336 332 331 328 336 336 336 336 336 336 335 334 333 332 331 328 328 331 330 328 327 328 327 327 326 326 324 324
359 363 360 364 364 364 362 361 360 358 352 347 343 340 338 335 333 330 328 335 336 335 335 337 338 335 335 335 335 333 332 330 327 326 329 330 329 327 326 326 325 324 322
364 362 364 364 367 366 363 361 360 354 349 347 343 338 336 336 336 332 327 332 333 331 334 336 337 337 334 332 332 330 332 332 330 329 328 329 327 325 325 322 320 320 320
364 364 364 365 365 365 363 360 357 351 349 346 343 337 336 339 337 334 330 331 332 333 333 336 338 336 332 330 329 329 330 330 329 326 325 324 323 321 320 319 320 320 321
361 362 362 362 363 362 360 357 355 352 347 343 340 337 336 337 339 336 332 334 334 334 334 330 335 330 330 330 329 327 328 328 326 326 326 324 323 323 320 319 321 321 320
355 357 359 360 360 360 358 354 351 350 346 343 340 338 339 340 340 338 336 329 332 333 331 336 331 330 330 328 326 324 326 325 327 323 321 322 323 321 318 319 321 320 318
355 357 359 361 359 357 355 353 350 345 341 340 339 339 341 342 340 337 328 329 334 331 331 334 331 330 330 325 322 319 319 319 319 319 321 321 320 317 316 316 316 314 315
358 359 360 359 356 354 353 349 347 343 341 340 340 341 342 340 339 335 333 329 330 332 332 331 331 329 325 320 318 316 315 318 319 321 321 318 314 315 314 314 314 312 311
360 357 355 352 350 349 348 346 343 343 342 342 342 341 339 338 333 334 331 329 328 327 328 327 323 322 321 322 321 320 319 320 321 319 316 315 314 313 312 311 310 309 309
351 349 348 347 347 342 339 342 341 340 340 339 340 340 338 337 334 333 331 330 330 330 330 329 325 325 325 324 322 322 321 320 319 316 315 313 312 311 310 309 308 309 311
350 348 347 346 342 338 335 332 337 335 334 334 336 334 328 327 329 329 330 330 328 327 327 327 325 324 323 322 322 322 320 319 316 315 313 312 311 309 308 307 308 309 311
349 348 346 345 343 342 341 339 337 328 331 329 329 329 330 329 328 329 328 327 325 323 322 322 322 322 322 321 321 320 318 315 314 312 311 310 308 307 307 307 307 308 310
344 341 340 340 339 338 336 335 334 333 331 328 325 327 327 326 326 324 322 320 319 317 319 320 321 321 320 319 317 316 314 313 312 310 308 307 307 307 306 307 307 307 307
341 339 339 337 336 334 334 334 332 331 331 329 319 319 320 320 318 317 317 319 322 322 321 319 318 317 316 315 314 313 313 311 308 306 307 306 306 306 306 306 306 306 306
338 336 335 334 333 332 332 332 331 330 331 329 325 323 316 314 316 317 317 319 321 319 318 317 316 315 314 313 313 312 310 307 306 306 306 305 305 305 305 305 305 306 306
335 333 331 333 331 332 332 331 330 329 328 329 328 325 320 320 323 323 321 321 320 318 317 316 315 313 312 312 310 307 306 305 305 305 305 304 304 304 305 304 305 305 306
332 332 330 331 330 330 329 328 328 328 326 326 325 323 322 322 323 322 321 320 318 317 316 315 313 311 309 308 306 305 304 304 304 304 303 303 304 304 304 305 305 305 305
331 330 329 329 329 329 328 328 327 327 326 325 324 322 323 323 322 321 320 318 318 316 315 313 311 309 307 305 302 301 303 304 303 302 302 303 303 304 304 305 305 305 305
330 330 330 329 329 329 327 327 326 325 325 324 324 324 323 322 320 320 319 318 317 316 314 313 310 308 306 304 300 300 301 301 301 301 302 302 303 304 304 304 304 304 304
329 329 328 327 327 326 325 325 325 324 323 322 322 322 321 320 319 319 318 318 316 315 314 312 310 308 306 303 300 300 298 297 296 294 298 301 303 303 304 303 303 303 304
326 325 325 325 324 324 323 323 323 323 322 322 321 320 319 318 318 319 318 316 316 314 313 312 310 308 305 302 300 298 297 294 293 293 293 298 302 303 301 302 302 303 303

GFSGL_925_thetae_018.txt.gz
Theta_e
366 365 366 365 365 361 362 356 357 350 347 349 350 348 344 342 342 342 339 338 338 338 336 336 334 335 334 334 333 332 331 330 335 330 327 327 328 327 327 327 328 329 329
366 364 365 366 365 365 362 363 358 355 352 344 347 346 344 342 342 341 338 339 339 340 338 337 335 334 335 334 334 334 333 331 331 335 332 331 332 331 330 331 331 330 330
364 363 364 363 364 364 365 361 362 359 353 350 350 346 344 341 343 339 339 335 336 333 335 335 334 335 336 336 336 335 334 333 333 332 331 328 329 328 326 327 327 330 326
362 362 362 363 363 362 363 364 362 361 358 353 349 348 345 342 341 338 339 338 338 337 337 335 334 336 336 336 334 335 334 334 333 332 332 331 330 328 329 329 328 329 329
357 359 361 362 362 362 362 363 363 363 361 357 351 350 346 344 342 339 339 338 338 338 337 335 334 337 337 337 336 336 336 334 333 331 331 331 330 329 329 328 328 328 327
352 357 358 360 362 361 363 361 364 363 363 359 354 350 349 345 341 339 338 340 339 339 339 337 335 336 336 335 334 335 333 332 331 328 328 331 330 330 330 329 328 327 326
353 356 356 358 361 362 362 363 362 363 363 360 355 351 349 345 341 337 338 336 340 340 340 337 336 336 337 337 335 333 331 330 329 325 328 329 330 329 329 327 327 326 324
355 358 357 359 362 363 363 363 363 364 363 361 356 350 348 344 340 335 332 333 338 338 337 334 323 333 335 335 332 330 329 329 327 326 331 329 328 327 327 325 322 320 320
361 363 362 365 366 366 365 365 364 364 364 358 353 348 346 343 339 335 334 333 331 333 333 328 329 332 334 331 329 331 330 329 327 330 329 328 329 328 325 322 322 321 321
361 364 365 368 372 370 369 367 366 363 358 353 349 346 344 341 338 338 337 332 332 334 333 330 332 330 328 332 330 331 331 328 327 328 328 327 326 325 321 322 323 322 321
363 368 367 368 368 369 369 365 361 356 353 350 347 344 342 340 338 337 337 335 335 336 334 332 333 332 330 331 330 329 329 328 327 325 326 322 321 322 322 322 322 322 322
366 367 367 367 366 366 364 358 356 354 350 347 344 342 341 339 338 339 339 337 336 331 334 334 332 334 332 330 329 326 324 321 319 320 321 321 322 321 317 316 314 314 313
362 364 364 364 362 362 358 355 353 350 346 344 341 340 341 342 341 341 339 337 335 332 335 333 332 331 331 329 327 325 320 318 318 321 322 322 316 315 314 314 315 313 311
366 365 360 358 356 354 353 351 348 345 343 343 343 343 342 341 340 338 336 332 332 330 331 330 328 328 328 326 322 321 321 320 321 322 320 318 317 314 313 312 311 310 309
360 356 351 350 350 348 347 346 345 344 343 343 342 341 340 339 339 334 334 333 330 328 328 329 326 324 323 323 322 322 322 321 321 321 319 316 314 313 312 310 309 307 310
352 350 349 345 343 340 339 339 340 340 341 341 341 341 337 338 335 333 331 330 329 330 329 332 330 328 327 327 326 325 323 322 320 319 316 314 312 312 310 308 308 309 309
349 349 347 343 342 341 340 337 331 329 332 333 334 334 330 327 328 328 328 329 328 327 327 327 325 324 323 321 321 321 321 321 316 314 313 312 310 309 308 308 308 308 309
353 349 347 345 344 343 341 341 338 332 332 327 328 329 329 328 328 328 328 326 324 322 323 322 322 322 320 320 319 318 316 315 313 311 309 307 307 308 307 307 308 307 307
342 342 346 342 341 340 339 338 336 334 333 327 322 324 325 324 324 324 322 322 324 323 322 322 319 318 317 316 315 315 314 313 311 309 307 308 308 306 307 306 306 306 306
340 340 339 337 335 336 336 336 333 334 332 326 325 322 319 321 319 319 319 319 321 322 320 318 317 316 315 315 314 314 312 310 308 308 308 306 306 306 305 306 306 306 307
338 335 334 335 334 333 333 332 332 331 333 329 328 323 323 322 322 322 322 321 322 321 319 318 317 315 314 313 313 310 308 307 306 306 305 305 304 305 305 305 305 306 306
335 335 332 333 333 333 333 331 330 329 332 331 330 325 322 323 324 325 323 322 320 319 318 317 316 314 312 310 308 307 306 305 305 305 304 304 304 304 305 305 306 306 306
331 332 330 331 330 329 329 329 328 328 326 327 326 321 320 324 324 323 322 320 318 317 317 316 314 312 310 308 305 303 303 304 304 303 303 303 304 304 304 306 305 305 305
331 330 330 330 330 330 329 328 328 326 327 326 325 324 324 325 324 322 321 319 318 317 316 315 313 311 309 306 305 301 301 303 302 301 301 301 303 304 304 305 305 304 305
329 330 330 330 329 328 326 327 328 326 325 326 325 325 324 323 320 320 319 318 317 316 315 314 313 311 309 307 304 301 299 299 299 298 295 299 301 303 304 303 303 303 304
327 326 326 326 325 325 326 325 325 325 324 324 324 324 323 321 320 319 318 318 318 316 315 315 313 311 309 306 304 302 299 298 296 294 294 295 300 303 303 301 303 303 303

GFSGL_925_thetae_021.txt.gz
Theta_e
363 361 363 364 361 357 359 357 353 353 346 348 348 347 347 343 340 341 343 339 339 338 340 337 337 335 335 333 333 332 332 333 334 332 330 329 332 330 330 330 328 328 328
365 363 362 364 364 361 358 359 354 352 352 347 348 347 347 345 340 343 343 339 338 341 337 338 336 336 334 333 332 332 334 333 332 332 332 331 331 328 327 327 326 327 327
365 365 364 362 364 363 359 357 358 354 352 350 348 347 348 346 340 339 342 341 338 339 338 338 334 334 332 333 335 335 336 334 333 333 333 332 331 329 329 329 328 329 328
366 365 364 364 363 363 363 359 358 362 357 352 349 348 347 346 342 341 341 341 337 339 339 340 338 336 333 335 336 337 335 334 334 333 333 332 331 330 330 328 328 327 327
364 365 363 363 364 364 363 364 360 360 361 357 352 349 347 346 343 341 340 340 336 333 337 338 336 334 333 335 336 336 335 334 333 332 332 330 329 329 330 329 329 328 328
362 363 363 362 363 362 363 362 364 361 361 360 355 351 350 347 345 343 341 341 337 337 337 337 336 335 334 336 336 334 334 332 331 331 330 328 328 329 329 329 328 327 326
357 361 361 361 361 361 361 362 363 364 362 363 358 354 351 350 347 344 342 340 339 336 336 337 339 337 337 328 333 334 333 332 328 330 329 328 324 324 329 329 327 326 326
354 357 359 359 360 361 361 362 362 363 363 363 361 357 352 350 349 345 342 340 338 337 338 340 339 337 331 330 333 333 332 329 328 330 329 324 328 329 329 328 327 326 323
351 352 356 358 359 360 361 361 362 361 363 363 362 358 353 350 349 345 341 339 337 336 338 338 338 335 327 333 332 330 331 329 330 330 328 330 328 326 328 329 326 322 320
350 353 355 356 358 360 361 362 362 363 364 363 361 359 355 350 348 344 339 335 332 332 335 334 334 332 325 331 330 329 331 330 330 328 327 328 327 326 323 323 322 322 321
353 354 358 358 359 362 362 362 364 364 364 362 358 353 351 349 346 342 338 335 335 333 332 331 332 331 330 331 330 330 330 329 329 326 325 324 322 320 321 322 317 316 318
362 359 368 365 367 366 366 366 365 360 357 353 350 347 347 346 344 341 339 337 337 334 334 334 333 330 330 332 331 330 329 328 324 321 319 319 320 321 316 315 313 314 315
364 368 370 370 370 368 367 359 355 356 351 347 346 344 343 342 341 339 337 336 336 336 335 334 334 332 332 330 330 330 328 325 320 319 319 321 321 317 315 312 312 311 309
366 366 364 364 362 360 356 354 351 348 346 345 343 342 341 340 341 341 340 340 337 335 334 332 332 330 327 328 328 327 324 321 320 320 320 321 319 314 313 312 310 308 307
359 357 355 353 351 351 350 348 348 347 346 343 343 342 341 342 342 340 339 338 332 334 332 330 328 326 326 325 324 323 322 321 321 320 321 322 315 313 312 309 308 308 308
350 350 346 344 343 343 342 340 344 344 344 343 343 342 342 340 338 337 333 333 331 330 328 328 328 328 327 326 325 324 323 323 322 321 319 315 313 312 309 308 308 307 308
348 345 344 342 341 339 338 337 330 336 341 341 340 340 339 338 337 334 334 330 328 328 329 329 331 330 328 326 326 326 325 323 323 320 314 312 308 308 307 308 306 307 307
347 345 343 341 341 340 338 335 333 330 329 330 331 330 330 332 330 327 326 327 326 326 326 325 324 323 322 320 318 316 315 316 313 310 309 307 307 307 307 306 305 307 305
345 344 343 341 340 340 339 335 335 333 331 330 328 328 328 327 327 327 326 325 323 323 322 320 320 316 315 315 314 314 314 313 311 309 307 307 307 306 306 305 305 305 305
346 346 345 343 342 341 340 339 334 333 330 327 326 326 326 325 325 324 322 322 322 321 322 317 316 316 315 315 314 313 312 310 309 307 307 307 305 304 304 304 305 304 306
335 337 343 341 339 339 339 337 335 333 330 326 324 325 326 325 324 321 321 320 319 321 317 317 316 315 314 314 313 312 310 307 306 307 305 304 304 304 304 304 304 305 306
337 334 334 334 333 333 333 332 333 332 329 327 326 324 325 322 322 322 321 320 320 319 318 317 316 314 312 311 311 307 306 305 304 304 304 303 303 303 304 304 305 305 304
333 335 332 331 332 333 332 330 330 332 330 329 327 324 320 323 323 323 323 322 321 319 317 316 314 312 310 308 307 305 303 303 303 303 303 303 303 303 304 304 304 304 303
330 331 330 330 329 329 327 326 327 328 328 328 327 324 322 323 324 324 323 322 320 318 317 316 314 311 309 306 304 302 301 302 302 302 301 299 301 303 303 303 302 303 303
330 330 330 328 328 327 327 328 327 326 326 325 324 323 323 323 324 322 322 319 318 317 316 315 314 312 311 309 308 303 300 301 300 299 299 298 295 301 303 302 301 303 303
327 328 328 327 327 327 326 326 325 326 327 326 325 325 324 324 321 320 320 319 318 317 316 315 314 313 310 309 307 304 302 300 299 297 294 294 296 302 303 302 302 302 303

GFSGL_925_thetae_024.txt.gz
Theta_e
357 357 357 356 354 354 354 357 353 353 350 347 346 347 347 346 343 337 339 341 341 335 339 339 336 335 334 335 333 333 333 333 332 333 332 330 330 330 330 330 330 329 328
359 359 358 358 357 356 353 355 358 355 350 346 346 347 347 346 345 336 338 342 341 337 336 339 339 336 336 336 333 333 332 331 332 330 331 331 331 331 329 328 329 329 327
359 359 360 360 359 356 354 355 356 359 354 351 348 348 348 347 346 343 337 338 341 339 337 338 337 338 336 337 334 333 333 335 334 333 332 331 331 331 330 329 329 328 328
360 359 359 360 361 359 356 355 355 357 356 354 351 348 348 347 346 345 341 339 341 340 336 338 339 338 336 334 333 334 335 333 333 332 332 331 331 330 330 329 329 328 327
361 361 360 359 360 361 360 357 356 356 357 355 353 351 349 347 347 346 343 340 341 341 338 337 339 338 338 337 333 334 334 329 332 331 331 329 329 330 328 329 329 328 326
361 362 361 361 360 360 361 360 358 357 357 357 355 353 351 349 347 346 345 342 340 340 340 337 336 336 337 336 333 335 329 331 333 330 329 329 328 328 327 326 328 328 325
361 362 362 362 361 361 360 361 361 359 357 359 359 355 352 351 349 347 346 343 341 341 340 336 333 335 336 336 336 335 327 333 332 330 328 328 328 329 325 328 329 328 327
360 361 362 361 361 361 361 361 361 362 359 358 358 358 356 354 352 349 347 344 342 341 340 338 333 334 338 338 335 330 330 332 331 329 327 327 329 328 328 329 329 328 327
357 360 361 361 360 360 360 360 360 361 361 360 360 358 356 355 356 353 347 343 341 341 340 339 334 336 337 336 335 328 330 332 330 330 330 330 329 328 327 326 326 326 322
354 355 359 360 359 359 359 359 360 360 361 361 361 360 359 359 358 354 349 345 341 340 338 337 336 338 338 336 328 330 332 330 330 330 329 327 327 326 325 322 321 323 322
352 353 355 358 358 358 358 359 359 360 360 361 360 359 359 359 358 352 347 344 342 338 337 335 335 336 335 332 329 330 330 329 329 329 327 324 321 319 320 320 318 314 315
350 351 351 355 356 357 358 359 359 360 359 356 356 353 354 354 352 348 346 344 340 336 334 332 332 332 331 331 331 330 330 329 329 327 323 320 319 321 318 315 313 312 312
349 349 352 353 355 357 358 360 360 358 354 350 350 346 348 348 347 346 344 341 338 336 337 336 335 334 333 332 331 330 330 329 327 323 319 319 320 320 318 313 312 310 309
353 354 358 359 360 360 360 359 357 354 350 347 348 345 345 344 344 342 340 338 337 337 336 335 333 333 331 329 328 327 328 327 324 320 320 319 321 321 314 312 310 308 308
362 363 363 360 358 352 351 351 351 350 349 345 345 345 342 340 341 339 339 339 337 337 334 332 331 330 330 327 326 326 325 324 321 320 319 320 321 317 313 311 308 308 307
357 351 346 341 337 334 333 338 344 348 348 349 347 345 343 342 340 341 340 339 338 336 333 332 330 327 326 326 325 325 323 322 322 321 320 320 318 312 310 307 307 306 306
349 344 340 339 338 338 336 336 328 339 343 343 342 342 341 340 339 338 335 334 331 330 329 328 328 328 328 327 327 326 325 325 324 322 320 314 310 308 307 307 306 305 305
344 343 342 340 340 341 339 336 336 335 332 336 340 340 339 338 337 334 332 330 328 327 328 328 328 328 325 322 322 321 319 319 321 318 311 309 307 306 307 305 305 304 305
342 341 341 340 339 337 334 332 334 331 328 324 328 333 335 336 335 331 328 326 326 326 325 325 323 321 320 318 316 315 314 314 312 311 308 306 307 305 305 304 304 305 304
343 341 340 339 338 336 335 334 332 330 328 326 326 326 327 328 326 326 326 326 325 323 322 321 318 315 315 315 314 313 312 311 309 308 306 307 305 304 304 304 304 304 304
343 342 341 340 339 338 335 333 332 333 330 327 327 328 328 327 326 326 326 325 322 320 320 316 315 315 314 314 313 312 309 309 306 305 306 304 304 303 304 304 304 304 304
340 342 341 341 339 339 338 335 333 333 330 327 326 327 326 327 326 325 324 322 321 319 317 316 316 316 314 313 312 311 308 306 305 304 304 303 303 303 304 304 304 303 302
333 336 335 335 336 335 336 337 334 331 329 327 325 324 324 325 324 323 322 321 320 320 316 316 316 314 312 310 309 308 306 304 304 304 303 303 303 303 303 303 303 302 302
332 331 330 329 328 328 328 330 333 332 329 328 327 325 323 324 323 322 322 322 320 320 317 316 316 315 313 310 307 305 305 302 302 303 302 301 299 300 303 303 302 301 302
329 329 329 328 328 328 327 328 330 330 329 328 327 326 322 323 323 323 324 324 322 319 317 316 316 315 313 311 310 307 303 301 301 301 300 299 298 296 302 302 301 302 302
330 328 327 327 327 328 328 328 327 326 327 326 326 325 325 322 323 323 323 323 323 319 316 316 315 314 313 312 310 308 305 301 300 299 297 296 294 297 302 303 301 301 301

GFSGL_925_thetae_027.txt.gz
Theta_e
352 353 353 353 353 353 352 351 349 353 353 353 352 349 350 351 348 345 341 338 339 338 337 335 335 335 333 332 333 333 333 330 328 331 331 330 330 329 329 329 329 328 329
352 352 352 353 353 354 353 352 350 354 353 353 352 350 349 350 347 345 342 338 339 339 337 336 337 338 336 335 335 333 333 331 332 330 330 331 331 330 330 330 330 329 329
352 353 353 353 353 353 353 354 352 354 355 352 351 350 348 347 346 346 344 340 337 339 339 333 335 338 339 336 336 336 333 333 335 333 332 332 331 330 330 330 329 329 328
353 354 354 355 354 354 353 353 353 352 354 354 352 350 347 346 346 346 345 343 337 338 337 336 334 336 337 337 336 335 333 334 334 331 331 330 329 329 328 328 328 328 329
354 355 355 355 355 355 354 354 353 353 353 354 355 351 347 347 347 347 346 345 342 339 338 339 337 336 337 338 337 335 333 335 331 330 331 329 327 327 328 328 328 326 327
355 356 356 356 357 357 356 355 354 353 353 353 354 355 351 349 347 347 346 345 345 343 340 340 339 336 338 338 337 338 335 334 331 330 331 329 331 328 327 328 327 325 326
356 356 356 356 356 358 358 357 356 354 354 353 352 353 352 352 351 350 348 346 345 344 341 340 339 339 337 335 335 337 335 335 330 329 332 331 329 326 327 327 326 326 327
357 357 358 357 356 356 358 358 358 356 355 355 354 353 352 353 353 352 350 346 344 342 342 341 341 339 337 333 334 336 336 335 330 330 331 326 326 327 327 328 327 327 326
357 357 358 359 358 357 357 357 358 358 356 355 354 353 354 354 354 355 352 346 342 342 342 341 340 340 338 334 337 337 335 332 330 331 330 330 330 329 328 327 325 325 323
357 357 358 359 359 359 358 358 358 358 359 357 355 355 355 355 355 356 354 346 343 343 343 343 342 340 338 335 337 335 333 330 327 330 329 329 328 326 326 324 321 321 320
355 357 358 359 359 359 359 358 359 358 359 358 357 357 356 357 357 357 354 349 345 343 342 342 340 338 337 338 337 334 332 329 331 329 329 328 324 320 319 319 318 316 316
351 353 356 357 359 358 358 358 358 358 358 358 359 357 355 357 358 355 351 348 348 343 344 341 338 336 335 334 332 331 329 330 330 329 328 325 320 319 320 317 315 312 312
349 351 352 355 358 358 357 357 357 358 358 357 356 352 349 355 355 355 347 347 346 344 340 337 334 332 332 332 332 332 332 331 329 328 326 322 319 319 319 316 313 312 310
346 349 350 351 355 356 356 357 357 358 358 355 351 347 346 345 346 345 346 345 342 338 335 335 335 335 333 332 331 331 330 329 329 327 323 319 319 320 320 316 312 310 307
345 346 348 349 352 354 353 356 358 358 356 352 350 347 343 340 341 345 345 343 340 337 335 335 334 332 331 329 328 326 326 327 325 323 320 319 319 320 320 313 310 307 307
354 349 353 350 342 336 339 338 352 352 349 348 347 343 341 343 347 344 342 341 338 337 334 333 332 331 330 328 325 324 323 323 322 321 320 319 319 319 314 310 307 306 305
333 341 338 337 337 340 341 339 333 339 333 332 335 337 342 338 343 340 339 339 338 336 334 333 333 332 327 325 325 325 325 325 324 322 321 320 316 312 307 306 306 304 304
340 337 341 341 342 341 339 339 338 337 337 336 341 344 344 341 340 339 338 337 330 331 332 331 330 327 327 327 326 324 323 323 323 322 321 315 309 307 306 305 304 303 303
338 338 341 342 340 338 336 334 334 336 337 327 327 338 339 340 339 337 334 331 329 328 327 327 328 327 327 324 321 320 318 317 317 315 310 308 307 306 305 304 303 304 303
335 336 338 336 335 332 332 333 331 328 327 329 332 334 335 337 332 331 330 328 327 326 326 326 325 322 322 320 316 315 314 313 312 311 309 306 306 305 303 303 303 303 303
338 337 337 335 334 333 333 332 330 328 328 328 330 334 337 332 328 330 327 325 325 325 324 322 321 318 316 315 314 313 313 312 310 308 306 306 305 303 303 303 303 303 302
339 339 338 337 335 334 333 333 330 328 327 327 326 328 329 331 329 325 325 325 324 322 321 319 316 315 315 315 313 312 310 308 306 305 305 304 303 303 303 303 303 302 302
339 338 338 337 337 335 334 333 331 329 327 327 326 324 324 325 325 325 325 325 323 319 318 317 316 315 315 313 312 311 310 308 306 305 304 303 303 302 302 303 302 301 302
331 332 331 333 336 336 334 333 331 330 328 327 327 327 327 326 324 325 324 322 321 319 318 316 316 316 314 312 310 309 307 305 303 303 303 303 302 299 299 302 302 301 301
328 329 328 328 328 328 329 330 331 329 328 327 324 323 324 324 325 324 323 321 320 319 320 316 316 315 315 314 311 310 308 304 302 302 302 301 300 299 297 300 302 301 301
328 327 327 327 327 327 327 328 328 328 326 326 326 324 322 323 324 322 322 322 321 320 320 317 316 315 313 313 312 311 309 305 301 301 300 299 298 296 296 302 302 301 300

GFSGL_925_thetae_030.txt.gz
Theta_e
351 351 351 351 351 351 351 351 351 351 351 347 350 351 351 352 351 349 346 343 340 338 337 334 333 333 335 333 332 332 331 329 329 329 330 330 329 330 328 329 330 328 329
351 352 352 351 351 351 351 351 351 351 351 348 348 351 351 352 350 350 348 344 341 338 338 337 335 334 334 333 333 332 332 332 332 331 329 330 331 330 330 330 329 329 329
349 352 352 352 351 351 351 351 351 351 351 349 352 351 352 351 350 349 349 347 343 338 337 337 335 335 337 336 335 334 333 332 331 331 332 331 331 330 329 327 327 328 328
348 350 351 352 352 351 351 351 351 351 351 349 351 351 352 351 349 348 348 347 344 341 338 335 337 334 336 337 337 336 335 333 333 333 332 331 330 329 328 327 327 328 327
349 349 350 351 351 351 352 352 352 351 351 351 349 352 352 351 349 348 347 346 345 343 342 338 337 338 335 335 336 336 335 333 333 333 331 330 329 327 328 327 327 327 326
349 349 350 351 351 351 351 351 351 352 352 352 350 351 351 350 350 350 346 345 345 345 344 341 338 337 337 336 337 338 337 335 334 333 330 329 328 329 329 326 326 328 326
350 350 351 352 352 352 352 352 351 351 352 352 351 349 349 351 350 350 349 345 345 345 345 343 341 339 338 337 335 338 337 337 336 333 332 328 330 330 327 326 327 326 326
351 351 352 353 353 353 353 353 353 352 351 352 351 351 349 350 351 352 350 348 346 345 345 344 343 342 340 339 338 337 335 336 335 334 331 329 331 328 327 328 328 327 326
352 352 353 354 354 354 355 355 354 353 352 352 351 350 350 349 350 351 352 347 345 345 345 344 343 343 342 340 338 336 334 336 335 334 331 330 331 330 329 329 327 325 326
354 354 354 354 354 354 355 355 356 355 354 353 353 352 351 351 350 350 351 348 343 344 344 343 343 343 341 340 338 335 336 336 334 331 329 330 329 329 327 326 325 324 322
352 354 355 355 355 354 354 355 355 356 356 354 354 354 351 353 352 352 351 346 345 344 342 342 343 343 342 339 338 335 335 334 332 328 330 329 328 326 323 319 319 319 319
352 354 355 356 356 356 356 356 355 356 356 357 356 354 352 352 353 353 353 352 351 347 343 345 344 343 340 338 337 338 336 332 329 330 329 328 326 322 318 319 316 315 314
348 353 355 356 357 357 357 357 357 357 357 357 357 356 354 352 352 353 352 351 351 345 347 348 345 340 337 335 334 333 332 329 329 329 328 327 324 319 319 319 316 313 312
345 348 350 354 355 357 357 357 357 357 357 357 357 356 355 348 348 351 348 341 342 343 345 341 337 334 332 332 332 332 331 331 330 329 327 325 319 318 319 319 316 313 310
345 342 346 349 351 356 356 355 357 357 357 357 357 355 350 341 335 339 335 339 343 340 336 333 333 333 332 331 330 330 330 329 328 327 326 321 319 319 319 319 314 311 307
351 349 344 346 348 349 344 345 355 357 357 357 354 350 342 342 342 336 332 333 343 336 333 331 330 332 330 329 327 326 325 326 326 325 323 319 319 319 319 314 310 307 306
338 346 344 342 341 340 342 341 333 339 354 349 344 343 337 334 332 330 330 333 339 335 332 331 332 333 332 330 328 326 324 324 323 322 321 320 319 319 314 310 306 305 303
337 340 342 340 342 342 344 341 337 336 337 336 335 333 333 333 332 332 335 341 331 333 334 333 333 333 332 329 325 324 323 324 323 322 321 321 320 315 308 306 304 303 303
330 337 341 342 341 340 339 336 334 334 334 333 326 332 337 336 334 340 342 334 329 330 334 335 335 334 332 326 325 325 324 322 321 321 321 319 312 307 306 304 303 303 303
332 339 338 338 336 334 330 333 335 333 329 331 328 324 325 328 323 325 331 333 331 333 332 331 330 329 326 326 324 321 319 318 317 316 314 310 307 306 304 303 303 303 303
337 337 335 334 334 333 328 331 330 330 329 330 329 325 332 332 328 329 333 333 332 329 328 327 327 327 325 322 319 317 315 314 313 312 310 307 305 305 304 303 303 303 302
336 336 335 333 332 333 332 330 330 330 330 326 321 326 332 332 332 334 332 329 327 325 325 325 325 322 321 318 315 314 313 312 311 310 309 306 305 304 303 303 303 302 301
337 336 335 334 332 331 330 329 328 328 327 326 328 329 330 333 332 330 329 327 325 324 324 322 321 319 317 315 314 313 312 310 308 307 305 304 304 302 302 302 302 302 301
333 333 333 333 333 333 332 331 329 327 327 325 324 324 329 332 332 331 329 325 324 322 320 320 319 316 315 314 313 311 310 309 307 305 304 303 303 302 301 301 302 301 301
328 329 331 332 333 331 331 330 329 329 329 328 327 325 323 324 327 327 325 325 323 320 319 318 316 315 316 315 312 310 308 306 304 303 303 302 302 300 298 298 301 301 301
326 327 327 327 328 329 328 329 330 329 327 326 326 326 323 323 322 323 323 322 321 321 319 317 316 315 315 313 310 310 308 306 303 301 302 301 300 298 297 297 301 301 300

GFSGL_925_thetae_033.txt.gz
Theta_e
351 351 351 351 352 352 352 352 351 351 350 351 350 350 350 352 352 351 349 347 344 342 340 339 340 340 338 337 337 336 335 333 334 334 333 333 328 330 332 329 329 330 332
351 352 352 352 352 352 353 352 351 351 350 351 351 351 353 353 351 351 351 347 346 345 343 341 340 338 339 338 336 337 335 335 334 337 336 335 331 333 331 331 333 331 330
351 352 353 353 353 353 353 353 352 351 351 352 353 352 353 354 352 350 351 349 347 346 344 342 341 340 338 336 337 336 335 336 336 335 335 335 335 334 334 331 330 331 328
351 352 353 354 354 354 354 353 352 352 352 351 351 352 352 353 353 351 351 351 349 347 346 343 341 341 339 339 339 338 337 337 337 336 335 336 336 335 333 332 331 331 331
351 352 354 354 354 354 354 354 353 353 352 352 351 352 352 353 352 351 352 351 349 348 346 344 342 340 338 337 337 340 339 338 338 337 337 336 335 334 332 329 332 331 330
351 351 353 354 355 354 354 354 354 354 353 353 352 352 352 351 351 350 351 350 349 349 347 346 344 341 337 337 334 336 337 339 339 338 336 335 335 335 331 332 331 329 331
351 352 352 354 355 355 355 355 355 355 354 354 353 352 352 351 349 349 350 350 349 348 347 347 346 344 340 338 337 335 336 337 337 340 338 337 336 334 332 333 331 332 331
351 352 352 353 354 354 355 355 355 355 355 355 354 353 352 352 350 347 350 350 349 348 347 347 347 345 343 340 341 339 338 338 337 336 338 337 334 335 332 332 332 332 331
352 353 353 352 353 354 355 355 355 355 355 356 355 354 353 353 351 349 349 348 349 349 348 347 347 346 344 343 340 342 340 340 337 335 336 336 332 330 331 332 331 330 328
353 353 353 353 354 355 356 356 356 355 355 355 355 355 354 353 352 350 349 348 349 350 349 348 346 346 345 344 341 342 342 340 338 335 335 333 330 330 330 329 330 327 324
353 354 355 355 355 356 356 356 357 357 356 355 355 356 354 353 354 351 350 349 350 349 349 348 347 346 344 343 342 342 342 340 337 337 335 333 332 330 329 328 328 325 323
353 355 357 356 356 356 357 357 357 357 358 357 357 356 356 355 352 353 350 350 350 349 348 348 346 347 344 342 340 340 339 336 336 334 333 331 331 329 327 324 322 322 322
353 355 357 357 358 358 357 357 357 358 359 359 358 357 356 355 354 352 352 351 348 348 348 346 346 346 343 341 340 338 336 335 334 333 332 331 330 328 324 321 319 318 316
354 356 357 358 358 359 359 357 358 358 358 359 360 359 357 356 354 352 350 350 345 345 345 343 342 342 340 339 337 337 336 335 334 333 332 330 327 324 322 321 320 318 317
351 352 354 356 357 359 359 359 358 357 359 359 359 358 358 350 345 349 345 335 335 334 332 330 334 335 336 334 331 331 332 332 332 332 331 328 325 323 322 321 320 319 317
356 352 350 350 353 355 359 353 358 359 359 358 358 358 357 349 341 340 336 336 335 329 331 331 334 331 331 331 331 331 331 331 331 330 329 327 324 323 323 321 319 317 316
346 349 348 347 350 351 350 349 350 350 357 357 357 357 356 342 339 336 330 330 331 331 333 334 332 331 331 330 329 329 329 329 329 327 327 325 323 323 322 320 317 315 313
341 340 342 344 344 344 345 346 343 342 338 329 336 353 349 338 333 332 331 332 332 332 332 333 333 332 331 330 329 328 328 327 326 325 325 324 324 323 321 318 315 313 310
338 341 341 338 338 339 337 337 337 338 340 332 328 332 332 331 330 330 331 330 329 333 333 334 333 333 333 332 330 328 327 326 325 325 324 323 322 320 317 315 312 308 307
340 338 340 336 334 333 332 333 334 333 333 331 331 329 319 327 323 323 330 330 331 333 334 334 333 334 334 332 328 327 326 324 324 323 322 320 317 315 314 311 309 307 307
338 338 336 340 339 336 332 332 333 332 333 333 332 333 333 328 324 324 332 332 332 332 334 335 334 333 331 328 326 325 323 322 320 318 317 315 313 312 310 308 307 307 305
337 336 337 336 336 335 333 333 332 332 331 329 327 329 331 328 328 329 332 333 334 333 332 330 329 328 326 325 323 321 319 317 316 315 314 312 311 310 308 307 307 306 305
339 337 336 336 336 333 334 332 333 332 330 324 323 324 326 331 331 330 331 330 328 328 327 326 325 324 323 321 319 318 317 316 315 313 312 310 309 308 307 307 306 306 305
337 337 337 336 336 335 334 332 328 327 327 325 325 328 330 330 330 329 327 326 325 324 324 324 324 322 320 318 317 316 315 313 312 310 309 308 307 306 307 306 306 304 304
331 332 333 334 333 333 333 333 331 330 329 327 326 326 326 326 328 328 326 325 324 323 322 322 321 319 318 317 316 315 312 309 309 307 307 307 306 306 305 305 303 303 303
328 329 328 327 328 329 329 329 329 330 328 326 326 325 325 325 325 325 324 324 324 322 321 320 319 318 318 317 315 312 308 307 306 304 305 305 305 305 303 302 302 302 302

GFSGL_925_thetae_036.txt.gz
Theta_e
357 358 358 358 358 358 358 358 357 356 357 356 356 357 356 356 358 359 356 354 353 350 346 343 345 341 338 337 338 337 336 335 335 334 335 337 338 337 335 335 336 334 334
357 359 358 358 358 358 359 358 358 357 357 358 357 358 357 356 357 359 357 353 353 352 349 346 344 343 343 339 338 337 336 337 336 336 336 337 339 337 338 339 335 333 333
356 357 357 357 357 358 360 358 358 359 359 357 358 359 358 356 356 358 357 356 354 353 351 348 346 343 343 337 338 337 338 338 339 337 336 337 335 337 338 338 337 335 334
353 355 357 358 358 358 359 359 359 359 360 359 359 360 358 357 356 356 357 356 356 354 353 350 347 343 342 342 339 340 339 338 338 338 336 335 337 336 336 335 335 336 333
354 354 357 359 359 359 359 360 360 360 360 359 359 359 359 357 354 355 356 355 356 356 354 351 349 347 343 342 340 340 340 340 337 338 338 336 336 336 336 335 334 333 334
354 356 356 359 360 360 360 360 361 360 360 360 360 360 360 358 354 351 355 355 355 356 355 352 350 348 345 342 340 339 340 342 341 337 338 337 337 336 335 335 333 334 333
354 357 358 360 361 361 361 361 361 361 361 361 361 361 360 359 355 351 350 354 355 356 356 354 352 350 347 346 341 337 337 339 339 340 340 338 338 338 337 336 335 334 333
356 357 358 360 361 362 362 362 362 362 361 362 361 361 361 360 358 354 350 352 355 355 356 355 354 352 350 348 347 342 339 339 338 338 340 340 340 339 338 337 335 334 334
357 358 359 359 359 360 363 363 362 361 361 361 360 362 361 360 358 356 353 351 352 355 356 355 355 354 352 349 348 347 344 340 340 338 339 339 340 338 337 335 334 333 332
356 357 357 358 359 360 362 362 361 360 360 360 360 361 361 361 359 356 354 352 352 352 355 356 354 354 353 351 347 349 347 345 344 341 339 338 338 336 332 332 333 332 331
353 354 356 358 360 360 361 361 361 360 359 360 361 360 361 361 361 358 354 352 353 354 353 354 354 352 351 350 347 346 346 346 345 343 340 338 337 336 334 331 333 332 328
353 355 357 359 358 358 361 362 362 361 362 362 361 360 360 361 360 359 356 353 352 354 354 353 353 353 350 348 347 344 344 345 343 340 339 337 336 335 334 333 333 331 325
355 357 359 360 360 359 361 362 361 361 359 361 361 360 360 359 361 359 357 355 351 353 355 355 353 352 350 346 345 341 343 342 340 339 338 337 335 334 333 331 329 328 327
357 359 360 362 361 361 360 361 361 360 360 359 360 360 359 359 361 360 355 352 351 349 351 352 350 348 347 343 339 339 340 341 338 337 336 335 334 333 332 329 326 325 323
359 359 360 360 360 362 361 360 360 359 358 360 360 360 359 360 361 361 357 343 346 343 339 344 341 338 333 335 334 337 337 337 337 336 335 335 334 331 329 327 324 324 323
356 355 354 355 357 359 359 361 359 359 359 358 357 356 357 359 360 361 357 354 350 336 338 334 333 333 333 335 337 337 335 337 337 336 335 335 333 330 328 326 325 324 323
351 353 354 350 350 351 355 357 359 357 358 358 357 358 358 358 358 358 355 352 341 338 335 332 332 334 334 335 334 334 334 335 335 335 334 333 331 329 326 326 325 324 322
342 341 346 347 348 349 348 348 349 350 351 354 346 351 354 353 356 356 351 340 331 336 334 333 333 334 335 335 335 334 334 335 335 334 332 331 329 327 326 326 324 321 319
344 344 342 343 343 343 341 336 335 333 331 329 326 325 321 321 317 319 328 333 332 336 337 336 335 334 334 334 334 334 334 334 333 332 330 328 327 326 325 323 321 318 315
340 339 340 341 341 340 341 340 335 333 331 331 329 327 327 329 330 329 326 328 330 336 338 337 336 335 335 335 335 334 332 331 330 329 328 327 326 324 322 321 318 315 311
340 339 340 342 341 337 338 339 338 336 334 334 329 329 330 330 328 329 330 329 331 333 336 336 337 338 336 335 334 332 331 330 329 328 326 325 324 322 320 317 314 312 311
340 341 339 339 339 338 337 337 336 337 336 336 334 331 332 331 328 327 328 330 332 334 335 336 337 337 336 334 332 331 329 328 327 325 324 322 320 319 316 313 311 310 310
339 339 340 340 338 336 337 337 336 334 333 332 330 331 330 329 329 329 330 331 332 334 337 336 337 335 333 331 330 328 326 324 323 321 320 319 317 315 313 311 310 310 309
338 338 337 336 337 337 336 334 331 328 327 327 330 331 332 331 331 331 332 331 332 332 332 331 330 329 328 327 326 324 322 321 320 319 319 317 316 312 311 310 310 309 309
333 334 334 334 335 335 334 333 334 334 332 329 329 330 331 332 332 332 329 328 328 328 327 327 326 326 325 323 321 320 318 316 316 315 315 313 312 311 310 310 309 308 307
328 329 327 325 325 327 329 331 331 332 332 331 332 332 332 330 330 330 329 328 326 326 325 325 324 324 322 321 320 317 314 312 311 310 311 311 311 310 309 309 308 307 306

GFSGL_925_thetae_039.txt.gz
Theta_e
365 364 364 365 364 364 361 361 360 359 360 355 358 357 359 359 358 358 356 355 357 354 350 348 347 342 341 340 339 339 338 337 336 335 336 340 339 339 337 337 337 337 335
362 364 364 364 363 364 364 362 362 362 360 362 361 359 360 359 359 360 359 353 357 357 353 349 346 346 344 342 341 340 339 338 338 342 336 341 340 339 339 340 340 334 334
360 362 364 364 364 363 364 364 363 363 363 361 361 362 362 360 359 360 360 358 357 357 356 353 349 346 348 342 339 340 340 340 340 340 338 339 339 341 340 341 340 338 337
358 360 362 364 363 363 363 365 364 364 364 363 362 363 363 362 360 360 360 361 359 358 357 356 353 350 347 348 345 340 341 341 340 341 339 337 337 338 338 338 339 339 338
357 359 361 363 364 364 363 364 364 365 365 364 363 363 365 364 361 361 359 361 361 359 358 358 355 352 349 347 345 343 340 342 338 339 340 339 337 338 338 338 338 336 335
357 359 360 362 364 365 365 365 366 365 365 365 365 364 365 365 360 359 360 360 362 361 360 359 357 353 350 347 344 342 342 343 342 339 339 340 343 340 339 338 337 337 336
356 360 360 362 365 366 366 366 366 367 366 366 366 366 365 365 362 358 357 359 360 361 360 360 360 355 351 349 345 342 341 342 341 344 342 342 343 342 340 340 338 337 336
359 358 361 362 365 366 367 367 367 367 367 367 367 366 366 365 364 360 356 355 357 359 360 360 361 357 353 351 351 345 343 340 340 339 342 344 341 341 343 341 339 338 337
360 361 360 364 365 367 368 367 368 368 368 367 367 367 367 366 365 363 359 355 356 357 358 359 360 360 356 353 352 351 348 345 342 340 339 339 341 341 341 340 338 337 336
360 362 362 363 365 367 368 369 368 368 367 367 366 367 367 367 366 364 362 357 356 357 358 358 359 359 359 356 352 353 353 349 345 342 340 336 338 339 340 338 337 335 335
356 359 363 364 366 366 366 368 369 368 365 367 366 366 366 365 367 365 363 359 358 357 358 358 360 358 358 357 354 353 353 351 346 344 341 340 339 339 339 338 335 334 333
354 358 360 364 364 363 367 368 369 368 368 367 367 367 366 366 365 366 364 361 359 358 358 357 358 359 358 357 356 353 353 351 348 346 343 342 341 340 339 337 334 334 333
358 361 362 364 366 363 366 369 368 368 365 366 364 366 366 365 366 366 364 363 361 358 357 357 356 356 356 356 355 352 351 349 347 346 344 341 340 339 337 336 335 335 334
362 364 364 366 366 365 364 364 364 363 364 362 362 363 362 362 362 363 362 362 361 359 356 356 354 353 354 354 351 352 348 346 346 343 341 340 337 338 336 336 334 333 331
361 362 363 363 364 365 364 362 362 362 361 362 362 360 361 361 361 360 360 361 354 350 352 352 347 340 338 339 342 344 344 344 341 342 340 339 337 337 335 334 332 331 329
361 362 361 361 364 363 364 364 362 361 359 360 358 358 358 356 356 355 355 358 360 351 345 344 342 340 339 339 339 340 341 342 341 339 339 338 337 335 334 333 331 329 328
359 360 356 355 356 359 358 358 360 355 357 357 358 358 357 357 357 358 357 357 360 352 347 344 343 342 339 337 337 339 340 340 339 338 339 337 336 334 333 332 330 329 327
347 349 351 353 356 356 355 355 356 357 358 355 347 347 346 345 346 354 354 353 344 346 346 344 341 340 338 338 338 338 339 339 338 338 337 336 335 333 332 331 329 328 327
348 346 346 347 347 346 345 345 345 344 341 339 338 334 327 329 333 337 342 335 331 333 336 336 336 337 339 340 339 338 338 338 338 337 337 336 335 333 331 330 328 327 324
342 342 344 345 345 345 343 342 339 339 338 338 336 334 331 330 332 325 330 331 331 331 330 334 338 338 336 337 336 336 336 336 337 337 336 335 333 331 330 329 326 324 321
341 343 344 344 340 340 340 341 340 339 340 340 335 332 330 335 332 330 332 331 332 332 334 333 336 336 336 337 337 336 336 336 336 336 334 332 331 330 327 325 323 322 319
342 340 340 340 340 339 339 339 339 340 339 337 337 334 329 335 334 333 333 333 333 331 332 334 335 336 335 336 336 335 334 334 333 332 330 330 328 326 325 323 321 319 316
338 340 341 340 339 340 340 338 337 337 335 334 333 334 333 334 333 333 332 334 335 336 333 334 335 337 336 335 333 333 332 332 331 330 329 327 326 324 322 320 318 315 313
334 335 337 337 337 336 336 336 333 330 331 332 333 334 334 334 334 332 332 334 335 334 334 334 334 336 335 333 333 332 331 330 329 328 326 324 323 321 320 317 315 313 312
332 331 332 333 334 334 335 334 335 335 334 333 333 333 333 334 334 333 332 333 333 333 334 334 334 333 333 331 330 329 327 325 324 323 323 322 321 320 317 316 314 312 312
323 325 327 326 326 326 325 324 324 327 329 329 328 328 331 332 331 330 330 329 329 329 328 328 328 329 329 327 323 320 321 321 320 320 320 320 319 317 315 313 313 312 311

GFSGL_925_thetae_042.txt.gz
Theta_e
365 365 364 365 363 361 359 358 359 355 360 353 361 360 359 359 359 360 358 358 356 357 355 353 351 342 338 342 340 339 339 338 341 337 341 338 337 335 337 337 336 337 337
366 366 365 365 366 364 361 360 360 361 357 360 357 358 359 357 361 360 361 356 358 359 354 353 354 349 340 341 346 340 339 339 339 342 341 340 338 338 336 339 339 338 339
365 367 367 366 366 366 365 362 361 361 363 359 363 362 359 361 361 362 361 360 354 360 359 354 351 351 347 339 341 343 341 340 342 339 341 341 342 342 340 338 339 339 334
363 366 367 367 367 367 366 366 363 363 362 363 362 363 364 362 362 361 362 362 360 356 361 359 355 352 348 347 340 339 341 343 340 341 341 340 340 341 341 341 341 340 339
358 363 364 365 367 366 366 367 367 365 365 364 364 364 363 364 363 362 362 362 363 361 358 360 358 355 351 347 349 345 342 339 346 341 343 342 341 342 341 339 339 338 338
360 361 363 364 365 367 366 366 366 367 366 367 366 365 365 365 365 363 362 362 362 362 362 360 360 358 356 352 348 348 342 343 341 343 343 343 342 340 341 340 338 338 339
360 362 362 364 365 366 367 366 366 367 367 367 368 367 365 366 365 364 362 362 362 363 363 362 360 360 357 355 352 348 346 343 341 339 341 342 343 342 342 342 340 339 337
360 359 363 365 366 367 368 368 368 367 368 368 368 368 367 366 365 365 363 361 361 362 362 363 362 360 360 357 353 350 347 344 343 343 341 339 340 342 342 342 340 338 338
359 363 360 365 365 367 369 368 368 368 368 369 368 368 368 367 366 365 365 362 360 360 362 362 362 361 360 359 355 351 347 346 343 342 342 345 343 339 340 342 341 338 339
360 360 363 360 365 367 368 369 369 369 369 369 369 368 368 368 367 367 365 363 360 359 359 361 361 361 361 360 356 354 352 348 346 344 342 341 341 340 342 343 341 340 338
361 361 361 364 362 366 367 369 370 370 370 370 369 369 368 368 368 367 367 364 363 360 359 359 359 359 361 361 360 355 354 353 348 346 344 341 341 339 340 340 340 338 337
346 362 364 365 365 365 368 370 370 371 370 370 369 369 369 369 369 368 368 367 365 363 361 358 357 358 358 359 360 359 355 354 352 348 345 342 341 339 337 338 339 339 337
355 361 364 366 368 365 368 370 371 371 371 371 369 369 369 368 369 368 367 367 366 366 363 361 360 357 358 358 358 359 358 354 353 348 347 343 341 340 339 339 338 338 336
362 366 366 366 368 368 367 369 369 369 371 370 370 369 367 368 368 366 367 367 366 365 365 362 361 359 357 355 351 353 356 354 353 350 347 345 342 341 340 339 339 337 335
366 367 368 367 368 369 367 367 368 368 368 369 368 365 365 366 363 359 362 362 361 363 363 360 359 358 358 355 348 347 347 352 351 350 348 344 342 341 340 339 338 337 335
366 366 365 364 366 366 368 366 361 364 364 362 359 361 359 358 357 357 357 357 357 355 358 356 359 359 355 350 345 346 346 351 350 349 346 343 341 339 338 337 336 335 332
368 364 363 363 364 367 367 367 365 346 349 353 354 353 352 351 351 351 351 353 355 357 356 351 354 351 347 347 345 346 347 348 349 348 344 341 338 337 337 335 334 333 331
353 354 358 360 359 360 362 362 364 358 355 352 346 342 341 341 341 343 345 346 349 350 349 348 348 348 347 344 344 344 345 347 347 346 342 338 337 337 335 334 333 331 330
349 350 350 350 349 348 348 348 349 348 347 344 340 336 332 334 333 333 335 336 337 338 339 337 337 338 340 340 339 339 339 339 339 339 338 337 336 335 334 333 332 330 329
347 347 348 347 347 345 344 342 343 342 341 340 339 337 336 337 333 332 332 333 333 332 330 332 334 337 336 338 337 338 338 338 336 332 336 337 335 334 333 332 331 329 329
344 345 345 344 343 344 343 341 340 341 341 342 338 332 329 334 334 332 333 334 335 335 336 336 336 333 337 336 336 335 335 334 335 338 337 336 335 333 332 330 330 327 325
344 344 343 340 341 341 342 342 342 340 339 338 338 333 329 335 335 335 334 334 336 336 336 337 336 336 336 337 336 336 336 336 337 337 336 335 335 333 331 330 329 325 323
341 342 341 340 340 340 338 337 336 334 334 333 334 335 334 336 336 335 335 335 336 336 336 336 335 336 335 335 336 336 336 336 336 336 335 334 332 331 329 326 325 323 320
336 337 337 335 335 337 337 335 333 333 334 334 333 333 335 335 335 335 336 337 338 337 336 336 335 336 335 335 335 334 334 334 334 333 331 330 329 327 325 324 322 320 318
329 330 330 330 330 330 331 331 330 329 329 327 326 327 329 333 333 332 334 335 335 336 337 335 335 335 335 334 333 333 333 331 331 330 329 328 326 324 323 322 320 318 315
321 325 325 325 324 323 323 323 324 322 322 321 321 320 321 322 324 327 327 326 325 329 330 332 333 335 333 333 332 331 330 330 329 327 325 323 322 322 320 319 318 316 314

GFSGL_925_thetae_045.txt.gz
Theta_e
359 358 360 360 357 354 361 355 347 353 356 349 351 358 355 356 355 354 353 358 358 358 357 355 352 341 338 342 342 339 338 337 337 337 339 338 337 337 337 336 337 338 335
361 361 360 362 361 357 357 360 350 352 352 357 357 356 358 358 356 356 358 358 358 356 358 356 354 352 348 335 341 340 339 339 337 337 339 339 336 336 336 337 337 335 335
361 362 362 361 363 362 359 356 359 353 353 353 356 360 359 357 358 359 356 357 357 358 356 356 355 352 350 349 338 342 342 339 339 339 340 339 337 337 337 336 336 335 337
361 363 363 363 363 363 363 360 356 359 358 357 355 357 361 359 358 357 357 356 357 355 356 359 357 354 351 350 348 338 342 344 340 342 339 341 341 341 339 339 338 338 338
362 363 364 364 364 363 363 364 363 358 360 360 359 360 359 362 359 358 357 359 359 357 354 353 358 358 356 350 349 344 338 342 344 341 341 340 339 342 344 340 339 338 339
358 362 364 365 365 364 365 364 365 364 361 361 362 360 361 362 362 360 359 360 361 360 359 356 355 359 359 357 352 347 341 339 339 345 340 341 342 340 341 342 340 341 341
355 358 363 364 365 365 365 366 365 366 366 363 363 363 362 362 362 363 362 361 360 361 361 360 358 357 359 359 356 353 349 346 340 337 343 341 340 341 340 342 340 339 338
356 357 357 363 364 365 365 365 366 366 366 367 365 364 364 363 362 363 363 363 361 360 361 361 360 359 358 359 358 356 351 349 348 345 339 339 342 341 340 340 342 339 339
359 360 359 362 363 364 364 365 365 365 365 365 366 366 366 365 365 363 364 364 362 361 361 361 361 361 360 359 359 356 353 351 350 348 347 342 339 339 343 344 343 340 338
360 362 363 362 364 364 365 365 366 366 365 365 366 366 366 366 366 366 365 364 361 361 361 360 361 361 361 361 359 357 354 352 350 347 347 344 343 342 342 342 342 339 338
358 356 359 360 363 365 365 366 366 366 366 366 366 366 367 367 366 367 366 366 363 362 361 360 359 360 361 362 361 358 357 355 352 348 346 345 342 344 346 343 340 340 339
355 360 359 359 360 364 366 367 368 367 367 367 367 368 367 367 368 367 367 367 366 364 363 362 360 359 358 359 361 361 360 357 354 349 346 344 342 340 342 343 341 342 341
345 359 359 359 359 362 363 367 369 368 368 368 368 368 368 368 368 368 368 368 367 367 365 364 364 362 360 358 357 358 359 360 355 353 348 347 343 343 340 340 341 341 340
355 360 364 365 365 365 363 365 369 370 369 369 368 368 367 367 368 367 367 367 368 367 367 366 365 364 363 360 358 356 355 351 354 355 354 351 347 342 340 340 338 339 338
359 366 368 367 367 368 366 368 369 368 369 369 369 368 368 367 366 362 365 365 365 364 362 359 358 359 358 358 356 354 353 352 349 353 354 353 349 343 341 340 339 337 337
368 368 370 368 367 368 366 353 358 365 367 367 367 368 359 360 358 356 356 356 356 356 355 354 355 357 359 359 358 358 353 350 348 349 352 353 350 345 343 340 340 337 337
357 367 364 366 365 368 368 361 342 342 349 350 353 355 353 352 355 355 353 352 352 351 353 355 353 355 358 358 358 355 351 350 348 347 349 350 350 348 343 343 339 337 336
353 353 358 364 362 366 365 367 351 340 339 336 333 335 335 334 334 336 339 341 343 345 347 349 348 347 348 349 348 348 348 347 346 345 341 339 340 339 339 338 337 336 335
352 352 352 351 351 350 351 351 351 349 344 337 335 335 335 333 331 332 334 336 337 338 338 339 338 338 339 338 340 341 342 342 340 339 333 328 332 333 326 334 335 334 332
347 347 346 346 345 343 344 343 342 340 339 337 336 334 335 334 331 331 331 333 333 332 331 332 332 332 333 336 336 338 338 338 338 338 329 332 334 334 334 332 333 330 330
345 346 346 346 344 341 341 341 341 341 340 336 332 330 334 334 333 332 332 333 333 333 334 333 333 334 336 335 336 337 338 337 336 335 336 336 335 334 333 332 331 329 329
344 345 344 341 341 342 339 338 335 335 335 334 333 333 332 334 335 335 334 334 335 336 336 336 336 335 335 336 336 336 336 335 335 336 337 335 334 333 334 332 330 329 328
340 340 340 337 336 335 334 333 333 333 333 334 334 333 334 336 336 334 334 335 335 335 335 336 335 334 335 335 335 336 336 336 336 337 336 335 334 333 331 330 328 326 324
334 334 335 336 334 333 333 332 330 331 330 329 328 328 329 330 329 327 329 331 335 337 335 336 335 335 334 335 335 335 335 335 335 335 335 335 334 334 332 330 329 325 322
327 327 327 328 328 327 325 325 325 324 323 322 322 322 323 323 322 321 322 321 323 331 333 335 335 334 334 334 335 334 333 333 334 333 333 333 332 331 328 323 323 321 321
313 317 322 321 320 321 320 319 318 317 316 316 315 314 314 314 316 319 319 320 320 318 319 323 328 333 334 333 333 333 333 331 332 330 329 327 326 325 323 322 321 319 317

GFSGL_925_thetae_048.txt.gz
Theta_e
352 354 353 352 351 355 356 352 349 348 350 350 351 352 353 354 355 355 352 352 356 355 354 355 352 342 339 341 343 341 337 337 335 336 337 338 338 337 337 337 336 335 334
353 354 355 355 353 351 355 358 355 350 347 351 353 353 355 355 356 356 354 352 353 357 357 356 356 354 349 337 340 342 340 338 337 335 335 338 337 338 337 336 336 335 336
354 355 355 357 356 355 352 353 357 356 352 347 352 356 352 353 357 355 354 353 352 353 356 357 356 356 353 350 340 338 339 340 339 338 337 336 339 337 337 337 336 336 337
356 356 356 357 358 358 356 353 353 356 355 352 347 352 357 357 356 355 354 354 354 353 355 355 355 356 355 354 350 346 339 339 342 339 339 338 339 338 336 336 336 336 337
357 358 358 357 358 359 359 358 356 354 355 356 350 354 356 357 359 358 356 355 355 355 354 354 355 355 356 354 353 351 347 346 340 344 341 340 340 339 339 338 336 337 337
358 359 358 359 359 359 360 360 359 357 355 354 356 355 355 357 358 359 359 357 357 357 356 353 352 353 353 354 355 355 354 350 344 340 342 340 339 339 340 341 339 338 337
357 357 359 359 361 360 360 360 361 361 359 356 356 356 356 357 357 359 359 359 358 357 357 356 356 354 353 353 352 353 356 356 353 345 339 341 340 340 339 339 340 339 339
353 358 359 361 361 362 362 361 361 362 362 361 359 358 359 357 357 358 360 360 359 358 358 358 358 357 356 355 355 355 355 356 356 352 345 343 339 339 339 339 339 339 340
352 352 359 360 362 363 363 363 362 363 363 363 363 362 360 361 360 360 360 361 360 360 359 359 359 359 358 358 356 356 355 354 353 355 355 353 349 341 339 339 340 339 338
352 353 354 357 361 362 363 363 364 363 364 364 364 364 364 363 362 363 362 361 359 359 360 360 360 359 359 359 359 357 356 355 354 352 351 350 351 350 345 340 340 339 339
356 355 355 355 356 360 361 362 362 363 363 363 363 363 364 365 364 364 364 364 361 361 360 360 360 360 360 360 360 359 358 358 357 355 352 350 346 347 345 343 342 341 340
357 357 359 359 358 359 360 361 362 362 363 363 363 363 364 364 365 365 365 365 365 363 362 362 361 360 360 359 359 359 360 360 358 357 355 351 349 345 343 344 343 342 341
349 352 358 360 361 362 362 362 362 363 363 364 364 364 364 365 365 366 366 366 366 366 364 364 363 363 362 361 360 359 358 359 356 357 357 357 351 350 346 343 343 343 342
361 354 357 360 359 361 362 363 364 364 365 364 365 365 365 366 367 367 367 367 367 367 367 366 366 365 364 363 362 361 360 355 352 353 355 356 357 353 349 344 342 342 341
360 365 361 358 361 362 361 363 364 365 366 366 366 366 366 366 366 366 366 366 366 366 366 363 361 359 359 359 359 359 357 357 351 350 350 353 354 353 351 346 342 341 341
356 357 362 366 367 364 358 352 358 363 366 368 367 367 367 367 366 366 365 362 361 361 358 355 355 354 355 356 358 359 358 357 354 350 347 348 350 351 351 349 343 341 340
350 354 351 358 365 364 352 350 342 342 352 360 365 367 364 363 359 360 356 354 354 353 353 352 351 352 353 354 356 357 356 356 353 347 347 347 346 347 347 347 346 342 341
350 352 352 354 359 364 362 351 344 339 336 335 339 346 350 349 349 350 349 346 343 344 345 345 345 345 346 347 347 347 346 345 344 344 342 336 334 336 337 339 335 333 332
351 350 351 355 356 360 363 359 346 341 333 332 333 333 331 331 332 332 334 337 337 338 340 340 340 339 338 336 336 336 336 337 338 340 339 333 334 331 334 327 329 334 333
350 347 347 348 348 349 349 350 346 340 333 333 333 333 332 331 330 331 332 333 333 332 332 333 332 332 333 334 332 332 335 336 336 336 337 330 331 332 331 334 333 333 331
348 346 345 344 344 344 344 340 339 337 335 331 330 334 334 333 332 331 332 332 332 333 334 334 334 334 334 335 335 335 334 336 337 336 334 334 335 335 334 332 332 330 329
348 344 345 343 340 339 338 339 338 335 332 330 329 332 334 334 334 334 334 334 334 334 335 335 335 335 334 334 335 334 334 335 335 335 335 335 335 334 332 332 330 329 327
344 342 339 337 335 334 333 332 332 332 332 333 333 333 333 331 331 332 331 333 335 336 336 336 336 334 334 334 334 335 335 335 335 334 333 334 334 333 332 331 330 329 328
337 335 333 332 332 331 331 329 328 327 327 326 325 324 324 322 322 321 323 326 331 333 333 334 333 335 335 334 334 335 334 335 335 335 336 336 335 333 332 329 329 329 328
325 328 329 328 326 325 323 322 321 320 318 318 317 316 316 316 316 316 318 317 317 320 322 326 329 332 332 334 334 333 333 332 332 334 335 335 334 334 331 330 327 327 325
313 315 318 318 318 317 316 315 313 313 311 311 312 312 312 312 312 313 315 316 316 314 314 314 314 316 323 327 329 332 332 332 332 332 332 333 332 333 333 331 328 326 323

GFSGL_925_thetae_051.txt.gz
Theta_e
350 349 349 349 349 349 349 348 348 347 348 347 346 345 347 349 351 354 355 353 351 353 354 352 351 348 345 342 340 341 342 337 333 335 335 337 338 338 338 337 337 336 336
350 350 350 350 350 350 350 349 348 347 348 347 346 348 347 350 351 353 354 355 353 352 353 354 353 352 352 347 341 341 341 341 338 335 336 335 336 338 337 337 337 337 336
348 350 351 350 350 351 352 352 351 350 350 349 349 351 351 351 353 353 353 354 355 352 351 352 353 354 353 353 352 348 340 340 340 340 338 337 336 336 337 337 337 337 337
349 350 351 352 352 350 350 350 352 351 352 352 350 348 348 353 352 351 352 354 355 354 352 351 351 353 354 353 354 353 351 346 341 339 340 340 338 338 338 338 338 337 337
351 351 351 352 353 353 352 351 350 351 351 351 353 352 350 348 353 355 352 353 355 354 353 353 352 351 350 351 352 352 352 352 348 345 339 340 340 339 339 338 337 337 336
351 351 352 352 353 354 354 354 353 351 352 352 351 351 351 351 349 350 354 356 355 354 354 353 352 352 353 352 351 352 353 352 348 344 343 341 339 339 340 339 337 336 335
353 353 353 353 354 355 356 356 356 354 353 353 353 352 352 351 351 349 352 355 357 356 356 355 354 354 353 354 352 351 352 354 354 351 346 345 342 342 339 338 339 338 337
354 355 355 356 356 355 356 357 358 357 356 355 353 353 354 353 352 352 352 355 356 357 357 356 356 356 355 355 354 354 354 353 353 353 351 350 348 347 343 340 339 339 339
353 355 356 357 357 357 358 357 358 358 358 358 357 356 354 354 354 353 354 356 357 357 357 357 357 357 357 356 356 355 354 355 354 355 354 354 353 351 347 340 338 337 337
351 354 356 356 357 358 359 359 359 359 359 359 360 360 359 357 357 357 357 356 355 356 357 357 358 357 357 358 357 356 355 355 355 355 355 355 355 355 352 346 341 340 338
349 350 353 356 357 359 359 360 360 360 360 361 361 361 361 362 361 361 360 360 357 357 357 358 358 359 359 359 359 358 357 358 357 357 356 355 353 351 352 353 351 341 340
351 350 351 352 356 358 359 360 361 361 362 361 361 361 362 362 363 363 363 363 362 360 360 360 360 360 360 360 359 359 359 359 358 357 357 358 357 355 352 348 349 351 346
353 354 354 353 353 353 357 359 359 360 360 361 361 361 361 361 362 362 363 363 363 363 362 362 362 362 362 361 361 360 359 358 354 354 355 356 357 357 357 354 350 346 344
362 359 355 357 358 358 356 357 358 359 359 360 360 360 361 362 362 363 364 364 364 364 364 364 364 363 363 363 363 362 362 360 356 352 354 355 355 355 356 355 351 348 344
355 358 360 364 361 358 358 360 360 360 361 360 361 361 362 362 363 363 364 365 365 364 363 359 358 357 358 358 359 358 359 359 357 357 350 349 350 350 351 351 351 349 344
347 348 354 354 362 363 358 351 354 360 362 362 363 363 363 363 364 365 365 365 365 365 361 359 358 356 355 356 355 355 356 356 355 353 350 348 346 346 347 347 346 346 345
348 349 351 353 351 361 355 349 342 344 354 361 364 365 365 366 366 366 365 363 360 358 358 358 355 353 352 351 351 352 353 352 348 347 345 344 345 341 334 335 337 339 336
349 349 349 350 351 356 360 354 349 344 344 348 356 362 364 364 363 360 356 354 351 351 350 349 348 347 348 346 344 342 342 339 338 338 339 339 338 335 334 335 333 332 332
346 349 347 349 351 353 359 356 349 344 341 340 339 340 340 341 344 344 343 344 342 340 339 339 340 339 337 336 335 333 333 334 335 336 336 336 335 332 333 330 332 333 332
343 347 346 346 349 351 354 352 344 340 337 335 333 332 332 332 332 333 334 335 335 334 334 333 332 331 332 332 334 334 334 336 338 337 335 335 333 330 331 332 332 330 331
343 344 346 344 345 348 350 349 345 338 334 333 333 332 331 330 330 330 330 331 332 333 334 334 334 334 334 334 334 333 332 332 334 336 335 334 334 334 334 333 331 330 330
341 343 345 343 342 341 341 341 339 335 332 331 333 333 333 332 332 331 332 332 333 333 333 334 334 335 334 334 334 333 333 333 333 333 334 334 334 334 334 334 331 329 327
340 342 342 341 339 338 337 334 331 329 328 329 330 330 330 328 326 325 326 327 329 331 332 332 333 332 333 333 334 334 334 334 335 335 333 333 333 333 332 332 330 329 327
338 339 339 336 334 333 333 330 329 329 327 325 322 321 320 320 319 319 319 320 322 325 325 327 329 330 330 331 333 334 333 334 333 334 334 333 334 333 331 331 330 329 328
329 329 329 329 327 325 324 322 320 319 317 317 315 315 314 314 313 312 311 311 313 315 314 314 316 320 324 326 329 332 333 332 332 332 333 334 334 333 333 331 329 329 329
314 314 314 313 312 312 312 311 309 308 308 307 308 309 310 310 310 310 310 310 310 311 312 313 312 311 311 310 309 314 327 329 331 331 332 331 333 334 333 332 328 326 327

GFSGL_925_thetae_054.txt.gz
Theta_e
345 346 346 346 345 345 346 346 345 345 343 344 346 346 346 346 346 348 350 354 353 351 349 351 352 352 347 345 344 342 341 340 335 337 336 336 335 336 337 337 338 337 337
346 346 347 346 346 346 346 346 346 346 345 343 346 347 346 344 345 347 349 352 354 354 352 350 351 352 351 351 350 348 343 341 339 338 339 339 338 336 335 336 337 337 337
347 347 347 347 347 347 347 347 347 346 346 346 346 347 346 345 346 346 349 350 352 353 354 352 350 350 352 352 351 351 351 349 343 340 338 338 338 339 338 336 336 336 336
347 348 348 348 348 348 347 347 347 347 347 347 346 346 346 345 347 348 349 350 352 352 352 353 353 351 350 349 350 352 351 352 351 349 343 340 338 337 338 339 338 338 337
346 348 348 348 348 348 348 348 349 349 348 348 348 347 347 347 347 349 352 351 351 352 351 352 354 353 351 350 350 348 350 351 349 347 344 343 342 340 338 338 338 338 338
346 347 348 349 349 349 348 348 349 350 350 350 349 349 349 348 347 347 345 347 353 353 351 351 352 353 353 352 351 351 351 351 350 348 346 347 347 345 344 340 339 338 339
348 348 348 349 350 350 350 350 349 349 349 350 350 350 350 348 347 347 347 347 348 350 352 354 354 353 352 352 352 352 352 353 353 352 350 348 348 347 346 343 340 340 340
349 349 349 349 350 351 351 352 352 351 350 350 350 351 351 350 349 347 346 348 349 349 348 350 353 354 354 354 355 354 354 354 354 354 353 352 352 351 349 347 346 342 341
350 350 350 351 351 351 352 353 353 353 353 352 352 352 351 351 351 351 350 350 352 352 352 352 353 353 353 354 354 354 354 354 354 355 356 356 356 356 353 350 347 341 340
351 351 352 352 352 353 352 353 354 355 355 355 354 354 354 354 353 353 352 351 352 353 353 353 354 354 355 355 355 355 354 355 355 355 355 356 356 356 356 354 350 346 344
350 353 353 354 354 354 355 355 355 356 356 357 357 357 357 357 356 357 355 354 353 353 354 355 355 355 356 356 357 356 356 358 357 356 356 356 355 355 355 357 356 349 346
349 351 352 353 355 355 356 356 357 357 357 358 358 358 358 359 359 360 360 359 358 355 356 356 356 358 358 359 359 358 358 358 357 356 356 357 357 358 358 357 354 353 353
347 348 350 353 354 356 356 357 358 358 359 359 359 359 360 360 361 361 361 361 361 360 359 359 360 361 361 360 360 360 359 358 355 351 353 355 356 356 356 356 355 354 353
352 350 349 349 350 354 355 357 358 359 359 359 360 360 360 359 359 360 360 361 361 362 361 362 362 360 360 361 361 362 361 360 358 355 354 354 354 353 353 351 350 349 349
356 358 358 355 355 354 353 354 356 357 358 358 358 359 358 359 359 360 361 361 361 362 363 357 355 355 356 357 358 358 359 357 354 353 352 351 350 349 347 345 346 345 344
346 347 350 352 359 356 355 353 355 356 356 357 358 359 359 360 360 361 361 362 363 363 360 356 355 354 355 356 356 356 354 353 352 351 350 349 348 344 344 339 335 337 339
347 348 347 348 350 355 351 347 342 345 352 357 360 360 360 362 362 363 363 364 364 364 359 359 356 355 355 353 351 350 350 348 348 346 344 345 342 341 336 334 336 335 333
344 347 347 347 348 350 353 354 351 347 343 347 353 358 362 363 364 364 364 363 358 355 355 354 352 349 348 347 346 343 342 341 340 336 335 336 336 334 333 335 334 334 333
342 344 347 346 347 350 351 354 352 349 347 345 342 348 355 359 358 355 352 349 348 347 346 345 343 342 340 339 338 336 333 332 332 332 334 335 334 333 331 330 330 330 331
338 342 344 346 345 347 349 350 347 344 341 338 336 336 336 340 339 340 339 338 337 337 337 337 336 333 331 331 332 333 333 333 330 330 331 332 334 332 331 332 333 330 331
331 338 342 344 344 345 346 346 344 342 338 336 334 333 332 332 332 332 332 332 331 332 332 333 333 333 334 334 333 331 331 331 331 332 333 334 334 333 333 334 333 331 330
329 333 338 342 342 341 344 344 342 340 336 334 331 330 329 330 329 329 330 330 331 331 332 333 333 332 332 331 330 330 331 331 331 332 333 333 333 333 333 333 333 332 329
326 330 335 340 342 340 340 340 338 334 332 331 330 330 330 329 327 326 325 326 328 328 329 330 330 330 330 329 328 329 329 331 331 331 332 332 333 332 331 332 332 329 327
327 331 334 338 339 336 334 330 326 326 325 324 324 323 320 318 318 319 320 321 322 320 321 322 323 323 324 325 326 328 330 331 332 331 332 332 332 332 331 330 330 329 327
322 327 330 329 329 327 325 324 320 319 318 317 315 314 312 310 309 311 314 313 311 311 311 312 311 311 310 309 310 313 316 328 330 331 330 332 333 332 332 331 330 329 328
310 311 311 313 313 313 310 308 307 307 306 306 306 306 307 307 306 307 307 307 306 307 307 308 310 311 311 310 308 308 310 318 323 324 328 330 332 332 331 332 330 328 327

GFSGL_925_thetae_057.txt.gz
Theta_e
347 347 347 348 348 348 348 347 345 343 344 342 340 342 346 348 349 351 351 355 357 356 356 354 353 352 352 352 348 347 345 343 342 341 342 341 339 338 338 336 336 335 338
348 347 347 348 348 348 348 348 347 344 344 344 343 343 346 348 349 352 352 352 355 356 357 357 355 354 355 355 353 352 349 348 345 346 343 343 342 341 339 339 338 340 339
348 348 348 348 348 349 348 348 348 346 344 345 345 344 344 348 350 351 349 353 354 355 357 358 357 357 356 354 355 353 352 352 350 347 347 345 344 343 342 340 339 341 341
348 348 349 349 349 349 349 348 349 347 345 346 345 345 347 347 350 352 353 353 354 355 356 357 357 357 357 357 356 356 355 354 352 352 350 349 348 348 345 344 343 343 343
349 349 350 349 349 349 350 350 350 349 347 346 347 348 348 350 348 350 352 353 355 355 356 356 357 355 353 354 356 355 355 355 353 351 350 349 348 347 347 346 346 345 344
350 351 351 351 351 351 351 351 350 350 350 351 351 351 351 350 348 346 346 352 355 356 356 356 355 352 348 349 350 352 354 356 356 355 353 353 354 353 352 351 350 350 350
350 351 352 352 352 351 351 352 352 352 352 351 351 351 351 350 348 346 343 347 350 352 353 355 356 354 354 354 355 352 351 352 352 353 356 357 357 356 355 355 354 353 353
350 350 351 352 352 352 352 352 352 352 353 354 354 353 353 351 348 347 346 345 349 351 351 352 352 353 354 355 355 356 357 357 355 353 351 352 355 356 356 357 357 356 354
351 351 351 352 353 353 353 353 352 352 352 352 353 354 354 353 350 348 349 350 351 352 352 352 352 353 352 351 353 354 355 355 355 355 355 355 354 354 354 353 351 351 350
352 352 352 352 352 353 354 354 354 354 354 354 353 353 354 354 351 349 349 351 352 352 353 353 353 353 353 353 353 354 357 357 358 359 360 359 358 357 357 356 352 349 350
353 353 353 353 353 354 354 355 356 356 356 357 356 356 356 355 355 353 352 351 353 354 354 354 355 355 354 353 353 355 357 358 360 360 360 360 359 358 359 359 357 356 350
354 354 354 354 354 355 355 356 356 357 358 359 359 359 359 359 357 356 355 355 354 356 357 358 359 357 357 357 356 356 357 357 356 358 358 357 358 358 359 359 359 357 355
355 356 356 356 356 356 358 358 358 359 358 359 360 360 360 361 362 360 358 359 358 355 358 359 359 360 359 358 359 359 359 357 357 352 353 355 356 358 356 356 353 351 351
354 356 357 358 358 358 358 358 359 359 360 359 360 361 361 362 362 363 361 359 359 359 359 356 357 358 358 359 358 359 360 359 359 355 354 355 354 353 352 351 349 349 349
354 354 354 355 356 358 358 358 359 359 360 361 361 362 362 363 363 362 363 362 360 359 358 357 358 357 357 358 357 356 357 357 358 357 353 352 351 351 349 347 348 344 341
353 356 354 359 355 356 356 350 356 357 358 359 360 360 362 361 361 360 359 359 360 360 359 357 357 358 359 358 357 357 357 357 355 352 351 351 349 347 347 344 341 339 339
349 348 345 349 356 356 354 354 355 348 354 355 356 357 357 360 359 359 360 361 360 359 357 358 358 358 357 356 355 355 356 355 351 350 351 349 346 344 342 339 339 339 337
345 346 343 335 350 355 355 354 354 357 356 353 352 355 358 359 359 361 362 362 361 359 356 358 356 353 351 350 350 349 351 349 346 345 344 342 340 340 338 338 338 337 336
337 344 348 349 350 353 355 356 356 357 357 356 344 348 351 356 359 361 363 361 357 353 351 350 348 346 344 343 344 343 342 340 337 336 336 337 338 337 337 337 337 331 332
329 332 339 346 348 351 354 354 352 352 353 352 350 347 344 344 346 351 351 349 348 347 346 343 340 338 337 337 337 337 336 335 335 335 335 334 335 337 337 337 336 336 334
325 329 332 343 345 345 348 351 350 348 347 346 348 341 339 342 343 341 340 338 337 335 334 334 335 336 336 336 335 335 334 335 335 334 333 334 336 336 336 336 336 335 335
323 326 332 336 343 344 344 347 348 346 345 343 335 333 331 335 336 334 331 329 330 331 332 335 334 333 333 332 331 332 333 334 334 332 333 335 336 335 335 336 336 335 335
321 324 330 333 338 342 343 344 345 344 343 340 333 331 331 329 329 327 323 325 328 329 329 330 330 330 330 329 329 330 330 331 331 331 332 334 335 334 335 335 335 335 333
320 324 330 334 336 339 341 342 340 337 338 336 333 331 329 325 321 320 320 317 314 318 320 322 322 323 323 325 325 325 328 330 330 326 330 333 334 333 333 333 334 333 333
313 314 315 317 326 332 331 331 328 325 322 320 319 318 317 315 314 313 312 311 312 312 312 311 309 309 310 309 309 310 315 325 328 329 327 326 334 335 333 333 332 331 331
304 305 304 305 305 305 306 306 306 307 307 307 308 310 310 309 309 309 309 308 306 307 307 307 307 307 306 310 311 310 309 312 317 321 324 328 333 334 334 334 334 332 331

GFSGL_925_thetae_060.txt.gz
Theta_e
351 351 351 351 351 352 352 353 353 353 351 353 351 350 349 353 355 356 356 354 357 358 356 355 356 356 352 349 348 346 345 344 344 341 341 342 347 349 347 346 346 346 344
351 353 352 352 351 351 353 352 354 354 353 354 353 352 349 350 353 356 356 352 355 356 357 357 357 354 356 355 352 350 346 346 346 349 345 344 343 343 345 348 348 344 341
351 351 351 352 352 351 352 353 354 354 355 354 354 353 352 350 353 355 355 355 354 354 356 357 357 358 358 355 354 352 351 353 353 353 351 348 347 347 348 349 348 347 346
350 351 351 352 352 351 352 353 354 354 355 355 354 354 353 351 349 352 353 355 354 354 356 356 358 358 359 360 360 359 358 357 352 351 349 348 347 345 345 347 348 347 345
352 351 352 354 353 352 353 354 354 355 355 356 355 354 354 353 349 349 351 351 354 355 355 357 358 358 359 360 358 358 358 357 354 351 349 348 347 347 348 347 350 350 350
354 354 354 355 355 355 355 355 356 355 356 356 356 355 354 353 349 347 348 349 350 354 355 356 357 357 358 357 355 351 352 359 361 358 353 352 356 356 354 355 354 354 357
356 355 355 357 357 357 356 357 357 357 356 357 356 355 355 355 352 349 347 347 347 350 353 355 355 351 354 356 356 356 354 353 353 354 358 359 358 359 360 362 359 360 360
357 357 357 358 358 358 358 359 358 357 357 357 357 356 356 356 354 352 350 349 349 350 351 352 354 353 352 353 355 356 356 356 357 357 355 355 356 356 358 360 360 360 359
358 358 358 359 359 358 359 359 358 358 358 358 357 357 357 357 355 352 352 351 351 352 352 352 353 354 354 353 354 353 354 353 350 351 352 353 355 356 357 356 355 356 358
357 358 358 359 359 359 359 359 359 358 358 358 358 358 359 359 358 355 353 352 352 352 353 355 354 353 353 354 354 354 356 354 354 356 359 362 363 362 362 359 358 358 359
355 355 357 358 359 359 359 359 359 358 357 358 357 358 358 358 359 358 355 354 352 351 351 350 351 352 353 352 351 354 356 356 359 361 363 364 364 363 362 362 361 361 359
355 355 358 358 357 358 360 360 360 360 360 361 360 360 358 359 358 358 357 355 353 354 353 352 355 357 357 357 356 356 355 355 356 359 360 361 361 361 361 361 361 359 358
357 358 358 358 358 358 359 361 361 361 360 360 361 361 360 360 362 360 358 357 355 354 357 359 360 361 361 360 359 358 358 355 358 359 360 360 359 359 359 358 357 353 352
359 359 359 360 360 359 360 361 360 360 360 360 361 361 361 361 362 364 362 360 358 356 354 356 358 359 360 361 361 360 358 358 359 358 357 358 359 357 355 354 352 353 351
359 360 360 361 360 361 361 360 361 360 360 361 360 361 362 362 363 364 365 366 362 358 357 358 359 359 360 360 361 362 363 363 359 357 355 355 354 353 356 352 350 350 345
358 358 358 359 361 361 361 359 357 356 359 360 361 361 363 363 363 364 363 363 364 362 359 361 362 361 360 361 364 362 361 359 358 356 356 355 357 356 353 351 347 344 343
356 358 360 362 359 360 361 361 359 354 357 358 359 360 361 361 362 361 360 359 359 360 361 363 363 365 365 364 363 362 362 358 357 356 359 356 353 351 348 346 343 342 342
345 345 346 349 351 348 348 353 357 359 360 358 353 356 356 357 358 358 359 359 358 358 357 361 363 364 361 360 361 360 358 355 353 353 354 352 348 345 344 342 342 341 341
344 345 348 350 352 351 345 344 350 352 356 358 359 346 349 352 354 356 357 361 363 363 358 356 355 356 353 354 353 351 351 351 352 351 347 345 343 342 342 341 341 339 336
334 334 342 349 346 348 355 356 356 357 358 358 358 359 345 351 348 349 354 356 358 363 360 356 351 350 350 346 346 347 347 345 342 341 340 339 339 340 340 340 340 340 336
327 332 334 345 348 350 352 354 354 354 355 356 358 355 350 357 356 350 349 352 353 352 352 350 349 345 343 344 344 344 342 341 339 339 339 338 338 339 339 339 338 337 337
325 327 332 338 344 344 343 342 346 350 352 355 355 342 343 348 351 350 347 343 336 335 333 338 339 337 335 337 338 338 338 338 338 338 337 337 337 337 337 337 337 337 336
324 325 328 332 335 340 343 341 342 344 345 347 347 343 342 344 340 338 335 333 330 328 328 328 329 329 326 326 327 328 331 334 335 335 335 336 336 336 336 336 336 336 336
321 323 324 330 335 335 338 339 342 341 341 344 343 343 341 338 335 330 327 324 320 320 324 324 321 319 319 319 318 320 321 327 326 328 332 334 335 336 335 335 336 336 335
311 311 310 310 313 317 323 324 325 325 322 322 327 330 329 328 327 324 321 319 317 314 312 312 312 311 311 310 310 311 315 322 328 325 325 328 333 335 335 335 335 334 334
301 302 302 301 301 300 301 301 301 302 303 303 305 307 311 311 313 314 312 310 311 310 308 308 307 306 305 306 311 310 309 311 315 319 323 325 331 334 336 336 335 334 334

GFSGL_925_thetae_063.txt.gz
Theta_e
357 357 355 355 352 351 354 354 353 353 353 352 352 352 352 353 353 356 354 355 357 356 356 353 354 352 353 348 347 346 346 345 344 343 342 342 345 348 349 349 348 348 347
356 357 356 356 353 352 353 354 355 356 355 355 356 354 353 351 352 356 356 353 356 356 357 356 355 354 355 355 355 352 348 347 347 350 347 347 347 348 347 348 350 351 348
355 355 356 356 356 353 355 354 355 356 357 356 356 357 355 352 352 356 357 356 355 355 355 355 356 356 357 355 355 351 350 352 353 353 354 352 351 349 349 349 350 352 353
352 353 354 356 356 355 354 356 356 357 358 358 357 357 357 355 352 352 355 357 356 355 355 355 356 357 358 359 359 359 358 357 353 353 352 351 350 349 348 348 349 348 349
352 352 354 357 356 356 354 356 356 358 358 359 359 358 358 356 354 352 353 355 357 356 355 355 355 356 356 358 359 358 358 358 356 354 353 352 350 349 351 352 351 353 354
354 353 353 356 357 357 356 356 358 359 359 360 360 360 359 355 352 351 350 351 353 354 356 357 356 356 357 356 357 358 357 358 362 357 354 352 354 354 354 355 358 358 362
357 355 355 356 358 358 357 358 359 360 360 361 361 361 361 359 353 351 349 348 351 353 354 356 357 352 354 358 359 358 357 355 354 353 357 358 358 358 359 362 358 359 362
357 360 357 359 360 360 360 360 361 361 361 362 362 361 362 361 357 353 352 349 349 349 352 354 355 354 354 356 358 357 357 358 359 358 357 356 357 357 358 359 360 359 360
362 359 361 360 362 362 362 362 362 363 363 362 363 363 363 361 358 354 354 352 352 353 353 352 353 356 358 356 352 353 354 355 351 350 349 350 351 352 353 354 355 358 362
363 362 362 361 363 364 364 364 364 364 364 361 362 363 363 363 361 358 355 355 354 354 355 356 355 354 354 354 356 357 358 358 357 355 355 357 359 363 364 363 360 361 362
361 362 363 363 364 365 365 365 365 365 361 363 363 363 362 361 363 360 357 356 354 353 353 351 352 353 352 351 351 353 357 358 357 356 359 362 363 365 366 365 363 362 362
360 361 363 364 363 364 365 366 366 366 365 366 364 365 362 364 362 362 361 359 356 355 353 347 348 348 349 350 351 352 353 353 354 357 359 361 362 362 361 364 362 360 360
361 362 362 364 365 363 365 366 365 365 362 363 363 361 359 358 360 360 359 359 358 357 355 351 351 352 357 359 358 357 358 357 358 360 362 363 362 361 362 362 361 360 358
362 364 363 364 364 363 364 364 363 362 363 361 361 361 358 355 353 357 359 359 358 357 356 355 355 358 360 361 362 362 360 360 361 362 363 361 361 362 362 360 357 355 357
362 362 363 362 362 363 362 362 361 360 359 359 355 354 353 356 357 359 361 363 359 357 357 357 357 358 359 361 362 363 362 364 364 363 361 362 361 358 355 357 355 356 355
361 362 361 361 362 362 362 359 359 359 359 358 358 357 361 358 359 361 362 364 365 363 358 360 361 362 362 363 362 362 363 364 365 364 362 360 358 359 359 356 354 355 349
361 362 362 361 361 363 362 362 361 356 357 359 359 360 360 361 360 362 362 363 363 363 364 364 362 361 365 363 362 363 364 364 363 363 361 360 360 359 356 353 352 348 345
349 352 360 361 362 362 363 363 362 361 360 359 358 358 358 358 359 358 359 359 360 359 362 363 362 363 363 364 366 364 363 362 362 361 360 359 358 356 353 350 347 345 344
338 343 348 351 356 361 359 356 357 361 360 357 347 347 353 354 353 354 355 358 361 363 362 362 362 364 364 364 362 360 361 360 359 357 356 356 356 353 348 345 344 342 342
330 337 345 350 352 349 345 346 347 351 352 352 352 349 347 350 346 347 351 353 358 363 364 364 362 362 360 357 355 357 356 353 351 351 351 349 346 343 342 342 342 342 343
326 330 335 345 348 343 342 343 350 349 350 354 354 357 357 354 359 359 354 355 357 358 359 359 358 354 352 352 351 350 350 349 348 346 344 343 342 341 340 341 341 342 342
326 327 330 335 341 349 348 348 342 343 348 352 356 351 353 352 354 358 356 354 350 348 347 350 350 347 344 343 343 344 344 344 342 342 341 341 339 339 339 339 340 339 338
324 326 328 332 335 336 344 343 343 345 346 346 351 352 347 349 346 346 346 343 341 339 339 341 342 338 335 335 334 334 334 336 337 337 337 337 337 338 338 337 337 337 337
315 315 317 321 322 328 329 334 342 337 338 338 342 345 345 342 337 334 331 330 329 328 328 327 326 326 325 326 325 324 319 322 326 328 326 332 335 336 336 336 336 337 337
306 306 306 305 310 310 311 313 317 317 318 319 321 322 324 328 330 328 326 325 323 321 319 317 317 315 311 308 307 311 312 314 319 326 329 327 330 332 334 336 336 337 336
299 299 300 300 300 300 300 300 299 300 301 302 303 306 306 308 309 311 312 311 311 308 304 305 304 304 301 300 309 310 310 311 313 316 321 324 326 330 331 330 333 335 336

GFSGL_925_thetae_066.txt.gz
Theta_e
359 357 356 354 350 347 349 344 352 349 355 348 353 353 356 353 356 356 353 355 355 353 355 356 351 350 350 353 350 347 346 346 349 346 345 346 345 346 346 345 346 347 348
361 359 358 358 355 352 347 353 356 356 351 357 352 354 353 355 355 355 356 354 356 354 351 352 357 357 353 349 350 353 354 353 352 353 349 348 345 350 351 350 350 350 350
361 360 359 358 358 356 351 351 356 354 356 355 358 355 356 355 354 354 356 357 354 358 359 359 354 356 355 358 356 354 351 351 351 350 352 355 356 353 351 349 350 350 350
360 360 360 359 359 357 356 350 355 358 356 357 357 358 358 357 355 354 358 359 358 356 359 355 357 358 358 358 357 355 355 357 356 356 355 354 354 353 352 355 354 351 351
356 358 360 360 359 359 356 356 354 354 357 359 359 359 360 359 358 354 353 358 359 359 358 356 357 357 357 359 360 361 360 360 361 361 360 358 356 353 354 354 356 359 358
354 357 358 359 359 359 358 357 358 357 358 359 361 360 361 361 358 355 354 354 357 358 358 357 358 357 355 353 355 357 358 358 358 361 362 360 358 356 358 358 357 356 359
355 356 356 358 358 359 359 357 359 359 359 360 361 362 362 361 359 354 353 353 354 355 358 358 358 357 356 355 355 355 355 355 355 355 358 357 356 353 354 357 360 360 361
356 358 356 357 359 360 359 359 357 360 360 361 362 362 363 363 361 356 353 352 352 353 353 354 355 357 354 353 358 359 359 358 358 356 356 355 356 357 356 356 358 359 360
361 357 359 356 359 360 361 360 359 359 361 361 362 363 363 363 363 360 356 353 351 351 350 350 355 357 355 351 347 349 352 356 359 357 355 353 350 351 354 356 357 353 355
358 361 360 358 359 361 361 361 360 360 361 362 362 363 364 363 362 362 359 357 354 354 354 353 353 350 348 354 359 359 359 358 357 357 357 356 357 358 358 361 363 357 361
361 359 361 363 359 362 362 362 362 362 363 363 363 363 364 364 364 362 360 359 356 356 356 356 356 355 353 352 352 352 354 352 357 359 359 358 358 361 361 363 365 364 364
364 362 364 361 365 363 365 365 364 365 365 365 365 365 364 365 365 365 364 360 358 357 356 356 356 354 353 351 351 351 351 351 354 355 355 356 359 361 361 363 364 363 362
358 364 363 366 364 364 366 367 367 366 366 366 366 366 366 366 366 364 363 363 361 358 357 356 356 354 351 350 351 350 351 352 352 354 358 360 362 363 364 362 362 360 360
358 367 364 367 367 365 365 367 368 367 367 367 365 367 366 365 365 366 364 362 362 361 359 358 357 356 355 358 361 361 359 356 357 361 362 363 363 364 361 362 362 359 357
366 366 365 366 366 367 364 367 367 367 367 367 365 364 365 364 362 360 363 360 360 360 359 357 358 357 355 356 360 362 363 363 362 362 362 363 363 363 362 360 358 357 357
364 366 366 364 365 366 365 364 366 367 365 365 363 364 359 358 355 357 354 360 358 358 355 359 360 360 360 359 360 362 364 365 364 365 366 366 364 362 359 359 359 357 356
352 356 363 362 364 364 365 365 360 352 355 356 360 359 360 360 361 361 360 360 362 360 359 358 361 363 364 364 365 365 364 363 362 362 362 362 360 358 360 359 357 356 356
340 345 352 355 362 364 365 364 363 359 357 354 357 358 358 358 359 360 360 361 359 360 360 364 365 365 365 365 365 365 363 361 362 362 362 360 360 361 358 357 356 354 351
331 337 346 348 353 361 364 363 365 364 363 362 351 353 354 354 353 352 351 358 361 361 361 360 353 363 364 362 362 363 363 363 363 360 360 359 356 356 355 354 349 346 344
327 331 334 342 352 345 345 352 357 360 352 350 348 347 342 346 347 344 341 340 346 358 360 358 361 362 361 360 362 361 359 360 358 356 354 353 353 348 344 344 343 344 343
326 329 332 340 343 346 345 343 346 350 350 346 346 349 336 338 344 351 354 352 353 356 357 360 361 360 360 358 358 357 356 354 353 352 351 346 344 343 342 341 341 342 342
323 327 328 328 330 334 336 340 343 342 340 344 345 349 354 351 355 357 356 355 355 351 349 352 353 352 349 349 347 348 348 347 345 344 343 343 342 342 340 340 340 340 339
314 314 317 319 319 320 325 326 325 328 339 339 343 346 349 340 338 338 340 339 337 339 336 334 335 335 334 333 330 331 331 331 334 336 337 337 337 337 338 338 338 337 337
308 307 307 310 311 313 314 315 316 318 317 324 329 332 333 329 327 326 326 326 327 325 323 322 320 321 320 319 319 319 321 323 325 328 329 329 331 334 334 335 336 336 336
302 302 301 301 302 304 305 304 305 306 309 309 310 315 317 320 318 318 317 317 317 315 314 311 307 307 310 311 310 311 310 312 316 321 325 328 329 330 332 333 335 336 337
298 298 298 298 298 298 298 298 298 298 298 299 301 302 303 302 302 303 303 304 303 302 303 301 300 300 300 298 300 307 311 311 312 315 320 321 321 323 321 324 327 329 328

GFSGL_925_thetae_069.txt.gz
Theta_e
352 353 348 346 350 346 348 346 349 349 349 349 354 352 357 357 354 355 354 353 354 352 351 352 355 351 345 346 351 350 347 346 346 345 345 346 345 344 343 344 348 349 349
354 354 354 348 348 350 349 344 348 348 350 356 355 354 354 353 354 357 356 353 355 355 352 353 354 355 351 351 349 350 352 353 353 351 349 346 347 355 353 353 351 351 351
356 353 356 355 348 350 348 346 342 345 348 350 355 355 355 355 354 352 354 354 352 355 355 353 350 354 357 355 353 353 352 354 356 359 357 356 355 350 350 352 354 352 351
357 357 355 355 355 348 347 345 347 344 351 349 350 357 352 353 352 352 354 354 352 353 355 358 357 358 355 354 355 356 355 354 353 354 354 355 357 355 356 354 354 353 354
359 359 358 357 356 356 352 350 344 353 349 356 355 353 358 355 354 354 352 353 353 355 352 352 357 357 354 355 357 357 357 357 358 358 359 360 360 358 356 353 354 354 349
358 360 359 358 357 357 357 355 353 347 358 353 353 355 355 357 356 355 353 353 357 358 357 355 354 356 356 355 355 355 358 360 361 362 361 358 357 355 351 351 352 353 356
354 359 359 359 359 358 358 356 356 352 351 359 358 356 356 355 358 358 357 354 351 352 356 357 356 354 355 357 357 356 354 354 354 355 355 355 355 353 353 354 355 356 357
354 356 358 359 359 359 358 358 356 356 354 353 355 357 359 358 357 359 358 357 355 353 350 355 357 356 355 354 355 356 354 353 353 354 355 355 356 356 357 356 354 357 358
351 355 357 358 359 359 358 358 358 357 358 356 358 359 360 360 359 358 360 357 354 354 353 351 351 351 351 353 354 355 356 359 361 361 362 360 355 352 354 354 356 358 356
349 357 357 357 358 358 359 358 359 357 357 359 358 359 360 360 360 360 359 359 357 353 352 353 352 352 352 354 356 355 353 354 352 349 351 353 354 356 359 358 357 355 352
354 359 358 357 357 358 358 359 358 358 357 357 359 359 360 361 361 360 360 362 358 354 353 352 351 351 350 349 349 350 353 350 354 357 356 357 358 358 356 356 359 362 362
350 360 360 360 357 359 359 359 359 359 359 359 359 360 360 361 362 362 361 360 361 358 355 354 353 352 352 351 351 352 352 352 352 353 354 355 355 352 357 358 360 362 364
342 354 360 362 360 359 360 360 360 360 360 360 360 361 361 362 363 363 363 362 361 361 358 356 355 356 356 355 355 354 354 355 354 352 352 352 352 357 359 361 363 363 361
338 350 361 362 364 360 363 362 362 362 362 362 362 362 363 362 363 364 365 365 363 363 362 358 357 356 355 354 354 355 355 353 351 351 351 353 360 361 363 363 362 361 359
333 346 363 363 365 364 364 365 364 364 364 363 363 363 362 363 363 363 365 365 365 363 362 358 356 357 357 356 356 355 356 360 355 355 357 360 361 361 363 363 361 359 358
330 343 357 364 366 365 364 361 366 366 365 365 364 364 364 363 364 364 363 365 364 362 358 356 355 356 356 357 356 355 355 360 361 361 361 362 363 364 363 360 359 359 358
327 332 342 360 365 366 366 364 358 357 365 366 365 365 364 364 362 362 364 361 361 363 356 356 357 357 357 357 358 358 356 357 360 364 363 360 362 361 358 358 357 359 357
326 330 335 348 355 361 364 365 363 355 353 356 363 365 364 360 359 358 357 356 353 356 356 355 356 359 360 361 361 362 363 363 364 362 361 361 361 360 359 359 359 356 354
324 327 331 341 350 356 360 363 363 358 355 353 350 355 358 358 358 359 360 360 354 355 357 358 359 359 360 362 362 360 359 358 359 360 360 361 360 359 357 355 353 353 349
324 328 332 340 347 348 351 357 362 361 358 347 349 354 353 352 353 356 353 355 358 358 359 357 352 345 348 349 342 347 356 357 357 358 360 359 358 355 353 345 344 342 342
319 323 324 327 333 335 341 345 349 352 352 350 349 349 349 350 345 341 340 342 344 345 342 344 351 354 343 339 345 337 342 354 355 355 351 351 350 350 344 342 341 342 342
314 316 319 319 322 326 327 333 338 343 346 349 348 344 342 343 351 353 348 347 347 347 350 348 342 341 347 341 339 345 343 342 342 341 340 341 341 340 340 339 339 339 338
309 310 310 311 313 316 319 319 319 321 328 340 342 341 339 335 337 334 330 328 329 330 330 327 325 324 324 323 327 329 333 330 332 334 335 337 338 336 336 336 337 336 336
303 303 304 304 304 305 306 309 312 310 311 312 315 319 320 322 321 320 319 319 318 318 318 318 315 315 319 321 323 318 318 321 323 325 329 331 331 331 332 334 334 335 335
298 299 299 299 300 300 300 299 301 303 305 307 307 305 304 304 307 305 306 309 306 308 308 305 306 308 309 311 312 311 311 313 316 320 325 326 328 328 326 328 329 332 335
297 297 297 296 296 297 297 297 296 296 297 298 298 303 306 307 302 302 296 297 302 302 302 299 298 299 299 300 303 307 309 310 314 318 321 319 318 318 320 321 322 323 324

GFSGL_925_thetae_072.txt.gz
Theta_e
349 348 346 345 347 346 346 345 349 354 353 353 353 350 355 352 349 350 350 351 351 351 350 351 349 351 346 347 343 349 352 351 346 346 345 345 347 345 351 354 352 352 351
350 349 347 345 344 347 347 344 345 348 352 351 349 352 353 352 351 352 351 352 352 353 352 351 350 353 354 352 349 349 348 350 352 351 349 352 353 352 352 350 353 354 352
349 350 350 347 344 345 347 345 344 345 350 353 349 350 354 351 354 354 353 353 353 352 354 354 351 350 352 355 353 354 352 352 354 357 358 355 353 351 354 356 357 353 347
350 350 351 351 347 343 345 347 345 346 346 349 353 353 352 352 354 355 354 355 355 354 353 353 354 353 350 351 353 354 353 355 355 354 353 352 353 356 359 358 356 355 348
351 352 350 352 352 348 343 345 345 345 345 345 348 352 355 355 354 353 352 351 351 351 352 352 353 357 357 356 357 355 355 356 356 356 356 357 359 360 360 358 354 350 352
353 353 353 351 353 353 350 345 345 343 344 346 343 347 350 354 353 353 352 352 351 351 350 350 353 353 353 354 356 356 356 355 355 357 358 358 359 358 353 352 353 353 353
352 354 355 354 353 354 354 351 347 346 343 347 350 348 355 353 354 354 353 352 352 351 350 351 354 352 352 354 354 356 356 356 356 355 358 357 356 353 353 353 354 354 353
346 353 357 357 356 355 354 355 353 351 348 346 350 351 351 354 355 355 354 354 354 353 352 351 352 352 351 353 353 352 352 352 352 354 354 353 353 353 355 357 356 354 355
346 346 349 358 358 357 356 355 355 354 353 349 348 353 356 354 352 351 352 355 356 356 355 354 353 350 349 350 355 355 354 352 349 351 353 356 356 359 359 354 355 354 354
342 344 346 348 357 358 357 357 356 355 355 354 352 350 351 355 357 356 355 355 357 356 356 355 354 353 352 351 352 352 354 352 352 351 351 351 352 353 355 355 357 355 353
342 343 348 350 355 357 357 357 357 357 356 356 355 354 354 355 354 354 356 357 356 355 354 353 353 353 352 352 352 351 352 350 351 352 352 352 352 353 354 356 356 354 356
338 341 343 346 355 356 357 357 357 356 357 356 356 357 356 356 357 357 357 357 357 357 356 354 353 352 351 351 351 351 351 350 350 351 350 351 351 352 353 352 354 358 359
332 336 342 348 352 356 357 356 357 356 357 357 355 355 357 357 357 358 358 358 358 359 358 357 355 354 354 353 352 352 351 352 353 351 350 351 352 352 351 354 359 360 363
327 331 339 343 351 358 356 356 356 357 356 356 357 356 356 357 358 359 359 360 360 360 360 359 358 358 356 355 355 355 355 354 352 350 350 351 351 351 355 359 361 363 362
325 329 335 340 348 359 357 358 357 357 357 357 357 357 358 358 358 359 360 360 361 361 361 357 356 357 356 355 355 354 354 354 355 355 352 350 351 355 359 360 362 362 359
323 326 329 333 340 358 360 358 359 358 358 358 358 358 359 359 360 360 360 361 362 362 358 355 354 355 354 355 355 354 355 355 355 355 354 355 355 358 360 361 362 361 357
319 324 327 330 337 353 362 357 356 358 361 361 360 360 361 361 361 361 362 362 362 363 358 355 356 355 355 355 355 355 355 355 355 354 355 357 359 360 361 362 359 357 357
320 324 326 328 332 343 355 362 358 355 358 361 363 363 363 363 363 363 363 361 359 354 355 357 356 356 356 356 356 356 356 357 355 357 358 359 360 361 360 359 357 357 357
318 322 324 327 334 343 350 357 362 360 356 356 359 363 364 364 362 362 360 358 355 353 352 356 357 357 357 356 358 360 360 360 359 358 355 352 350 348 351 352 354 355 355
317 320 321 323 328 336 343 351 358 360 357 355 352 355 359 356 355 357 358 356 355 352 351 353 354 355 356 357 355 348 349 350 347 349 352 349 339 335 333 346 350 346 342
314 315 316 316 319 324 329 338 349 357 355 350 350 351 352 354 355 356 355 347 346 352 352 355 355 355 348 342 340 339 338 339 345 347 345 338 335 335 341 347 342 341 341
310 311 311 310 312 314 316 321 329 342 350 348 344 344 344 347 348 344 339 336 335 339 343 345 349 345 341 341 345 346 342 341 336 339 344 340 337 342 341 339 339 339 339
305 308 306 307 307 310 306 310 313 317 326 338 335 335 334 330 329 328 326 324 324 325 325 330 334 330 330 329 327 327 331 332 335 339 339 337 336 336 336 335 335 336 336
301 303 302 302 302 302 304 300 302 309 308 310 313 313 312 311 309 308 308 309 312 309 312 314 312 315 319 322 325 322 322 324 327 330 332 331 330 332 330 331 331 333 335
298 298 298 298 298 299 299 300 300 299 299 303 303 303 303 302 302 301 301 303 302 306 304 303 302 302 305 307 312 315 315 318 322 325 326 328 328 328 328 326 325 328 330
296 296 296 296 296 296 296 296 297 296 296 297 296 297 299 303 299 305 303 303 302 299 299 302 299 299 296 299 304 306 307 312 315 317 319 321 321 320 320 321 320 321 321

GFSGL_925_thetae_075.txt.gz
Theta_e
346 346 346 345 344 342 343 344 345 349 352 351 351 350 350 353 354 351 349 351 350 349 348 350 349 349 347 346 347 345 349 351 346 348 347 348 348 350 350 352 349 354 355
345 345 346 345 343 343 342 342 344 345 346 353 352 350 352 352 353 352 349 349 351 350 350 351 350 349 350 353 353 349 348 349 349 349 349 350 352 351 349 348 350 356 353
346 346 345 345 344 343 341 340 342 344 345 346 351 353 352 352 350 352 350 349 351 351 351 353 353 352 350 350 352 352 352 352 352 353 355 354 351 349 349 353 354 352 346
347 347 347 345 345 344 343 340 338 340 343 344 345 351 351 349 351 351 351 351 351 351 352 351 351 351 353 352 349 351 353 353 353 354 354 354 354 354 355 355 353 351 350
346 348 348 347 346 345 344 343 340 338 339 341 344 348 352 352 351 352 350 352 353 353 353 353 352 351 350 354 355 353 355 355 355 355 355 355 355 355 355 356 355 352 352
348 347 348 348 348 347 345 345 343 341 338 341 341 345 346 353 354 352 351 352 352 352 351 350 350 350 350 350 352 355 357 356 356 355 355 355 354 353 353 353 352 351 352
350 349 349 349 350 350 348 346 344 343 343 342 341 343 345 344 348 353 354 354 353 352 351 350 350 349 348 348 351 352 352 354 356 356 356 356 355 353 353 353 352 352 352
346 349 351 351 350 350 352 350 348 345 345 344 343 343 341 342 340 340 347 352 353 352 351 351 350 350 349 348 352 352 351 351 351 352 353 352 353 353 354 356 355 354 354
346 346 350 353 353 351 351 352 352 349 347 346 346 344 345 345 343 341 345 353 354 354 353 352 350 350 350 349 350 351 350 351 350 350 350 349 348 349 352 356 356 353 352
339 343 345 349 355 355 354 353 353 353 352 350 349 347 347 348 347 346 345 349 354 354 354 352 350 350 350 351 353 353 351 350 350 349 348 349 349 350 351 353 354 352 352
330 334 338 340 343 348 352 356 355 354 354 353 352 351 349 349 351 351 350 350 351 352 352 352 350 346 347 351 353 353 353 351 351 351 350 351 351 350 350 350 351 355 356
325 330 333 337 340 344 351 354 356 355 355 354 354 353 352 351 350 351 352 353 353 354 352 352 351 349 347 347 350 351 351 351 352 352 352 352 351 350 350 350 351 352 352
323 326 329 333 339 344 348 355 356 356 356 355 354 354 354 354 353 353 353 353 353 354 354 354 354 353 351 351 351 351 351 351 350 349 349 349 351 352 352 351 351 351 356
321 323 326 330 334 341 346 355 355 356 356 356 355 355 354 355 355 355 355 355 356 356 356 356 356 356 356 356 355 355 354 353 352 351 351 353 352 349 349 350 350 357 360
318 319 324 327 330 333 339 353 355 355 356 355 355 355 355 354 354 355 356 356 356 356 357 356 354 355 355 355 356 356 355 354 353 353 351 350 351 351 351 350 355 359 359
314 317 321 323 327 331 337 352 357 356 355 356 356 355 355 355 355 354 355 356 356 356 355 354 354 353 353 354 354 353 353 354 354 353 353 353 354 354 353 353 358 360 360
313 316 320 322 326 329 333 341 358 356 356 356 355 355 355 355 356 356 356 356 357 358 356 354 354 355 355 354 354 354 354 355 355 354 353 353 353 353 353 355 359 360 358
312 315 319 322 324 327 332 338 347 355 353 353 356 356 356 356 357 357 357 358 354 355 354 356 356 355 355 355 355 355 355 356 355 354 354 354 353 354 356 357 356 354 350
310 314 318 318 321 323 329 337 345 354 357 357 356 357 358 358 358 358 360 358 354 352 352 352 354 356 356 357 357 356 356 356 356 356 355 356 357 357 353 349 346 339 338
311 313 315 316 318 321 324 329 336 345 354 355 355 357 357 356 354 355 357 358 353 354 355 353 354 355 355 355 355 356 356 356 358 358 357 358 356 352 351 346 337 336 334
308 310 312 313 314 314 315 320 324 329 343 354 354 355 357 355 350 351 348 348 349 350 352 349 349 352 353 354 355 355 356 355 354 354 352 348 345 340 340 338 337 336 338
305 307 308 307 308 309 310 312 315 320 328 343 348 348 348 347 348 347 344 342 340 341 342 343 344 345 345 344 341 339 339 339 339 341 346 348 345 337 334 339 344 341 341
302 304 304 304 304 305 305 308 307 310 312 319 328 328 334 335 330 326 321 319 322 323 322 327 324 325 328 329 331 333 334 337 339 337 337 340 341 336 341 341 340 339 338
299 300 300 300 300 301 301 302 304 303 305 305 308 309 307 307 310 309 310 311 310 309 307 314 312 312 312 314 314 316 319 321 325 330 330 332 336 337 337 337 337 336 335
297 297 297 297 297 297 298 298 299 300 299 299 301 301 300 300 299 300 301 303 303 304 302 302 303 305 306 308 311 314 317 317 319 323 324 324 324 324 326 328 328 329 330
296 295 295 295 295 295 295 295 295 296 297 298 298 297 296 296 296 296 297 298 299 301 303 301 298 304 305 305 307 310 311 311 313 317 319 320 321 319 319 320 320 321 322

GFSGL_925_thetae_078.txt.gz
Theta_e
343 344 343 343 343 343 341 344 344 345 346 350 350 351 350 349 347 350 351 348 350 350 350 348 347 348 348 347 347 347 347 348 347 349 348 348 348 351 349 347 346 351 353
344 344 344 343 343 344 343 340 341 343 344 346 351 352 351 350 350 350 351 351 348 349 349 349 348 348 349 348 352 352 351 348 349 348 349 350 349 347 348 348 348 349 347
344 344 345 345 344 344 344 343 340 341 343 344 345 350 352 351 351 352 352 352 350 348 349 350 350 351 352 350 349 349 352 351 351 350 351 352 352 350 350 350 347 347 349
344 345 344 344 344 344 344 342 343 341 340 342 344 345 348 350 352 351 350 351 351 349 348 349 350 351 351 350 352 352 351 350 352 353 353 353 353 352 351 350 351 350 350
344 345 344 344 344 344 344 343 342 341 340 340 341 343 344 345 349 350 349 351 351 350 350 350 350 351 351 351 350 351 354 354 354 355 354 353 353 353 353 353 353 352 352
344 345 346 345 345 344 344 343 343 343 342 340 339 341 342 344 345 348 350 350 352 351 350 351 351 350 350 349 349 349 349 352 354 355 354 354 354 353 353 353 352 351 353
346 345 345 346 347 346 346 344 344 344 344 343 341 339 340 341 342 344 346 351 352 351 351 351 351 350 350 349 349 348 347 350 351 352 354 354 354 353 353 352 352 351 352
344 347 346 346 347 347 347 346 345 344 343 344 344 343 341 338 337 339 342 345 350 352 352 352 351 351 350 350 349 350 349 348 349 350 351 351 351 350 351 351 352 352 352
338 343 347 348 348 348 348 349 348 346 345 344 344 344 344 343 342 337 338 342 344 345 344 346 349 350 350 350 351 350 351 349 348 348 348 349 349 348 349 351 351 351 352
329 333 338 343 348 350 349 349 349 349 348 346 345 345 346 347 346 345 344 344 345 345 344 343 345 349 349 350 351 349 351 350 350 350 350 350 350 349 349 350 350 351 352
326 329 332 336 338 341 349 352 350 351 351 350 348 348 348 349 348 348 348 346 347 347 347 347 346 342 343 344 347 349 348 346 350 351 351 351 351 350 350 350 350 349 351
322 326 328 332 335 337 340 343 349 353 352 352 352 351 350 351 352 351 350 349 348 349 348 348 347 345 344 345 348 345 345 349 351 351 350 350 350 350 349 348 350 351 351
319 322 323 326 331 335 338 341 345 350 354 353 353 353 353 352 352 352 352 351 351 350 350 350 350 350 350 350 351 351 350 350 350 347 348 348 349 349 349 350 351 349 350
316 318 319 324 327 331 333 338 340 350 355 354 354 354 354 353 353 353 352 351 351 351 352 352 352 352 352 353 354 354 353 353 352 350 350 351 351 350 351 351 349 349 350
314 315 316 320 324 326 330 334 338 343 353 355 355 355 355 354 354 354 354 353 353 353 352 351 350 351 352 353 353 354 354 355 354 354 351 350 351 351 351 350 349 349 353
312 313 314 317 321 324 327 331 336 341 348 353 355 355 355 355 354 354 354 354 354 354 351 350 351 352 352 351 353 354 352 351 351 352 352 352 351 351 351 350 351 351 355
310 311 313 315 319 322 325 327 333 339 344 352 355 355 355 355 355 355 354 353 354 354 353 352 352 353 353 351 352 352 353 352 352 352 352 351 350 350 349 350 352 353 355
306 307 311 315 319 321 323 325 328 336 342 346 354 354 355 355 354 354 354 354 353 353 352 353 355 354 354 353 353 353 354 354 353 353 353 353 351 350 351 351 353 354 355
305 306 309 312 315 317 319 322 326 330 337 343 353 356 356 353 354 354 354 354 351 350 349 350 354 355 356 355 355 353 355 354 354 354 354 353 352 351 351 353 354 355 356
305 305 307 310 313 315 317 318 321 325 327 334 345 352 353 353 349 350 353 352 352 354 353 351 351 353 355 356 355 354 353 354 354 354 354 354 354 353 353 354 352 350 348
304 305 305 308 310 311 312 313 315 317 320 325 331 341 351 352 350 348 348 346 347 349 352 353 352 351 352 353 354 354 354 354 354 354 354 354 355 353 354 352 349 346 341
302 303 305 307 306 307 308 307 309 311 313 316 323 333 344 345 345 348 349 347 343 342 342 344 344 344 344 346 348 348 349 350 350 350 351 351 352 351 352 348 343 340 339
300 301 302 302 302 303 304 304 304 306 308 310 312 316 325 327 326 323 321 322 323 324 325 326 325 327 328 329 331 333 335 336 336 337 338 342 345 347 345 340 338 338 339
298 298 299 299 298 299 299 301 301 302 303 304 305 305 307 309 310 308 308 307 308 308 309 310 312 313 316 318 319 323 323 327 328 330 331 333 335 337 337 336 337 339 339
296 296 296 296 296 296 296 297 297 298 298 299 300 300 300 301 303 302 301 301 301 301 301 302 303 307 309 311 312 315 315 318 321 324 325 325 325 326 329 332 332 330 331
296 295 295 295 295 295 295 295 295 295 295 296 296 297 297 297 296 297 297 297 297 298 300 300 300 302 304 305 306 311 314 316 317 318 319 320 320 320 319 318 320 322 324

GFSGL_925_thetae_081.txt.gz
Theta_e
347 347 348 347 347 345 346 346 345 346 346 348 349 353 352 350 349 348 349 353 352 351 353 353 353 353 350 350 351 350 349 349 348 346 351 351 348 354 353 351 351 351 349
345 346 346 346 345 346 346 343 343 346 346 345 347 350 354 354 352 349 348 353 353 353 353 353 353 351 353 353 353 355 353 354 352 351 351 351 354 355 355 356 353 349 353
346 345 346 346 346 346 346 345 343 341 346 349 347 347 353 355 353 351 352 351 355 355 353 354 354 354 355 353 354 353 353 354 355 354 353 353 354 354 354 352 354 354 351
346 346 346 346 345 344 346 347 344 343 343 346 346 346 348 351 353 354 355 355 356 355 355 354 353 354 355 355 352 355 355 356 354 355 353 353 353 354 355 352 351 349 352
345 346 346 347 347 346 345 346 348 347 345 346 345 349 350 351 352 354 354 355 355 355 355 355 353 352 349 352 353 353 355 356 355 354 353 353 352 351 351 351 350 351 351
346 346 347 347 347 347 347 345 346 346 347 346 348 347 348 348 348 348 349 355 355 355 356 355 354 351 350 350 349 350 351 355 354 353 350 350 353 354 351 352 351 352 351
346 347 347 348 348 348 347 347 347 347 347 348 348 347 345 345 344 345 345 350 354 355 355 356 355 354 352 354 352 349 349 349 348 351 354 353 353 353 355 356 353 354 354
346 347 349 349 349 349 349 349 348 347 347 348 348 348 347 345 342 338 340 343 351 354 355 355 356 355 356 354 355 355 354 354 352 349 349 352 353 355 356 355 356 355 354
328 334 339 344 349 350 351 350 349 348 348 348 348 349 348 346 345 342 337 342 347 351 352 353 354 354 352 345 348 354 354 354 351 349 348 348 348 347 349 352 352 352 351
321 325 329 334 340 344 350 352 352 352 350 349 348 348 348 348 347 345 344 345 345 345 347 350 349 349 349 343 343 352 353 351 351 350 354 351 350 350 350 350 352 353 351
320 321 326 330 334 339 340 347 351 352 353 353 351 349 348 348 348 348 347 345 347 349 348 347 346 345 338 336 338 348 349 348 350 351 350 351 352 354 354 353 351 352 352
318 318 320 325 328 333 337 339 341 345 352 353 354 353 353 351 349 350 350 347 346 349 351 350 350 348 346 344 343 341 339 344 350 350 348 349 350 351 351 353 355 355 353
315 318 319 319 323 329 332 336 340 340 345 350 354 354 353 355 354 352 352 353 350 346 351 352 352 351 349 347 347 345 346 348 349 350 349 348 348 349 352 354 354 354 355
315 315 317 318 320 324 329 332 336 341 343 347 351 353 352 353 356 356 353 351 351 349 348 350 351 350 349 350 350 350 350 350 351 351 349 349 350 352 352 354 353 353 355
315 315 316 316 318 321 325 328 332 336 339 341 346 351 353 354 356 356 357 355 350 350 349 349 351 352 352 353 352 353 353 351 351 352 352 352 352 352 353 355 355 354 354
313 314 315 315 316 318 321 325 327 329 332 335 339 343 348 353 356 357 355 355 353 350 347 352 353 354 353 353 353 352 354 354 353 352 352 352 352 353 354 355 355 354 354
311 310 312 312 314 316 321 324 326 328 329 333 340 345 349 351 352 356 355 354 353 352 351 354 354 354 353 352 353 353 353 355 355 353 352 352 353 354 355 356 356 356 356
309 308 308 310 312 315 317 319 322 324 328 331 333 340 343 350 354 354 353 353 351 351 352 354 356 355 355 356 354 354 354 353 355 356 355 354 355 356 357 357 357 357 357
306 308 307 309 310 311 313 316 319 323 326 328 329 333 341 348 351 352 349 351 352 353 348 351 354 356 357 357 358 358 356 355 354 355 354 355 356 356 356 355 355 354 354
305 305 306 307 309 311 313 315 316 320 322 324 326 329 333 337 343 345 344 346 351 354 355 353 351 355 357 357 357 357 358 356 355 354 355 354 355 354 354 354 354 354 353
305 305 305 306 307 310 311 312 314 314 315 318 320 323 325 329 339 344 345 343 341 349 352 355 355 353 353 355 356 356 356 356 355 354 354 354 354 355 355 355 355 354 358
303 303 304 305 306 307 308 309 309 310 310 312 314 315 319 327 330 337 339 337 337 337 343 342 342 346 347 348 351 351 354 354 353 353 352 352 353 353 353 351 351 350 354
301 302 303 303 304 304 304 305 306 306 306 307 308 308 312 312 313 316 318 319 323 327 328 326 325 325 327 330 331 334 334 338 342 344 343 342 343 347 348 348 348 350 349
298 298 300 300 300 300 301 301 300 301 301 303 303 302 303 305 305 305 306 308 311 309 309 313 315 317 317 318 319 321 326 328 328 330 332 332 334 336 338 341 344 345 344
296 296 297 297 298 298 298 298 298 298 298 298 299 299 299 300 299 299 301 301 303 305 304 305 306 308 310 313 314 316 317 321 324 324 324 326 325 326 326 327 328 327 329
294 295 295 295 295 295 296 296 295 295 295 295 296 296 296 296 296 296 297 297 298 299 300 301 302 303 304 307 309 312 316 319 320 321 321 321 323 323 323 322 322 320 319

GFSGL_925_thetae_084.txt.gz
Theta_e
352 351 351 352 352 353 352 351 351 351 352 353 356 355 353 355 356 356 353 353 352 352 352 353 354 353 350 346 347 347 346 346 346 343 344 346 352 354 355 356 354 351 345
352 352 352 352 352 351 352 350 350 351 351 354 354 354 354 353 355 356 354 350 354 354 353 354 354 352 354 352 349 349 347 347 348 348 346 346 349 351 354 357 354 349 350
350 351 351 352 352 352 350 351 350 351 351 351 353 355 354 352 354 357 356 355 355 354 355 355 354 353 354 351 351 349 350 351 351 350 349 348 348 350 353 353 353 351 347
350 350 350 349 350 350 349 349 351 351 351 350 351 353 354 354 352 354 355 357 356 357 357 356 355 353 354 356 354 354 355 355 353 352 350 349 349 350 352 351 347 346 346
349 350 350 351 351 350 349 348 349 351 352 352 350 350 351 352 353 353 353 357 357 358 357 358 356 354 352 354 353 352 353 355 352 350 349 349 349 349 351 347 347 346 346
348 350 350 351 351 352 352 352 350 350 352 352 352 351 349 346 347 350 353 355 354 357 357 357 357 355 354 350 348 347 350 354 354 350 345 345 349 350 347 347 347 347 348
337 348 350 351 351 352 352 353 353 352 351 352 353 352 352 350 345 345 348 350 351 355 356 356 355 353 355 356 355 351 350 349 349 352 354 352 351 350 352 354 353 353 352
325 330 335 343 349 351 352 352 352 353 353 353 353 353 353 352 351 347 344 348 349 351 352 354 356 353 351 354 355 354 355 355 354 352 352 353 353 353 353 354 356 357 354
323 322 325 329 336 343 351 353 353 353 353 353 353 353 354 354 352 350 347 347 346 348 350 352 354 355 355 354 353 351 352 352 350 351 349 348 351 351 349 351 351 349 346
323 324 323 324 329 332 342 350 351 353 353 353 353 353 354 354 354 352 349 348 348 347 345 349 352 352 353 354 355 355 354 350 347 346 349 350 351 350 348 349 352 352 347
322 322 324 323 322 327 332 339 348 353 354 354 355 354 354 354 354 353 352 350 349 349 348 347 346 347 348 349 353 354 353 347 345 347 348 347 346 348 352 355 356 354 350
321 322 322 322 325 325 328 332 336 344 350 352 354 355 357 355 355 353 352 351 350 350 350 350 350 350 349 347 347 346 348 348 344 342 342 344 344 343 344 347 352 356 355
320 321 322 320 321 323 325 330 333 337 344 348 346 348 355 356 356 357 355 353 351 348 352 352 352 352 352 351 350 347 347 346 347 346 344 344 345 342 344 347 352 356 359
319 319 319 320 318 320 323 325 330 335 339 343 346 348 350 353 356 357 357 355 355 351 349 348 351 352 353 353 352 350 348 349 349 348 347 347 346 343 344 347 350 350 353
317 318 317 318 320 318 319 322 325 327 329 333 338 344 346 349 351 354 355 357 358 355 349 350 352 352 353 354 353 352 352 351 351 351 351 350 348 346 345 346 348 349 351
316 316 316 316 317 318 319 319 321 322 324 324 327 329 333 335 340 342 346 349 352 355 351 352 354 355 356 356 356 355 353 352 352 352 352 351 350 348 346 346 348 350 352
314 316 315 315 315 317 318 320 322 322 321 321 325 328 334 338 340 341 343 349 349 351 352 354 355 355 356 357 357 355 356 356 355 355 353 351 350 349 348 348 348 351 353
313 313 312 313 314 315 316 318 319 320 321 321 324 329 331 332 336 341 345 347 338 348 350 353 355 356 357 358 356 356 357 357 357 357 358 355 353 352 351 351 352 354 355
308 310 311 312 313 312 313 315 316 317 318 321 324 327 331 332 332 335 340 338 341 351 349 351 355 356 358 358 358 358 358 358 359 358 358 359 359 358 356 356 356 357 358
307 308 307 308 308 310 311 312 314 316 318 320 322 324 327 327 326 331 338 339 337 351 353 355 353 355 358 358 359 357 357 358 358 357 358 358 357 356 356 358 359 360 360
305 307 307 307 308 308 310 311 313 314 316 318 319 321 321 316 320 326 332 334 337 340 349 354 356 357 357 357 357 357 357 357 358 358 358 357 357 356 355 356 357 358 358
302 303 304 305 306 307 308 309 311 313 314 315 316 316 314 315 316 319 320 324 327 328 337 345 347 347 350 351 350 353 353 355 356 357 356 357 356 355 355 355 356 357 357
301 301 302 303 304 305 306 307 308 311 312 312 311 312 310 310 308 312 312 313 316 317 321 328 331 332 336 340 341 341 343 342 344 344 341 343 347 351 351 352 352 352 353
298 298 298 298 300 301 303 305 306 307 304 306 308 306 304 303 302 304 306 306 307 309 308 311 315 317 319 325 322 322 328 332 338 336 333 332 334 337 340 342 344 346 346
295 294 295 296 297 298 299 300 301 302 302 302 302 301 300 300 299 300 301 301 302 303 304 305 306 308 310 311 314 318 322 329 328 324 325 328 330 331 332 333 333 332 332
293 292 293 293 295 295 296 297 297 297 297 297 297 297 297 296 296 296 296 297 297 298 299 301 302 304 306 307 309 314 316 318 320 320 321 320 322 322 323 321 322 321 321

GFSGL_925_thetae_087.txt.gz
Theta_e
357 356 355 355 356 357 355 354 352 352 353 353 356 356 357 356 356 355 355 355 355 354 352 352 353 352 351 346 345 345 345 345 345 344 344 345 349 348 351 354 355 353 350
355 356 355 354 355 355 356 355 354 353 352 352 354 355 354 356 356 356 355 350 352 354 353 353 353 351 354 352 350 347 347 349 349 351 348 346 346 347 349 354 357 352 351
353 354 355 355 355 354 354 355 354 353 353 351 352 355 355 354 354 356 357 355 354 355 354 353 353 353 353 353 352 347 347 351 351 352 350 348 347 349 349 353 354 352 352
350 352 353 355 355 355 355 355 354 354 354 354 351 353 356 356 354 354 356 356 357 356 355 353 353 353 354 355 356 355 354 354 352 350 349 349 348 348 350 351 350 346 346
350 352 351 354 354 354 355 355 354 353 354 355 354 352 352 353 352 354 354 355 355 355 357 357 355 352 352 353 353 354 352 355 352 349 348 348 347 350 352 350 347 347 346
340 342 348 351 351 354 356 355 355 353 353 355 355 354 353 350 346 348 354 354 355 355 355 356 358 355 354 353 351 348 351 355 356 351 346 345 350 347 345 347 349 347 349
329 330 337 341 346 350 351 353 356 356 355 355 356 356 356 355 350 345 345 350 353 356 356 356 358 352 355 357 356 351 345 345 347 351 357 356 354 355 353 356 351 355 353
325 326 325 332 336 339 346 353 353 353 355 356 355 356 357 357 355 352 346 345 349 352 353 357 356 355 355 357 357 357 358 357 353 350 349 349 352 354 354 355 356 358 356
328 327 327 325 327 332 338 339 348 352 353 354 355 356 357 357 356 355 352 349 347 349 351 352 354 357 357 353 353 357 357 357 353 354 354 353 352 353 353 352 351 348 346
327 327 328 329 328 325 327 333 338 344 352 354 354 356 356 356 357 356 355 353 351 351 351 351 349 350 354 358 356 356 358 357 356 350 350 351 351 350 348 349 351 352 349
323 324 326 327 327 328 327 327 333 337 342 349 354 355 355 355 355 356 356 355 353 352 352 351 351 350 346 345 351 356 358 357 356 353 352 349 347 349 354 354 355 353 352
321 323 324 325 326 326 327 329 331 335 337 344 349 351 353 355 353 356 356 355 354 354 354 352 351 350 349 347 346 346 346 350 353 351 348 345 343 343 343 345 349 352 356
319 320 322 323 323 325 325 328 328 334 338 341 344 348 351 351 351 353 355 356 354 353 353 354 353 352 352 352 351 348 347 348 350 352 351 350 347 344 342 343 344 352 355
317 318 319 321 321 320 324 324 325 327 331 334 336 340 337 340 351 351 352 349 349 350 351 350 351 352 353 353 354 353 352 350 351 352 352 351 349 347 345 346 346 344 347
316 316 317 319 319 320 320 322 323 323 324 325 326 328 330 333 335 336 334 336 339 342 344 346 354 355 353 354 355 355 356 354 353 352 353 352 351 349 348 348 346 345 348
316 316 316 317 318 318 318 318 319 321 321 322 322 321 323 325 327 329 334 337 341 343 343 346 350 356 356 356 356 357 358 357 355 354 354 353 353 352 352 351 348 347 348
313 315 315 315 317 317 318 318 319 319 320 321 322 323 323 325 329 330 331 333 337 341 343 346 350 354 355 355 356 358 358 357 356 354 353 354 354 353 352 351 351 349 350
309 309 310 312 314 315 315 317 317 318 319 320 321 322 323 324 328 330 331 333 333 338 342 345 350 354 353 353 354 356 357 359 359 358 359 358 357 355 354 353 352 352 351
306 308 309 310 311 312 313 314 315 316 317 318 319 321 323 326 327 328 329 330 332 337 341 345 348 353 352 347 352 355 356 357 358 358 358 358 358 357 357 356 355 353 353
304 305 306 308 310 310 311 312 314 315 316 318 319 320 322 324 326 326 325 329 333 334 337 343 352 352 349 352 356 354 356 357 358 357 358 358 358 358 358 358 357 356 358
301 302 304 304 306 307 308 310 312 314 315 316 318 319 320 321 322 322 321 323 324 324 329 334 340 350 352 353 354 355 356 356 356 357 358 359 358 359 358 357 356 356 357
301 301 302 303 303 304 305 306 308 309 312 315 317 318 318 318 318 318 318 316 316 318 319 323 329 335 338 346 349 350 349 349 352 354 356 358 357 357 358 357 356 356 356
299 299 300 300 301 301 301 303 305 307 308 311 314 314 315 316 316 315 311 309 310 311 312 313 318 321 326 329 333 340 346 344 340 338 343 348 352 352 351 350 352 353 353
296 296 296 297 297 298 298 299 301 302 303 306 308 309 310 310 310 307 305 305 306 306 307 306 311 314 315 320 324 325 330 337 334 332 331 335 337 339 339 339 341 343 346
295 294 294 294 295 296 296 297 298 299 300 302 303 304 305 304 303 302 301 301 302 302 303 304 306 308 309 312 316 319 320 322 328 328 326 327 329 331 332 332 332 330 330
295 294 293 292 292 293 293 294 295 296 297 298 298 299 299 299 298 298 297 297 297 299 300 300 301 304 305 306 307 310 316 318 319 319 321 322 322 323 324 325 325 325 323

GFSGL_925_thetae_090.txt.gz
Theta_e
359 359 359 358 359 358 356 353 350 352 354 350 339 342 353 354 354 353 351 351 352 350 353 351 350 350 347 349 354 351 348 345 350 348 350 348 347 345 344 347 350 354 353
359 359 359 359 358 359 358 356 354 352 352 353 355 355 355 356 355 353 354 354 353 354 353 353 352 354 353 350 348 345 348 345 344 347 348 342 345 349 348 351 348 353 352
352 359 359 359 359 359 359 357 357 356 355 353 352 354 356 352 355 354 352 353 353 354 354 353 352 351 353 351 353 353 353 351 349 350 349 353 347 346 347 348 352 350 352
349 353 355 359 357 357 357 356 357 357 356 354 355 354 357 353 354 355 356 355 352 354 355 355 355 355 353 354 352 352 353 352 353 353 352 350 351 351 352 354 352 346 346
342 343 348 352 357 358 358 357 357 357 357 356 356 355 356 357 356 354 353 357 355 354 355 356 356 353 353 354 355 355 356 355 355 355 354 354 350 349 348 347 349 352 349
334 336 341 348 348 352 353 354 356 356 355 357 357 357 357 355 352 350 356 354 356 356 355 353 354 357 358 353 351 350 351 353 353 356 359 354 350 351 352 353 352 352 352
330 331 334 338 340 342 346 351 355 355 355 356 353 358 358 357 355 351 349 350 356 356 356 356 352 355 353 356 353 353 351 344 344 346 348 352 356 350 351 354 358 357 357
329 329 330 331 333 336 339 342 346 352 355 355 355 355 356 357 358 356 352 351 347 350 354 357 356 356 352 357 357 358 357 356 354 352 349 348 346 343 345 349 352 357 358
329 330 330 331 331 331 329 333 339 341 345 352 355 355 356 356 357 357 357 355 353 350 349 352 353 355 358 357 353 354 356 359 360 359 356 354 353 351 352 353 355 354 352
325 326 327 329 330 331 331 328 330 337 340 345 349 353 354 354 354 355 355 356 355 355 353 351 349 350 351 350 356 359 356 354 354 356 357 355 353 353 353 355 354 355 352
323 323 325 326 327 328 330 331 331 331 335 340 343 346 349 351 353 354 355 355 356 356 355 355 355 354 352 350 348 348 354 357 357 356 356 356 355 353 352 350 349 351 352
320 321 322 324 325 325 327 327 329 333 335 339 341 345 348 349 351 351 351 353 354 354 355 355 355 356 354 353 352 350 348 345 351 354 356 356 354 351 349 348 347 349 351
319 319 320 321 322 325 324 324 327 327 333 337 337 340 341 341 343 347 350 349 350 350 352 353 353 354 354 354 353 353 349 347 346 349 351 353 353 353 352 348 344 342 344
318 319 319 319 319 320 322 323 324 325 327 329 331 333 332 331 335 336 338 338 335 338 340 341 345 349 351 352 352 352 352 352 348 349 350 351 352 352 353 352 350 346 345
315 318 318 318 318 319 321 321 321 321 323 322 323 324 325 326 326 327 325 325 330 334 338 339 340 342 349 355 356 354 354 354 352 351 352 353 354 354 354 352 350 348 349
311 313 315 316 317 317 318 320 319 318 319 319 320 320 321 323 323 323 325 329 330 332 334 335 338 343 346 349 355 358 357 356 356 355 355 355 354 354 354 354 353 351 351
308 309 310 310 313 314 316 317 318 317 317 318 319 320 322 321 322 323 323 327 330 331 333 332 336 342 344 349 352 352 354 355 356 358 358 358 357 355 355 354 353 352 354
307 307 307 309 310 312 313 314 315 316 318 319 319 319 320 321 320 321 326 329 330 332 332 332 336 340 344 344 347 353 354 354 353 355 358 356 351 356 357 356 355 354 354
305 305 305 306 306 308 309 312 313 314 315 316 317 318 319 320 321 323 326 327 328 330 333 335 337 339 343 347 350 354 354 352 350 352 353 355 354 355 355 355 356 357 356
303 303 303 303 304 305 306 307 309 310 311 313 316 317 318 320 323 325 327 327 326 329 329 329 330 331 332 335 343 352 353 353 355 355 354 352 350 354 355 355 356 355 354
302 302 302 302 303 303 303 305 306 306 308 309 310 312 314 316 318 319 321 322 323 322 322 321 319 322 325 328 328 336 351 353 354 356 355 353 353 353 355 355 355 355 355
300 300 300 300 300 301 302 302 303 304 305 305 306 308 310 312 316 319 320 320 318 314 313 311 312 315 317 318 321 325 329 340 348 345 346 348 345 342 350 352 353 353 355
298 298 297 297 297 297 297 298 299 300 301 302 304 306 307 308 310 312 312 312 311 310 309 308 308 310 313 315 317 317 322 325 334 339 341 345 344 343 343 347 349 352 354
297 297 295 295 295 295 295 295 296 297 297 298 300 302 304 305 306 308 308 308 307 306 305 305 305 306 307 311 314 317 316 323 327 332 335 333 335 336 338 340 342 343 343
298 296 296 295 294 293 293 293 293 294 295 296 297 298 300 301 302 303 303 303 302 301 301 302 301 302 304 306 309 314 315 318 323 326 330 329 328 331 334 335 336 335 334
299 298 296 295 294 292 292 292 292 292 293 293 295 296 296 297 298 299 299 298 298 298 298 298 299 300 301 303 305 309 311 315 319 322 324 324 325 328 329 329 329 328 326

GFSGL_925_thetae_093.txt.gz
Theta_e
354 354 355 353 354 350 350 351 354 352 350 345 348 352 350 353 354 353 353 352 352 350 350 354 350 351 350 352 345 346 345 348 348 345 346 346 344 344 345 346 348 349 350
351 354 356 357 356 353 351 355 352 351 352 352 349 343 350 350 354 354 352 350 352 349 351 351 349 348 351 354 353 348 354 352 354 350 347 348 352 351 348 345 346 349 350
345 349 356 358 358 355 354 354 355 354 351 351 351 353 352 352 355 354 353 350 354 353 352 353 352 350 350 349 348 348 351 350 351 354 353 351 352 349 351 350 351 350 348
343 345 348 351 355 357 358 356 355 355 355 354 353 353 354 355 354 354 356 353 352 352 353 356 355 354 353 352 351 351 350 351 351 350 352 351 352 352 349 353 351 348 346
341 344 338 347 350 349 349 355 355 355 357 356 354 352 355 356 354 352 353 355 355 355 350 352 355 354 356 356 355 353 352 353 355 356 356 357 356 354 350 353 349 344 339
339 341 343 344 345 341 335 351 355 355 356 356 357 356 353 353 356 356 354 352 353 356 355 354 352 353 353 355 356 356 353 352 352 352 352 354 354 354 349 344 345 348 353
330 331 336 338 341 341 342 346 350 352 354 354 354 354 356 357 356 353 353 352 353 355 355 355 355 353 352 351 354 355 355 351 351 349 348 346 345 342 343 344 344 347 351
331 331 331 331 331 331 331 336 340 343 348 352 354 354 355 354 355 356 355 353 353 353 353 356 357 356 355 352 353 353 355 355 355 355 355 352 352 353 352 350 348 349 352
325 327 329 329 328 331 330 329 329 333 339 342 346 350 353 353 354 355 355 357 355 354 354 352 350 353 355 356 356 355 355 355 354 352 354 355 357 356 353 355 352 353 352
322 322 325 326 326 330 328 327 327 330 331 334 339 342 345 348 351 352 352 354 354 354 355 355 354 353 350 348 351 353 355 357 358 357 355 353 353 356 355 354 353 352 352
319 319 321 322 324 325 325 326 324 326 330 332 338 341 343 348 349 349 350 352 352 353 354 355 355 355 355 354 352 349 349 349 350 353 357 357 355 355 354 354 353 351 352
318 319 318 318 318 320 323 325 322 324 326 330 336 338 339 340 339 342 348 350 350 350 352 353 353 354 354 354 353 353 352 352 351 348 349 352 354 355 355 354 353 351 351
315 317 319 320 318 317 318 319 321 324 326 326 332 335 333 330 327 335 337 341 339 332 337 343 346 350 349 352 352 352 353 353 351 347 345 348 349 349 351 353 353 352 351
310 312 314 316 316 318 319 320 322 323 321 323 322 322 320 320 320 322 325 325 323 324 328 331 334 338 343 345 348 350 351 351 352 350 350 348 347 348 349 350 352 352 351
308 309 309 311 311 312 315 316 318 319 319 317 317 319 322 321 320 321 322 322 323 327 329 329 330 333 334 337 340 344 350 355 354 352 349 350 349 349 350 351 352 352 351
307 308 307 307 309 311 312 313 314 315 316 317 319 319 318 318 320 321 321 321 322 324 326 328 329 331 334 338 341 342 344 349 354 354 351 350 351 351 352 353 353 353 352
306 306 306 306 307 307 308 310 311 312 313 313 314 315 316 316 317 319 320 320 322 325 328 328 328 329 332 335 338 341 343 347 349 350 355 354 352 353 353 353 353 352 352
305 305 305 304 305 305 306 306 307 309 311 312 312 313 314 317 318 317 319 320 320 324 327 328 330 333 334 337 340 343 344 344 345 349 352 352 352 352 354 354 353 351 353
302 302 302 303 303 303 304 304 305 307 308 309 309 310 312 314 314 315 318 320 320 325 327 329 329 328 328 328 329 330 332 335 338 347 352 352 351 351 352 353 350 344 348
302 301 301 301 302 302 302 303 303 304 304 305 306 308 308 309 308 309 312 315 321 323 326 323 321 319 316 314 318 320 326 327 330 337 350 351 351 350 351 351 349 350 350
300 300 300 298 299 299 299 299 299 300 301 302 303 303 304 305 306 307 310 313 317 317 316 316 315 314 310 310 311 313 317 319 321 326 335 350 350 350 350 350 350 350 351
299 298 297 296 296 296 296 296 296 297 297 298 299 300 301 302 305 307 309 310 311 311 311 310 309 307 307 307 308 308 309 312 315 318 324 330 337 342 344 343 339 339 339
298 297 297 296 295 295 294 294 294 294 294 295 296 297 298 299 300 302 303 305 308 308 307 307 306 306 305 306 306 306 307 307 309 311 313 316 322 332 338 342 342 342 343
299 298 297 296 295 294 294 293 292 293 293 293 293 294 295 296 298 299 300 302 303 304 304 304 305 304 304 304 304 304 306 307 306 309 312 312 317 322 329 335 337 341 344
300 299 298 297 296 295 294 293 292 291 291 291 291 292 292 294 295 297 297 298 299 301 301 300 301 302 302 302 302 302 304 306 306 308 310 312 316 319 325 330 334 338 339
301 300 299 298 296 295 293 293 292 291 290 290 290 290 290 293 293 294 295 296 296 296 296 296 296 297 298 298 299 300 302 305 306 309 311 312 314 317 323 329 333 334 333

GFSGL_925_thetae_096.txt.gz
Theta_e
351 352 349 348 348 345 345 353 352 351 350 350 352 350 350 353 354 352 351 351 349 349 347 350 352 350 350 350 350 349 350 351 348 350 350 346 347 347 351 350 350 351 349
350 351 351 350 348 350 347 350 351 352 349 351 347 348 350 351 353 354 353 352 350 350 350 348 349 349 347 348 349 349 348 350 351 351 351 349 347 349 350 347 348 349 349
345 347 349 350 350 350 350 349 350 353 351 350 349 348 348 349 350 352 354 352 351 353 351 350 350 348 347 345 347 347 347 348 349 350 350 349 348 347 351 351 345 345 341
344 342 343 345 349 352 353 351 350 352 353 351 351 351 351 350 350 352 354 353 352 351 352 351 353 354 353 352 352 352 351 351 350 351 352 353 354 354 355 352 344 338 338
343 341 341 341 345 339 338 344 351 352 352 353 354 353 352 353 353 354 354 354 354 354 353 352 351 353 354 354 355 355 355 353 352 352 354 353 351 350 351 350 350 343 343
341 341 341 341 339 342 340 340 348 350 353 352 355 355 354 352 353 354 355 355 353 353 352 352 354 351 351 353 353 353 355 357 355 353 352 351 349 346 343 344 343 347 348
333 336 339 340 340 339 341 340 344 347 349 352 353 355 355 354 355 355 354 353 354 354 353 354 354 353 354 354 352 351 351 353 355 355 353 350 351 351 349 350 350 349 349
331 331 330 331 332 335 335 333 335 337 340 343 346 351 353 353 354 354 355 354 353 353 353 353 352 354 355 355 355 354 352 352 352 354 354 353 353 353 354 355 354 352 352
322 325 326 326 328 331 327 326 326 331 334 335 338 342 345 349 351 352 353 354 355 354 354 354 354 353 352 349 351 355 355 355 353 352 353 354 355 353 354 357 356 353 351
319 319 321 322 324 325 325 326 327 325 329 330 336 339 340 343 345 345 347 351 352 352 352 352 352 353 354 354 352 350 350 349 349 348 349 349 349 350 355 355 354 354 351
319 319 319 317 317 318 321 323 324 321 324 326 331 339 344 340 338 340 344 348 349 349 350 351 352 354 354 354 353 352 351 350 349 349 349 349 349 350 350 350 353 354 352
316 317 317 318 319 318 318 318 319 322 324 326 329 336 335 329 323 322 326 336 337 335 332 336 344 348 350 350 352 353 353 352 352 352 352 350 349 349 350 351 351 351 351
311 313 313 314 315 315 316 317 318 318 318 317 317 318 319 321 321 320 321 323 322 322 322 325 329 333 336 341 346 347 348 349 351 350 350 350 349 349 350 349 350 350 351
308 308 308 309 310 311 312 313 314 314 314 314 314 314 317 317 318 319 320 321 321 321 321 322 324 326 327 329 331 332 336 342 346 348 349 350 349 348 346 348 348 348 349
306 306 305 306 307 308 308 309 311 312 311 312 313 313 314 315 316 316 317 319 320 321 321 322 325 326 326 326 328 331 335 339 343 345 348 351 351 349 347 346 347 348 349
305 306 306 305 305 305 305 305 305 306 307 309 310 311 312 313 314 316 317 317 318 319 319 321 324 325 326 328 331 333 336 339 341 342 345 347 349 349 350 349 349 349 350
304 303 303 302 302 302 303 304 304 304 305 305 306 307 308 309 310 313 315 316 319 320 319 320 321 325 328 330 332 334 337 338 338 340 343 345 347 349 350 350 350 351 351
302 302 302 302 302 302 302 302 302 303 303 304 303 303 305 307 307 307 308 309 313 315 317 321 322 326 327 327 325 324 322 321 324 328 331 333 339 347 350 351 351 351 351
300 301 301 300 300 300 300 300 301 301 301 302 302 303 303 303 303 303 304 306 308 313 316 320 325 324 322 321 319 317 313 314 315 318 321 326 332 339 346 349 350 350 352
299 300 299 297 297 296 296 297 296 296 296 297 298 299 300 300 300 302 303 305 306 310 312 315 315 314 313 311 310 310 309 310 312 313 315 318 323 331 339 347 348 348 346
299 297 297 296 296 295 295 295 295 294 295 295 295 296 296 297 297 299 300 302 305 308 310 311 310 310 309 309 307 307 307 308 309 310 312 314 317 322 322 330 341 346 348
299 297 297 296 295 294 294 293 293 293 293 293 293 293 294 294 296 297 298 298 300 301 303 305 308 307 306 305 304 303 304 305 306 306 307 308 309 311 315 322 330 339 342
301 298 298 297 296 295 294 293 293 293 292 292 292 292 292 292 293 294 295 295 297 298 300 304 304 303 302 302 302 301 301 302 302 302 303 302 304 306 308 313 321 331 339
301 300 299 298 298 297 296 295 293 292 292 291 291 291 291 291 291 291 292 294 294 296 296 298 299 300 300 299 299 299 299 302 303 302 302 301 301 303 305 308 315 324 331
301 301 300 300 299 298 297 296 294 292 291 290 290 290 290 289 289 289 290 291 292 293 295 296 297 296 296 297 296 296 298 301 303 303 300 301 301 303 305 306 309 317 326
302 301 301 300 300 299 298 297 295 292 291 290 289 289 289 288 288 288 289 290 290 291 291 292 293 294 294 294 294 295 296 297 298 301 300 300 301 305 307 307 310 315 322

GFSGL_925_thetae_099.txt.gz
Theta_e
348 349 348 347 348 348 346 346 350 350 350 350 350 351 351 350 350 351 352 351 350 349 349 348 348 351 349 350 350 350 348 350 348 348 348 347 347 347 347 347 346 346 345
349 350 351 350 348 348 348 345 348 351 350 350 350 350 351 351 351 352 352 351 351 350 349 350 348 348 349 347 346 347 348 348 350 348 347 346 345 346 348 347 351 349 334
345 347 349 349 350 350 351 350 348 350 349 350 349 349 347 348 350 351 351 352 353 351 349 352 349 350 351 350 348 350 349 349 350 349 350 350 349 349 351 350 349 338 338
344 342 341 341 345 346 349 350 350 350 350 353 350 349 347 348 348 348 349 351 353 353 351 350 350 350 352 353 353 353 353 353 352 351 350 350 351 349 348 347 341 341 344
344 343 341 341 341 340 338 341 346 350 351 351 352 351 350 350 350 350 351 352 353 353 352 352 352 352 350 351 352 351 352 352 354 354 353 352 351 349 348 347 345 346 348
342 342 342 341 341 338 339 341 341 341 347 350 351 353 354 353 352 352 353 354 354 354 353 352 351 352 352 352 350 350 351 352 352 354 354 353 353 352 350 350 350 348 346
336 337 338 339 339 338 339 340 338 340 343 344 346 349 351 352 352 351 351 353 353 353 353 354 352 351 351 352 353 354 354 352 352 352 353 353 353 353 352 351 351 351 350
326 327 328 332 332 329 330 332 332 334 335 338 340 342 346 348 350 350 352 353 352 352 352 352 352 352 352 352 351 352 353 354 354 353 352 352 352 352 353 354 353 353 353
319 319 320 326 328 325 325 326 327 326 329 331 334 338 340 341 343 345 346 349 351 351 351 351 352 353 353 352 352 352 351 350 349 349 349 349 349 349 350 354 354 353 351
318 318 317 317 318 319 320 321 320 321 324 327 334 340 343 342 339 338 343 347 348 348 349 350 351 351 351 352 352 352 351 352 351 350 350 350 350 350 349 349 350 351 351
316 317 317 317 317 317 318 319 321 322 325 323 334 340 333 327 324 322 323 329 328 328 331 333 336 342 346 349 348 348 349 349 350 351 352 352 352 351 352 351 351 350 350
314 315 315 315 315 315 316 317 317 318 317 317 317 318 318 320 320 320 324 325 322 321 322 322 324 327 331 336 341 341 345 345 346 346 347 348 349 350 349 349 349 350 350
310 311 311 311 312 313 313 314 314 314 314 313 313 314 315 316 316 316 317 318 319 320 320 321 321 322 323 323 325 328 330 332 334 337 339 343 346 347 348 350 351 348 348
306 305 306 307 307 308 309 310 310 309 310 311 311 312 312 312 312 314 315 316 317 318 319 319 319 320 322 323 323 324 327 330 335 339 341 342 344 346 347 348 348 347 346
305 305 305 304 303 303 304 305 305 305 306 307 308 309 309 309 309 309 310 312 314 316 317 318 319 319 320 322 324 330 331 335 337 338 339 341 343 344 345 346 348 348 345
304 303 302 301 301 302 301 301 301 302 303 303 304 303 303 306 307 307 307 309 312 314 315 316 318 320 320 324 325 328 330 331 330 329 330 332 334 336 341 344 347 347 347
302 301 301 301 301 301 301 301 300 299 299 299 300 301 303 302 302 302 301 303 306 308 311 312 315 317 321 324 326 325 323 321 322 319 317 318 322 328 333 339 342 345 345
301 300 300 299 298 298 297 297 297 296 296 296 296 296 297 297 298 298 300 301 302 304 306 312 315 319 320 322 321 318 317 315 314 313 313 315 317 319 323 328 335 342 344
299 299 297 296 296 296 295 295 295 295 294 295 295 295 294 294 295 296 296 299 301 302 304 307 310 311 313 312 312 311 311 310 310 310 311 311 311 313 317 320 327 333 338
298 297 297 296 296 295 294 294 294 294 293 293 293 293 293 293 293 294 295 296 298 299 301 303 304 307 309 310 309 308 307 307 307 307 308 309 310 311 313 315 317 320 325
299 297 297 297 296 295 294 294 293 293 292 292 292 292 292 292 292 292 293 294 295 296 297 298 300 301 302 305 307 305 305 305 304 304 305 306 306 308 310 310 312 315 319
301 298 297 297 297 296 296 295 294 293 293 292 292 292 291 291 291 291 291 292 292 292 293 295 296 297 299 304 303 302 301 301 302 302 303 303 303 304 306 307 308 311 314
302 299 298 298 298 298 297 297 296 294 293 292 291 291 290 290 290 290 290 289 289 291 293 293 294 295 295 297 298 299 299 299 299 299 300 301 301 302 302 302 303 305 308
302 300 299 299 298 298 298 298 297 296 294 292 291 290 289 289 289 289 288 288 289 289 290 290 291 291 292 294 295 296 296 297 297 297 296 297 297 298 299 299 300 303 305
302 301 300 300 299 299 299 299 298 297 295 293 291 290 290 289 289 289 289 289 289 288 289 289 290 290 291 292 293 294 294 294 294 294 294 294 294 295 296 296 298 300 302
305 303 301 301 301 300 300 300 299 298 297 295 292 291 290 289 289 289 288 288 288 288 288 289 290 290 290 291 291 291 292 292 292 293 293 294 294 294 295 296 299 299 302

GFSGL_925_thetae_102.txt.gz
Theta_e
345 345 345 346 347 348 348 347 347 348 349 349 349 349 349 349 350 351 350 349 350 350 349 348 348 348 349 348 350 349 348 348 348 347 346 345 343 344 343 344 347 350 348
347 347 347 347 347 347 347 347 346 346 348 348 348 350 349 350 350 350 351 351 350 350 349 349 349 348 347 349 347 346 346 347 348 347 348 347 345 347 348 349 348 343 339
346 348 349 350 350 347 347 347 347 348 348 348 347 349 349 349 350 349 348 350 350 349 347 347 349 349 349 350 351 348 349 349 349 349 349 350 350 350 348 345 345 346 346
343 343 341 342 342 344 345 347 348 349 348 346 348 349 349 348 346 347 347 348 350 351 349 349 350 349 350 350 352 352 352 352 352 352 352 352 352 353 352 350 351 351 350
343 343 342 341 340 340 340 341 341 346 349 350 348 351 350 349 349 349 349 348 350 350 351 352 351 351 351 352 351 349 350 351 351 352 351 352 352 352 351 352 351 350 350
343 343 342 340 340 339 338 339 341 341 341 344 348 350 349 350 351 352 352 352 353 353 353 353 353 352 350 352 352 352 352 351 352 352 352 352 351 351 352 352 350 349 351
337 338 339 339 338 336 336 336 336 338 340 340 341 344 346 348 350 350 351 351 351 351 352 352 351 351 352 352 351 350 352 353 354 354 352 352 351 351 352 352 351 351 350
327 331 332 332 332 333 329 329 330 332 333 337 337 338 340 342 344 345 346 348 350 351 350 350 350 351 350 351 350 350 351 351 350 350 351 350 351 350 351 351 351 351 351
318 320 321 322 325 325 324 323 322 325 328 331 337 342 341 333 331 334 344 345 346 346 346 348 349 350 349 350 350 350 351 351 352 351 351 350 350 350 350 349 349 349 350
317 317 317 318 319 320 320 321 323 325 330 336 336 334 330 326 325 327 326 325 326 325 329 330 334 336 339 342 344 345 347 349 349 350 351 351 351 351 351 351 350 349 350
314 315 315 316 316 317 318 318 319 321 324 323 319 318 319 318 318 320 322 321 321 321 321 321 322 322 324 333 332 334 337 340 344 344 346 346 347 347 347 348 349 348 349
313 313 313 314 314 315 316 316 316 316 316 316 316 315 315 315 316 316 316 317 317 318 318 319 319 319 320 323 323 324 327 329 331 333 334 336 339 341 344 344 346 347 348
309 309 309 310 311 312 312 312 312 313 313 312 312 312 311 311 313 313 314 315 316 316 316 318 318 318 319 319 321 325 328 331 333 335 337 338 341 341 342 344 344 345 345
305 305 305 305 305 306 307 307 308 307 307 307 307 307 307 308 309 309 310 311 313 314 315 316 316 317 317 318 319 322 328 332 334 335 336 336 337 340 341 343 345 345 346
304 302 301 302 302 302 302 302 303 304 304 304 303 302 304 304 303 303 302 302 304 307 309 312 314 315 316 318 321 324 325 327 327 325 323 322 322 324 326 331 334 337 342
301 301 301 301 301 300 300 300 299 299 300 300 300 301 302 300 300 299 299 299 300 303 306 308 311 313 315 318 322 325 325 322 322 320 318 316 317 317 320 321 325 330 335
300 300 300 299 298 297 297 296 296 296 296 295 295 296 295 295 296 296 296 297 298 300 302 305 309 312 315 317 318 318 316 316 317 317 315 314 315 314 314 315 318 322 325
299 298 298 297 296 296 296 295 295 295 295 294 294 294 294 294 294 294 295 296 298 299 301 302 304 307 308 310 311 312 312 312 312 311 311 311 312 314 314 314 314 316 320
298 297 296 296 295 295 294 294 294 294 293 293 294 294 293 293 293 293 293 295 296 297 297 298 298 299 301 302 304 307 309 309 308 308 308 308 308 308 310 312 314 313 314
297 297 296 296 295 294 294 294 293 293 293 293 293 292 292 292 292 292 292 292 293 293 294 294 295 296 297 298 298 300 304 305 305 305 305 306 305 306 306 308 309 310 312
298 297 297 297 296 296 295 295 294 294 293 293 292 292 291 291 291 291 291 291 291 290 290 291 293 294 295 296 297 300 302 302 302 302 300 301 302 302 302 303 304 305 306
300 298 297 297 297 297 297 297 296 296 295 294 294 293 291 291 290 290 290 290 289 290 290 290 290 290 291 292 293 295 297 297 299 299 299 299 298 299 300 301 301 302 304
302 301 299 298 298 298 298 298 298 297 297 296 295 293 292 290 290 290 290 289 289 289 289 289 289 290 290 290 291 291 292 293 295 295 296 296 297 297 297 298 299 299 300
303 302 301 299 298 298 299 299 299 299 298 298 297 296 293 291 290 290 290 289 289 289 289 288 288 288 289 290 290 290 291 292 293 294 293 295 295 295 295 296 297 297 298
304 303 302 301 300 299 299 299 300 299 299 299 298 297 294 292 291 290 290 290 290 289 288 288 288 288 288 288 289 289 290 290 290 290 290 290 291 292 293 293 294 295 296
305 304 303 302 301 300 300 300 300 300 300 299 299 298 296 293 292 291 291 291 291 289 288 288 289 289 287 288 288 289 288 289 290 290 290 290 290 290 290 291 292 293 295

GFSGL_925_thetae_105.txt.gz
Theta_e
345 349 348 346 349 347 348 347 347 348 347 348 348 348 348 348 349 350 350 348 349 354 351 351 352 351 351 351 353 353 352 351 348 346 350 349 349 353 351 349 350 349 346
344 344 348 347 345 347 348 347 347 344 346 348 348 348 348 351 351 350 353 353 350 352 352 353 353 352 352 351 351 353 351 352 351 351 352 352 354 355 353 353 352 352 353
348 345 349 345 346 346 348 346 345 346 347 346 348 346 347 347 349 349 348 350 348 347 351 347 351 352 349 352 351 353 350 353 353 353 354 354 355 355 355 354 355 356 352
345 344 345 347 347 347 346 346 347 347 348 346 347 347 348 348 347 347 348 348 348 350 348 348 348 351 349 351 352 352 350 350 352 354 353 353 353 354 354 353 352 352 351
342 341 341 340 341 341 341 341 343 345 347 347 346 346 348 349 348 349 349 351 350 353 351 348 348 350 349 350 351 350 352 352 350 350 351 352 352 351 352 352 352 351 348
342 342 341 340 340 339 339 340 340 341 342 346 348 349 349 351 349 349 350 354 353 355 356 354 351 350 350 349 350 350 350 351 354 351 351 353 355 355 352 352 352 352 351
342 341 340 340 339 338 337 337 337 338 339 340 342 346 345 345 345 348 348 351 352 353 353 354 351 353 352 353 351 350 351 351 350 352 355 356 355 355 355 354 353 354 353
334 334 334 335 334 333 333 333 334 334 335 339 342 343 338 336 342 345 345 348 349 349 350 349 350 350 347 347 348 352 353 354 355 354 353 354 354 355 355 354 355 353 353
324 325 326 326 326 327 324 325 328 331 332 339 340 334 330 328 328 336 336 336 336 336 339 339 340 338 336 340 343 344 346 351 352 350 349 350 350 350 350 349 352 352 354
317 318 319 321 324 324 325 324 326 330 332 334 330 320 318 322 324 323 324 327 328 328 328 329 323 322 322 324 332 332 334 340 340 342 346 349 350 351 349 349 351 352 353
315 315 317 317 318 318 320 321 328 325 323 321 318 316 314 314 316 317 318 318 320 323 323 324 323 319 319 320 322 327 329 326 329 334 338 340 341 342 344 348 350 351 351
314 314 314 315 315 316 316 316 317 318 318 317 316 315 313 311 312 313 314 315 315 317 318 319 319 318 318 318 320 321 326 329 333 334 335 337 338 339 341 343 345 347 348
311 311 311 312 312 312 313 313 314 315 314 314 315 314 312 311 309 311 311 311 312 312 312 314 315 316 316 321 319 319 326 331 333 335 335 334 334 333 336 337 339 343 346
309 308 308 309 309 309 309 310 310 310 310 310 309 308 309 307 303 302 303 303 304 306 306 309 311 314 317 320 322 323 325 328 328 328 327 326 326 326 326 327 328 330 334
305 305 305 305 305 305 304 306 305 303 305 305 305 305 304 301 297 297 298 299 300 301 303 311 312 314 315 317 318 321 324 325 323 322 322 322 322 322 322 321 321 322 325
304 304 303 303 303 303 302 301 299 298 298 298 298 299 299 296 296 296 297 297 298 299 307 308 309 311 314 315 316 317 318 319 319 318 318 319 319 320 320 319 320 320 321
303 303 301 301 301 301 301 301 299 296 295 295 295 295 295 295 295 296 296 298 298 301 303 304 305 306 308 310 312 313 312 313 314 315 315 315 315 316 315 317 318 318 319
301 300 300 300 300 300 300 299 299 299 299 298 295 294 294 294 295 295 296 299 300 300 300 300 300 300 301 302 304 305 307 307 309 309 309 310 311 311 312 311 313 314 315
300 300 299 299 298 298 298 298 298 298 298 298 298 297 295 294 294 294 295 297 297 297 297 297 297 298 298 299 300 300 301 302 304 306 307 305 306 306 306 306 306 307 308
299 298 299 298 298 298 298 298 298 298 298 297 297 296 295 297 296 296 296 295 295 295 294 294 295 295 296 297 297 298 298 298 299 300 302 304 303 302 302 302 303 303 304
300 299 298 299 298 299 299 298 298 298 298 298 297 295 293 295 295 295 295 295 294 294 294 293 293 293 294 294 294 294 294 296 296 298 299 301 300 300 299 299 299 299 300
301 300 299 299 299 299 299 299 299 299 299 299 298 296 294 295 295 295 294 294 293 292 292 291 291 291 291 292 292 292 292 292 292 294 295 295 295 296 297 297 297 298 299
301 301 300 299 300 299 299 300 300 300 300 300 299 298 297 296 295 295 294 294 293 292 291 290 290 290 290 290 291 291 291 291 291 291 292 293 293 294 294 295 296 297 297
303 302 301 300 300 300 301 301 301 300 301 301 300 299 298 297 295 295 294 294 294 293 292 291 290 290 289 289 289 290 290 289 290 289 289 289 290 290 291 292 293 294 295
303 303 303 302 301 300 301 301 302 302 302 301 301 301 300 298 296 295 295 295 294 293 292 291 291 290 289 289 288 288 288 288 287 287 288 288 289 289 289 290 291 292 293
305 303 303 303 302 302 302 302 302 302 302 302 301 301 300 300 298 296 295 295 294 294 292 291 290 289 288 288 288 288 287 288 288 288 288 290 290 290 289 290 290 291 292

GFSGL_925_thetae_108.txt.gz
Theta_e
350 350 350 350 349 352 350 349 351 351 350 352 352 352 350 352 354 354 353 352 352 352 351 352 352 352 348 347 347 347 347 346 348 345 346 346 351 352 353 353 350 348 346
351 350 352 350 349 348 350 349 351 350 351 351 351 352 352 353 354 353 353 351 353 352 352 352 352 350 354 352 349 348 348 349 349 348 348 348 349 352 352 356 353 348 348
351 350 351 351 348 349 349 351 350 351 350 351 350 351 351 352 352 351 353 353 353 351 351 351 352 352 353 352 353 350 348 348 350 350 350 347 348 350 351 350 350 349 347
351 351 352 351 348 350 351 352 351 349 350 350 350 350 349 352 351 352 352 351 351 351 352 351 352 351 352 353 352 353 352 352 349 351 349 347 347 348 350 347 346 346 347
347 349 350 351 351 351 351 352 352 353 351 352 351 351 351 351 350 354 354 354 354 353 353 353 352 351 350 349 351 351 352 352 350 349 349 347 347 353 349 348 347 346 346
342 342 343 344 346 347 348 349 349 350 352 353 353 352 352 351 349 349 350 355 354 354 353 353 352 353 352 352 349 351 351 352 353 353 350 349 350 352 349 349 351 351 353
343 342 341 341 340 339 339 344 346 347 348 349 351 351 345 342 346 347 347 351 353 353 354 355 354 350 350 352 354 352 351 352 353 353 353 353 354 353 353 356 355 355 355
340 341 340 340 338 337 337 338 340 343 345 346 345 341 335 334 344 345 347 353 351 349 346 346 347 346 344 344 347 352 354 354 354 356 356 356 356 355 355 354 353 355 354
331 333 334 336 335 336 335 335 335 336 343 340 336 333 326 326 333 338 342 343 342 342 339 330 333 332 329 336 339 344 346 348 350 348 349 348 347 349 350 351 352 352 354
323 325 327 328 330 330 331 332 336 333 334 332 325 321 318 318 320 326 330 335 335 335 334 332 324 319 319 320 327 333 338 340 336 337 341 345 348 350 347 349 352 353 353
318 320 322 326 327 328 329 333 331 326 322 320 319 316 317 316 317 317 317 319 326 328 328 327 325 318 318 319 323 327 327 326 333 336 339 341 343 344 345 346 347 348 348
316 316 318 320 321 323 325 326 325 323 323 322 321 320 317 314 315 315 314 314 316 321 320 320 320 316 316 320 322 318 320 329 332 334 336 337 338 338 337 337 339 342 344
319 319 319 319 320 321 321 322 322 323 322 321 321 320 318 315 312 309 306 307 310 313 313 310 311 312 314 319 321 322 324 327 329 329 330 330 329 329 329 329 330 330 329
316 316 316 317 317 316 316 317 318 319 318 317 316 315 312 308 302 301 303 305 305 306 303 313 313 315 316 318 319 321 323 327 326 326 325 324 324 324 324 325 325 325 325
313 313 312 313 313 312 308 310 307 304 310 312 311 309 309 305 299 297 298 299 300 303 309 311 312 314 316 316 317 318 319 320 321 321 320 320 320 320 321 322 321 322 322
310 309 309 309 309 307 305 300 298 298 298 299 303 304 298 296 296 296 297 298 300 305 308 309 310 310 311 311 312 314 315 314 315 315 316 317 317 317 317 317 317 317 319
309 308 306 306 306 306 305 303 300 296 295 296 296 296 296 296 296 297 299 301 301 305 306 305 305 304 304 305 306 307 308 309 309 310 311 311 311 311 312 313 314 314 314
307 304 305 305 305 305 305 305 305 305 304 300 296 296 295 296 296 298 301 303 304 303 303 304 304 303 303 303 304 303 303 304 305 306 308 309 310 309 308 308 308 308 308
304 304 304 304 304 303 303 303 303 303 303 303 302 300 298 298 299 299 300 302 302 301 301 301 301 301 301 301 302 302 302 302 301 302 302 303 304 304 305 305 305 304 304
304 303 303 303 302 303 303 303 303 303 303 303 302 300 300 302 302 301 301 301 300 300 300 300 299 299 299 299 299 299 299 299 299 300 300 300 300 301 302 302 302 302 302
303 302 302 303 303 303 303 303 303 303 303 303 301 296 296 300 301 300 300 300 299 299 299 298 297 297 297 296 296 296 296 297 297 297 297 297 297 297 299 300 300 300 299
303 303 302 303 303 303 303 303 303 303 303 303 302 299 297 299 300 300 299 299 298 297 297 296 296 295 295 295 295 295 294 294 294 294 294 294 294 294 294 295 296 297 298
304 304 303 303 303 303 302 303 303 303 303 303 303 302 301 300 300 299 299 299 298 298 297 296 296 295 294 293 292 292 292 292 292 292 291 291 291 292 292 292 293 294 295
306 305 305 304 303 303 303 304 304 303 304 304 304 303 303 302 301 300 299 299 298 298 298 297 296 295 295 293 292 292 291 291 289 289 289 289 289 290 290 291 292 292 293
307 307 306 306 305 303 303 303 304 305 304 304 304 304 304 303 302 301 300 299 299 299 298 297 296 296 295 294 293 292 291 288 289 288 288 289 289 289 289 290 290 291 291
308 307 307 307 307 306 304 304 304 304 305 305 305 304 304 304 303 302 301 300 300 299 299 297 296 295 295 294 293 292 291 290 289 289 289 289 288 289 290 290 290 290 290

GFSGL_925_thetae_111.txt.gz
Theta_e
351 351 350 348 348 350 351 351 353 353 355 355 354 353 354 353 353 354 355 353 354 352 352 352 352 352 350 346 346 346 345 344 346 346 345 343 345 350 352 353 350 351 346
353 352 352 352 349 347 349 351 351 353 354 354 354 355 353 354 353 355 353 352 352 353 352 351 350 348 352 351 347 346 346 346 346 349 346 349 347 349 349 353 350 349 347
353 353 352 353 351 349 347 348 350 354 354 353 354 354 355 355 356 356 355 354 354 352 352 352 351 351 354 353 355 351 349 351 351 350 349 346 348 348 349 349 350 347 346
352 352 353 353 353 351 349 348 349 351 353 353 354 353 353 353 355 354 354 354 353 352 351 351 352 352 352 354 354 353 352 352 350 350 349 347 346 350 352 347 347 345 346
343 346 351 353 353 352 353 351 350 349 351 351 352 352 353 352 353 354 354 354 354 353 352 353 352 353 352 350 350 350 354 351 352 350 349 347 346 352 347 348 348 348 350
346 347 348 350 351 353 352 352 351 351 352 352 351 351 352 349 348 347 348 353 353 354 353 353 351 352 355 352 353 350 350 353 354 354 353 350 353 353 352 353 355 354 354
346 345 346 345 347 347 348 349 350 350 351 351 353 351 347 346 345 346 347 348 352 354 354 357 356 350 348 350 352 351 353 353 352 352 354 355 354 354 354 357 355 356 355
346 344 342 340 340 340 340 341 343 347 348 350 345 341 336 338 344 345 347 354 351 350 349 348 347 341 341 342 342 350 352 352 353 354 355 355 354 352 350 352 353 352 354
341 341 340 340 340 339 337 337 338 340 343 340 337 331 326 331 340 343 348 348 348 344 333 332 333 328 321 322 335 340 342 346 347 341 340 341 345 347 349 350 352 352 353
330 334 336 336 336 339 340 340 339 337 334 333 329 324 320 321 328 335 336 340 342 341 339 330 322 319 318 319 329 333 332 331 332 337 340 344 346 348 348 349 349 350 349
324 327 330 332 334 334 335 337 332 329 326 325 324 322 320 318 318 320 322 327 327 331 333 331 325 317 316 317 320 326 319 320 330 338 337 340 340 341 341 337 337 341 341
319 322 324 326 329 332 333 332 329 325 323 321 322 324 321 317 314 315 316 317 319 322 321 322 320 314 313 315 323 320 321 326 330 331 332 332 333 332 331 330 331 332 331
319 320 321 322 325 327 329 329 328 328 330 330 328 325 322 317 311 307 308 309 310 310 312 308 312 315 317 320 319 320 324 326 329 328 327 327 326 326 325 325 325 325 325
320 321 321 321 321 322 323 324 324 324 325 324 323 322 319 313 307 305 305 307 306 308 309 315 314 316 318 319 320 322 323 324 323 324 323 321 321 322 322 322 322 322 321
319 319 319 318 319 313 312 313 311 311 311 318 315 314 312 310 300 298 299 301 303 308 312 313 313 315 315 315 315 316 318 317 317 316 316 318 318 318 318 318 317 317 318
315 315 315 315 314 312 309 302 299 300 303 306 306 304 300 298 298 298 299 301 304 308 309 311 310 309 309 310 310 309 310 309 309 310 311 312 313 313 313 313 314 314 315
313 312 311 312 311 310 307 305 301 296 297 297 298 299 299 297 298 300 302 303 305 307 309 308 308 308 307 307 307 307 307 307 307 307 307 307 309 311 311 310 310 310 310
311 308 309 310 310 309 309 308 305 305 304 300 297 297 297 297 299 301 303 305 307 306 306 306 306 306 306 306 306 306 306 305 304 304 305 306 306 306 306 306 306 307 307
309 307 308 308 308 308 308 308 308 308 308 306 303 301 300 301 302 302 304 306 305 305 304 304 304 304 304 304 303 303 303 303 302 303 303 303 303 303 303 303 303 302 302
307 306 306 307 306 306 307 307 307 307 307 307 306 305 304 303 305 305 305 304 304 304 304 303 303 302 302 302 301 301 301 301 301 300 300 300 300 299 299 300 300 300 300
305 304 304 305 305 306 306 306 306 306 306 306 305 300 301 304 304 304 304 303 303 302 302 302 301 301 300 300 300 300 299 299 299 298 298 297 297 296 296 296 297 297 298
305 305 303 305 306 306 306 306 306 306 306 306 305 300 298 301 303 303 303 303 302 301 301 300 300 299 299 299 298 297 297 297 297 296 295 295 294 294 294 295 295 295 296
306 306 305 305 305 305 305 306 305 306 306 306 306 305 303 304 303 303 302 302 302 302 301 301 301 300 299 298 297 296 295 295 294 293 292 292 292 292 292 293 293 294 294
307 306 306 306 306 306 305 305 305 305 306 306 306 306 305 305 304 303 303 302 302 302 301 301 300 300 299 298 298 297 296 294 292 291 291 291 290 291 291 291 291 292 293
308 309 308 308 307 306 306 306 306 306 306 305 306 306 306 306 305 304 303 303 302 302 302 301 301 300 299 298 298 297 296 294 292 290 289 291 291 291 291 291 291 291 292
310 309 309 309 309 309 308 307 307 307 307 307 307 307 306 306 306 305 305 304 303 302 302 302 301 300 299 298 298 296 294 292 292 291 290 290 291 291 291 291 291 292 292

GFSGL_925_thetae_114.txt.gz
Theta_e
353 351 351 350 350 352 352 353 353 350 343 352 354 353 353 353 350 353 353 350 353 353 352 351 351 349 349 346 345 343 342 345 349 345 344 343 348 349 350 349 351 351 350
350 348 352 348 350 351 350 352 352 352 355 352 354 353 355 354 353 354 352 353 352 352 353 353 350 350 351 352 353 355 353 350 351 351 352 346 346 345 349 348 351 350 346
350 353 354 354 349 349 349 349 350 354 354 354 353 354 354 352 353 352 354 354 353 354 351 352 351 352 352 353 351 353 352 352 350 354 351 350 350 353 350 347 345 348 349
355 354 354 353 353 351 350 348 347 351 352 353 353 353 353 352 353 353 355 353 354 353 353 351 350 351 351 351 353 352 353 351 350 353 352 351 350 352 351 354 354 356 354
351 351 352 351 351 352 352 350 348 350 352 353 352 352 353 353 352 351 352 351 352 352 352 353 353 352 351 351 350 349 349 353 354 353 354 353 355 354 354 356 354 354 355
343 344 343 343 347 348 351 350 351 349 349 350 351 352 351 349 348 348 349 343 351 349 352 351 351 351 351 348 352 353 352 350 351 351 354 354 354 355 354 354 355 357 355
348 350 350 349 347 347 347 350 350 350 351 351 351 350 348 346 345 347 347 347 348 353 354 351 353 349 347 348 348 347 353 353 353 352 352 353 353 352 353 351 351 354 355
347 346 345 343 343 342 342 344 347 348 349 345 342 341 338 341 344 345 345 349 352 350 349 348 344 338 335 337 340 344 346 347 348 345 336 340 342 343 346 348 350 351 350
346 345 344 344 342 340 340 339 340 342 342 339 335 330 330 335 337 341 348 350 347 341 337 334 330 322 320 321 336 335 334 334 329 330 336 340 344 345 347 346 347 348 350
336 338 341 341 341 342 340 338 337 335 335 336 331 327 324 325 328 332 340 346 344 341 333 326 320 318 317 318 322 328 318 316 323 334 335 341 338 343 336 332 333 339 340
331 333 334 336 337 338 340 339 335 332 330 327 325 323 320 320 320 321 327 330 329 325 327 326 324 317 315 315 322 323 318 319 327 331 333 333 331 329 329 326 328 335 330
327 329 329 332 334 335 334 331 331 330 328 325 323 322 321 318 316 316 317 318 321 323 322 319 313 312 312 319 319 319 322 328 329 328 327 325 324 324 323 324 324 325 324
322 323 325 328 330 330 330 329 327 326 326 327 325 325 320 315 311 309 312 310 308 311 311 309 310 316 319 320 320 321 322 321 323 324 323 322 322 321 321 320 320 319 318
320 320 323 323 323 326 328 326 322 321 328 328 326 325 321 313 309 307 307 308 308 308 308 314 315 318 317 316 317 316 316 315 315 314 315 316 315 315 315 315 314 315 317
320 321 320 320 319 315 313 313 312 312 316 318 315 315 315 310 301 299 300 302 307 310 314 314 313 313 311 312 311 311 310 309 309 310 311 312 313 314 314 313 314 313 313
319 319 319 319 317 313 309 305 305 306 309 312 309 307 307 302 299 300 302 304 308 310 311 310 309 309 309 309 309 308 308 308 309 307 306 307 307 308 307 308 309 309 310
316 314 314 316 314 311 308 304 301 297 299 303 303 301 300 299 299 302 304 306 307 308 310 308 309 309 308 308 307 307 307 306 304 304 306 306 306 305 305 306 305 305 305
312 311 311 312 312 312 309 307 304 303 302 299 297 297 298 299 302 304 305 306 308 307 307 307 306 306 306 305 305 305 305 304 303 304 303 303 303 303 302 302 302 302 302
310 310 310 310 310 310 310 310 309 309 307 303 299 299 300 301 302 304 306 307 307 306 306 305 305 305 304 304 303 303 302 302 301 301 301 301 300 300 299 300 299 299 299
308 308 309 309 308 308 308 308 309 309 309 308 308 307 304 303 306 307 306 306 306 305 305 305 304 303 303 303 302 302 301 301 300 300 299 299 298 298 297 297 297 297 298
307 307 307 307 306 307 307 307 307 308 308 308 307 305 305 306 307 306 306 305 305 304 304 303 303 302 302 301 300 300 300 299 299 298 297 297 295 295 295 295 296 296 296
307 307 305 306 306 306 307 307 307 307 307 307 305 302 298 303 305 305 305 304 304 303 302 302 302 301 301 300 299 299 298 298 297 296 295 294 293 293 293 294 294 294 294
307 307 306 305 306 307 307 306 307 306 307 307 306 305 304 302 305 304 304 304 303 303 303 302 302 302 301 300 300 298 298 297 296 294 293 293 292 292 292 291 292 292 292
308 307 307 306 306 306 306 306 306 306 306 307 307 306 305 305 305 304 304 304 303 303 303 303 302 302 301 300 300 299 298 297 296 294 293 292 291 291 291 291 291 292 292
308 309 308 308 308 307 307 307 307 307 307 306 306 307 307 306 306 306 305 304 303 303 303 303 302 302 301 300 300 299 298 297 295 293 292 292 292 292 292 292 292 292 292
309 308 308 309 310 309 308 307 308 307 307 308 307 306 306 307 307 307 306 305 304 304 303 303 303 303 302 301 300 299 298 296 294 293 292 292 291 292 292 292 293 293 293

GFSGL_925_thetae_117.txt.gz
Theta_e
352 351 351 348 350 351 352 351 352 350 349 337 350 351 350 353 350 353 350 350 350 350 351 351 351 350 349 349 351 353 354 352 350 350 349 347 348 351 351 351 352 350 351
353 351 350 350 351 351 351 352 353 352 344 348 350 353 353 352 353 352 354 349 352 351 352 352 352 351 349 354 351 348 351 353 350 353 352 351 349 351 349 350 353 354 352
354 351 352 349 350 350 351 351 350 352 350 352 351 353 352 355 353 352 351 352 352 352 351 349 351 351 352 351 348 349 350 351 350 352 352 351 352 352 351 348 349 348 347
352 350 349 350 349 353 351 350 349 351 352 353 354 352 353 351 351 353 351 352 352 351 351 352 351 349 353 352 350 351 351 349 349 350 352 351 352 354 353 353 352 350 347
341 340 349 349 347 350 351 349 350 350 351 351 351 352 350 352 352 351 350 351 350 348 349 349 350 350 350 349 349 348 347 347 347 348 349 351 352 351 353 353 352 348 350
344 348 347 347 349 349 349 350 350 347 350 348 352 350 349 348 348 349 345 346 339 337 342 337 349 349 348 349 351 350 350 352 352 352 352 352 352 349 345 348 348 351 352
345 345 345 345 345 345 345 346 348 348 348 349 349 347 344 344 344 346 346 345 347 346 338 349 348 344 342 343 345 349 348 348 350 349 341 337 337 338 341 345 347 348 349
349 348 346 345 345 345 345 344 346 347 345 347 343 339 337 338 342 344 346 349 347 347 346 343 338 331 329 337 338 338 338 337 334 333 334 338 341 343 344 343 341 340 340
346 344 343 342 342 341 341 340 335 342 338 331 334 335 334 332 335 345 348 347 343 339 332 324 322 320 319 324 325 319 317 317 329 332 334 344 337 330 328 329 332 336 333
344 343 343 342 341 340 338 338 336 335 335 333 327 324 324 329 331 338 345 337 330 324 323 321 317 316 316 317 319 317 316 324 329 332 338 337 333 324 325 326 331 330 328
339 339 340 340 340 341 339 338 335 333 331 328 325 320 320 320 321 327 333 331 333 327 326 319 315 313 315 319 319 319 323 328 326 325 323 322 322 322 321 322 321 318 319
333 334 335 335 335 338 337 334 333 332 329 326 323 320 319 317 315 315 318 321 322 324 318 313 312 319 320 320 322 323 325 324 323 319 319 317 316 315 316 316 316 317 318
329 331 332 333 332 331 331 330 329 328 325 324 323 318 314 313 312 312 310 309 310 310 312 315 317 318 319 318 318 318 319 317 317 315 313 314 314 314 314 314 312 312 313
324 325 326 328 328 329 327 326 326 325 325 325 325 318 314 313 306 306 308 308 307 308 313 316 315 314 313 312 313 311 309 309 308 308 308 308 309 310 309 308 309 309 309
321 321 320 317 317 318 317 315 313 313 316 318 320 318 315 311 301 301 302 304 309 313 314 312 311 310 310 309 308 308 306 307 306 306 307 308 306 305 305 306 304 304 305
321 319 320 318 315 314 313 306 307 307 307 311 310 312 311 304 300 301 305 309 310 310 310 309 308 308 307 307 307 306 305 304 304 304 304 303 303 303 303 302 302 302 302
318 319 319 316 314 311 308 306 303 301 304 305 305 301 300 300 301 305 306 307 309 309 309 309 308 307 306 305 305 305 303 303 303 303 302 302 301 301 300 300 300 299 299
312 316 318 318 312 309 307 305 301 300 299 298 298 299 299 301 302 304 305 307 307 307 306 306 306 305 305 304 303 303 302 301 301 301 300 299 299 298 298 297 297 297 297
311 310 311 313 312 311 308 306 304 304 300 298 298 298 299 302 305 306 307 307 306 306 305 305 304 304 303 303 302 302 301 300 300 299 298 298 297 296 296 296 296 296 296
310 308 309 309 309 310 310 309 306 306 305 302 300 301 302 302 304 306 306 306 305 305 305 304 303 303 302 302 301 300 300 299 298 298 297 296 294 294 294 294 294 294 294
309 308 307 308 308 308 308 307 308 310 308 308 308 306 305 306 306 307 306 305 305 304 303 303 302 302 301 301 299 299 298 298 297 295 294 293 293 293 293 292 292 292 292
307 306 306 307 306 307 308 308 307 307 307 307 305 304 302 304 306 306 305 304 304 303 302 302 302 301 301 300 299 298 297 297 297 295 294 293 293 292 292 291 291 292 292
310 307 306 304 306 306 306 307 306 306 306 308 306 305 303 302 305 305 304 304 303 303 303 302 302 302 301 300 300 299 299 298 297 296 295 293 292 292 291 291 292 292 292
308 308 306 306 304 305 307 306 306 307 307 307 307 306 305 304 302 305 304 304 303 303 303 303 302 302 301 301 300 299 299 298 298 297 295 293 292 292 292 292 292 292 292
309 308 308 307 306 306 306 307 306 306 306 306 306 307 305 305 305 304 304 304 303 303 303 303 302 302 301 300 300 300 299 298 298 297 295 294 292 292 292 292 293 293 293
308 308 308 309 309 309 307 306 307 307 307 306 307 306 306 306 306 305 305 305 304 303 303 303 303 302 302 302 302 301 300 299 298 297 296 294 292 292 293 293 293 294 294

GFSGL_925_thetae_123.txt.gz
Theta_e
348 349 349 348 347 345 349 349 350 348 348 349 349 350 349 349 349 351 351 350 350 351 351 349 349 349 350 349 349 350 351 349 345 347 349 350 351 350 348 345 345 344 345
348 349 348 349 348 350 351 350 349 347 349 350 350 350 349 349 350 350 352 350 348 349 349 349 349 349 350 350 350 348 348 349 348 347 349 348 346 346 346 345 344 348 348
348 347 349 351 349 349 351 350 350 347 350 348 349 348 347 350 349 351 350 351 351 348 350 350 351 350 350 350 349 348 349 348 348 348 345 346 348 347 344 344 347 349 345
348 347 348 350 349 349 349 350 350 350 351 350 345 344 349 351 351 352 351 350 351 352 351 349 349 350 350 351 349 349 349 347 345 345 347 349 349 341 344 346 346 348 346
350 348 348 348 351 350 349 350 350 350 351 350 350 350 350 350 351 351 351 350 350 351 350 349 348 348 349 349 348 348 347 347 348 349 349 348 344 338 342 343 345 345 345
351 350 349 351 351 350 350 349 348 349 349 348 349 351 351 349 349 347 348 348 349 349 348 346 347 347 347 348 347 347 347 348 349 349 342 337 338 340 341 342 340 340 344
348 348 348 348 347 345 345 346 345 345 347 347 347 347 347 347 347 346 346 347 346 344 343 341 340 342 343 345 344 344 344 344 341 336 334 337 337 338 338 336 332 335 323
344 343 345 343 344 343 342 344 343 343 345 346 346 345 345 345 345 344 345 345 343 340 339 338 339 338 340 340 339 335 330 330 332 334 331 328 329 331 332 329 325 326 337
342 343 343 344 343 344 344 343 342 342 341 341 339 339 339 340 341 342 344 344 343 340 337 331 330 333 330 327 328 326 331 327 324 324 322 321 322 322 322 324 322 321 323
345 345 344 344 343 342 341 339 339 337 334 329 332 336 338 340 340 339 339 342 339 330 319 317 318 320 320 318 319 329 330 323 321 319 318 318 317 316 317 317 319 317 316
344 343 343 342 341 340 337 335 332 329 327 327 328 331 334 338 339 339 335 336 337 322 316 315 317 318 318 317 323 327 326 320 319 318 317 314 314 312 311 312 312 311 308
341 340 339 339 339 338 336 334 331 329 327 321 318 317 322 330 333 334 336 331 323 315 317 318 320 320 321 323 324 322 320 319 317 316 313 309 307 306 305 309 307 303 301
337 337 338 338 338 337 336 332 328 322 317 313 312 312 311 313 323 326 324 325 321 317 318 319 319 319 319 318 316 318 318 317 312 308 305 304 303 302 302 302 304 299 299
332 330 331 332 330 329 328 326 323 319 316 314 312 310 310 311 312 312 315 316 314 315 316 314 314 314 313 310 310 309 307 306 305 304 302 301 300 299 298 298 298 298 297
326 325 324 325 325 322 321 318 321 321 322 317 314 312 306 305 308 310 310 313 315 315 314 311 310 308 306 305 304 304 304 303 302 301 300 299 297 297 296 296 296 296 296
321 320 319 317 316 316 315 311 310 312 320 321 314 313 308 303 301 303 305 310 313 311 310 308 307 305 304 304 303 302 302 301 300 299 297 296 296 295 295 295 295 294 294
319 318 317 316 316 316 317 318 317 315 313 314 316 314 306 303 303 308 310 311 310 309 309 307 306 305 304 303 302 301 300 299 298 296 295 295 295 294 294 294 294 293 293
319 319 317 314 313 312 310 311 313 314 311 306 300 300 301 303 303 306 309 309 308 307 307 305 305 304 303 302 301 300 299 298 296 295 294 294 294 293 293 293 293 293 293
312 316 318 318 314 308 305 305 304 304 304 303 300 301 304 303 305 306 308 309 308 307 306 305 304 302 301 301 300 299 298 296 294 294 294 293 293 293 293 293 293 292 292
308 309 310 312 317 311 306 301 301 300 299 299 298 300 301 303 305 306 308 308 307 306 305 304 303 302 301 301 300 299 298 294 294 294 293 293 292 292 293 293 293 293 293
308 307 308 311 315 313 309 306 305 304 300 298 298 299 302 305 306 306 305 305 305 304 304 303 302 301 300 300 299 298 297 295 295 294 293 293 292 292 293 293 293 293 293
309 307 306 307 307 309 310 308 308 306 306 302 301 301 300 303 305 305 305 305 305 305 304 303 302 301 300 298 298 297 297 296 296 296 294 294 292 292 292 294 293 294 294
309 307 306 306 305 305 306 306 306 308 307 307 306 305 304 305 306 306 305 305 304 304 303 302 301 300 300 299 299 299 299 297 298 297 296 296 294 292 292 293 294 294 294
307 308 308 307 305 305 305 305 305 306 306 307 307 308 307 305 304 305 307 305 304 303 303 302 301 301 301 301 300 300 298 298 299 299 298 297 297 294 292 292 294 294 294
308 307 308 307 306 305 304 304 306 306 305 306 306 306 306 305 303 302 305 305 304 303 303 303 302 302 302 302 301 301 301 299 299 299 298 298 297 297 294 292 292 293 293
311 308 308 308 308 307 307 306 305 305 306 306 306 305 306 306 305 303 302 304 304 304 303 303 303 303 303 302 302 302 302 301 301 300 299 298 297 297 295 292 292 293 293